[[{"header":{"parameterUnit":"m.s-1","parameterCategory":1,"la1":31.0,"la2":29.5877,"lo1":-88.7671,"lo2":-86.6584,"dy":0.0162,"dx":0.0185,"nx":115,"ny":88,"refTime":"2023-02-22T18:00:00:Z","depth":0,"parameterNumber":2,"parameterNumberName":"U-component_of_WINDS"},"data":[0.0,0.0,0.0,0.0,0.0,0.0,0.0,0.0,0.0,0.0,0.0,0.0,0.0,0.0,0.0,0.0,0.0,0.0,0.0,0.0,0.0,0.0,0.0,0.0,0.0,0.0,0.0,0.0,0.0,0.0,0.0,0.0,0.0,0.0,0.0,0.0,0.0,0.0,0.0,0.0,0.0,0.0,0.0,0.0,0.0,0.0,0.0,0.0,0.0,0.0,0.0,0.0,0.0,0.0,0.0,0.0,0.0,0.0,0.0,0.0,0.0,0.0,0.0,0.0,0.0,0.0,0.0,0.0,0.0,0.0,0.0,0.0,0.0,0.0,0.0,0.0,0.0,0.0,0.0,0.0,0.0,0.0,0.0,0.0,0.0,0.0,0.0,0.0,0.0,0.0,0.0,0.0,0.0,0.0,0.0,0.0,0.0,0.0,0.0,0.0,0.0,0.0,0.0,0.0,0.0,0.0,0.0,0.0,0.0,0.0,0.0,0.0,0.0,0.0,0.0,0.0,0.0,0.0,0.0,0.0,0.0,0.0,0.0,0.0,0.0,0.0,0.0,0.0,0.0,0.0,0.0,0.0,0.0,0.0,0.0,0.0,0.0,0.0,0.0,0.0,0.0,0.0,0.0,0.0,0.0,0.0,0.0,0.0,0.0,0.0,0.0,0.0,0.0,0.0,0.0,0.0,0.0,0.0,0.0,0.0,0.0,0.0,0.0,0.0,0.0,0.0,0.0,0.0,0.0,0.0,0.0,0.0,0.0,0.0,0.0,0.0,0.0,0.0,0.0,0.0,0.0,0.0,0.0,0.0,0.0,0.0,0.0,0.0,0.0,0.0,0.0,0.0,0.0,0.0,0.0,0.0,0.0,0.0,0.0,0.0,0.0,0.0,0.0,0.0,0.0,0.0,0.0,0.0,0.0,0.0,0.0,0.0,0.0,0.0,0.0,0.0,0.0,0.0,0.0,0.0,0.0,0.0,0.0,0.0,0.0,0.0,0.0,0.0,0.0,0.0,0.0,0.0,0.0,0.0,0.0,0.0,0.0,0.0,0.0,0.0,0.0,0.0,0.0,0.0,0.0,0.0,0.0,0.0,0.0,0.0,0.0,0.0,0.0,0.0,0.0,0.0,0.0,0.0,0.0,0.0,0.0,0.0,0.0,0.0,0.0,0.0,0.0,0.0,0.0,0.0,0.0,0.0,0.0,0.0,0.0,0.0,0.0,0.0,0.0,0.0,0.0,0.0,0.0,0.0,0.0,0.0,0.0,0.0,0.0,0.0,0.0,0.0,0.0,0.0,0.0,0.0,0.0,0.0,0.0,0.0,0.0,0.0,0.0,0.0,0.0,0.0,0.0,0.0,0.0,0.0,0.0,0.0,0.0,0.0,0.0,0.0,0.0,0.0,0.0,0.0,0.0,0.0,0.0,0.0,0.0,0.0,0.0,0.0,0.0,0.0,0.0,0.0,0.0,0.0,0.0,0.0,0.0,0.0,0.0,0.0,0.0,0.0,0.0,0.0,0.0,0.0,0.0,0.0,0.0,0.0,0.0,0.0,0.0,0.0,0.0,0.0,0.0,0.0,0.0,0.0,0.0,0.0,0.0,0.0,0.0,0.0,0.0,0.0,0.0,0.0,0.0,0.0,0.0,0.0,0.0,0.0,0.0,0.0,0.0,0.0,0.0,0.0,0.0,0.0,0.0,0.0,0.0,0.0,0.0,0.0,0.0,0.0,0.0,0.0,0.0,0.0,0.0,0.0,0.0,0.0,0.0,0.0,0.0,0.0,0.0,0.0,0.0,0.0,0.0,0.0,0.0,0.0,0.0,0.0,0.0,0.0,0.0,0.0,0.0,0.0,0.0,0.0,0.0,0.0,0.0,0.0,0.0,0.0,0.0,0.0,0.0,0.0,0.0,0.0,0.0,0.0,0.0,0.0,0.0,0.0,0.0,0.0,0.0,0.0,0.0,0.0,0.0,0.0,0.0,0.0,0.0,0.0,0.0,0.0,0.0,0.0,0.0,0.0,0.0,0.0,0.0,0.0,0.0,0.0,0.0,0.0,0.0,0.0,0.0,0.0,0.0,0.0,0.0,0.0,0.0,0.0,0.0,0.0,0.0,0.0,0.0,0.0,0.0,0.0,0.0,0.0,0.0,0.0,0.0,0.0,0.0,0.0,0.0,0.0,0.0,0.0,0.0,0.0,0.0,0.0,0.0,0.0,0.0,0.0,0.0,0.0,0.0,0.0,0.0,0.0,0.0,0.0,0.0,0.0,0.0,0.0,0.0,0.0,0.0,0.0,0.0,0.0,0.0,0.0,0.0,0.0,0.0,0.0,0.0,0.0,0.0,0.0,0.0,0.0,0.0,0.0,0.0,0.0,0.0,0.0,0.0,0.0,0.0,0.0,0.0,0.0,0.0,0.0,0.0,0.0,0.0,0.0,0.0,0.0,0.0,0.0,0.0,0.0,0.0,0.0,0.0,0.0,0.0,0.0,0.0,0.0,0.0,0.0,0.0,0.0,0.0,0.0,0.0,0.0,0.0,0.0,0.0,0.0,0.0,0.0,0.0,0.0,0.0,0.0,0.0,0.0,0.0,0.0,0.0,0.0,0.0,0.0,0.0,0.0,0.0,0.0,0.0,0.0,0.0,0.0,0.0,0.0,0.0,0.0,0.0,0.0,0.0,0.0,0.0,0.0,0.0,0.0,0.0,0.0,0.0,0.0,0.0,0.0,0.0,0.0,0.0,0.0,0.0,0.0,0.0,0.0,0.0,0.0,0.0,0.0,0.0,0.0,0.0,0.0,0.0,0.0,0.0,0.0,0.0,0.0,0.0,0.0,0.0,0.0,0.0,0.0,0.0,0.0,0.0,0.0,0.0,0.0,0.0,0.0,0.0,0.0,0.0,0.0,0.0,0.0,0.0,0.0,0.0,0.0,0.0,0.0,0.0,0.0,0.0,0.0,0.0,0.0,0.0,0.0,0.0,0.0,0.0,0.0,0.0,0.0,0.0,0.0,0.0,0.0,0.0,0.0,0.0,0.0,0.0,0.0,0.0,0.0,0.0,0.0,0.0,0.0,0.0,0.0,0.0,0.0,0.0,0.0,0.0,0.0,0.0,0.0,0.0,0.0,0.0,0.0,0.0,0.0,0.0,0.0,0.0,0.0,0.0,0.0,0.0,0.0,0.0,0.0,0.0,0.0,0.0,0.0,0.0,0.0,0.0,0.0,0.0,0.0,0.0,0.0,0.0,0.0,0.0,0.0,0.0,0.0,0.0,0.0,0.0,0.0,0.0,0.0,0.0,0.0,0.0,0.0,0.0,0.0,0.0,0.0,0.0,0.0,0.0,0.0,0.0,0.0,0.0,0.0,0.0,0.0,0.0,0.0,0.0,0.0,0.0,0.0,0.0,0.0,0.0,0.0,0.0,0.0,0.0,0.0,0.0,0.0,0.0,0.0,0.0,0.0,0.0,0.0,0.0,0.0,0.0,0.0,0.0,0.0,0.0,0.0,0.0,0.0,0.0,0.0,0.0,0.0,0.0,0.0,0.0,0.0,0.0,0.0,0.0,0.0,0.0,0.0,0.0,0.0,0.0,0.0,0.0,0.0,0.0,0.0,0.0,0.0,0.0,0.0,0.0,0.0,0.0,0.0,0.0,0.0,0.0,0.0,0.0,0.0,0.0,0.0,0.0,0.0,0.0,0.0,0.0,0.0,0.0,0.0,0.0,0.0,0.0,0.0,0.0,0.0,0.0,0.0,0.0,0.0,0.0,0.0,0.0,0.0,0.0,0.0,0.0,0.0,0.0,0.0,0.0,0.0,0.0,0.0,0.0,0.0,0.0,0.0,0.0,0.0,0.0,0.0,0.0,0.0,0.0,0.0,0.0,0.0,0.0,0.0,0.0,0.0,0.0,0.0,0.0,0.0,0.0,0.0,0.0,0.0,0.0,0.0,0.0,0.0,0.0,0.0,0.0,0.0,0.0,0.0,0.0,0.0,0.0,0.0,0.0,0.0,0.0,0.0,0.0,0.0,0.0,0.0,0.0,0.0,0.0,0.0,0.0,0.0,0.0,0.0,0.0,0.0,0.0,0.0,0.0,0.0,0.0,0.0,0.0,0.0,0.0,0.0,0.0,0.0,0.0,0.0,0.0,0.0,0.0,0.0,0.0,0.0,0.0,0.0,0.0,0.0,0.0,0.0,0.0,0.0,0.0,0.0,0.0,0.0,0.0,0.0,0.0,0.0,0.0,0.0,0.0,0.0,0.0,0.0,-7.9636,0.0,0.0,0.0,0.0,0.0,0.0,0.0,0.0,0.0,0.0,0.0,0.0,0.0,0.0,0.0,0.0,0.0,0.0,0.0,0.0,0.0,0.0,0.0,0.0,0.0,0.0,0.0,0.0,0.0,0.0,0.0,0.0,0.0,0.0,0.0,0.0,0.0,0.0,0.0,0.0,0.0,0.0,0.0,0.0,0.0,0.0,0.0,0.0,0.0,0.0,0.0,0.0,0.0,0.0,0.0,0.0,0.0,0.0,0.0,0.0,0.0,0.0,0.0,0.0,0.0,0.0,0.0,0.0,0.0,0.0,0.0,0.0,0.0,0.0,0.0,0.0,0.0,0.0,0.0,0.0,0.0,0.0,0.0,0.0,0.0,0.0,0.0,0.0,0.0,0.0,0.0,0.0,0.0,0.0,0.0,0.0,0.0,0.0,0.0,0.0,0.0,0.0,0.0,0.0,0.0,0.0,0.0,0.0,0.0,0.0,-8.1158,-8.1499,-7.9509,-7.8579,-7.8945,0.0,0.0,0.0,0.0,0.0,0.0,0.0,0.0,0.0,0.0,0.0,0.0,0.0,0.0,0.0,0.0,0.0,0.0,0.0,0.0,0.0,0.0,0.0,0.0,0.0,0.0,0.0,0.0,0.0,0.0,0.0,0.0,0.0,0.0,0.0,0.0,0.0,0.0,0.0,0.0,0.0,0.0,0.0,0.0,0.0,0.0,0.0,0.0,0.0,0.0,0.0,0.0,0.0,0.0,0.0,0.0,0.0,0.0,0.0,0.0,0.0,0.0,0.0,0.0,0.0,0.0,0.0,0.0,0.0,0.0,0.0,0.0,0.0,0.0,0.0,0.0,0.0,0.0,0.0,0.0,0.0,0.0,0.0,0.0,0.0,0.0,0.0,0.0,0.0,0.0,0.0,0.0,0.0,0.0,0.0,0.0,0.0,0.0,0.0,0.0,0.0,0.0,0.0,0.0,0.0,0.0,0.0,0.0,0.0,0.0,0.0,0.0,-7.9182,-7.8285,-7.8086,0.0,0.0,0.0,0.0,0.0,0.0,0.0,0.0,0.0,0.0,0.0,0.0,0.0,0.0,0.0,0.0,0.0,0.0,0.0,0.0,0.0,0.0,0.0,0.0,0.0,0.0,0.0,0.0,0.0,0.0,0.0,0.0,0.0,0.0,0.0,0.0,0.0,0.0,0.0,0.0,0.0,0.0,0.0,0.0,0.0,0.0,0.0,0.0,0.0,0.0,0.0,0.0,0.0,0.0,0.0,0.0,0.0,0.0,0.0,0.0,0.0,0.0,0.0,0.0,0.0,0.0,0.0,0.0,0.0,0.0,0.0,0.0,0.0,0.0,0.0,0.0,0.0,0.0,0.0,0.0,0.0,0.0,0.0,0.0,0.0,0.0,0.0,0.0,0.0,0.0,0.0,0.0,0.0,0.0,0.0,0.0,0.0,0.0,0.0,0.0,0.0,0.0,0.0,0.0,0.0,0.0,0.0,0.0,0.0,0.0,-7.9799,-7.9704,-7.8862,0.0,-7.7207,0.0,0.0,0.0,0.0,0.0,0.0,0.0,0.0,0.0,0.0,0.0,0.0,0.0,0.0,0.0,0.0,0.0,0.0,0.0,0.0,0.0,0.0,0.0,0.0,0.0,0.0,0.0,0.0,0.0,0.0,0.0,0.0,0.0,0.0,0.0,0.0,0.0,0.0,0.0,0.0,0.0,0.0,0.0,0.0,0.0,0.0,0.0,0.0,0.0,0.0,0.0,0.0,0.0,0.0,0.0,0.0,0.0,0.0,0.0,0.0,0.0,0.0,0.0,0.0,0.0,0.0,0.0,0.0,0.0,0.0,0.0,0.0,0.0,0.0,0.0,0.0,0.0,0.0,0.0,0.0,0.0,0.0,0.0,0.0,0.0,0.0,0.0,0.0,0.0,0.0,0.0,0.0,0.0,0.0,0.0,0.0,0.0,0.0,0.0,0.0,0.0,0.0,0.0,0.0,0.0,0.0,0.0,0.0,0.0,0.0,-7.9153,-7.8077,-7.7229,-7.6878,0.0,0.0,0.0,0.0,0.0,0.0,0.0,0.0,0.0,0.0,0.0,0.0,0.0,0.0,0.0,0.0,0.0,0.0,0.0,0.0,0.0,0.0,0.0,0.0,0.0,0.0,0.0,0.0,0.0,0.0,0.0,0.0,0.0,0.0,0.0,0.0,0.0,0.0,0.0,0.0,0.0,0.0,0.0,0.0,0.0,0.0,0.0,0.0,0.0,0.0,0.0,0.0,0.0,0.0,0.0,0.0,0.0,0.0,0.0,0.0,0.0,0.0,0.0,0.0,0.0,0.0,0.0,0.0,0.0,0.0,0.0,0.0,0.0,0.0,0.0,0.0,0.0,0.0,0.0,0.0,0.0,0.0,0.0,0.0,0.0,0.0,0.0,0.0,0.0,0.0,0.0,0.0,0.0,0.0,0.0,0.0,0.0,0.0,0.0,0.0,0.0,0.0,0.0,0.0,0.0,0.0,0.0,0.0,0.0,0.0,-7.8545,-7.7926,-7.6731,-7.6258,-7.6331,-7.6994,0.0,0.0,0.0,0.0,0.0,0.0,0.0,0.0,0.0,0.0,0.0,0.0,0.0,0.0,0.0,0.0,0.0,0.0,0.0,0.0,0.0,0.0,0.0,0.0,0.0,0.0,0.0,0.0,0.0,0.0,0.0,0.0,0.0,0.0,0.0,0.0,0.0,0.0,0.0,0.0,0.0,0.0,0.0,0.0,0.0,0.0,0.0,0.0,0.0,0.0,0.0,0.0,0.0,0.0,0.0,0.0,0.0,0.0,0.0,0.0,0.0,0.0,0.0,0.0,0.0,0.0,0.0,0.0,0.0,0.0,0.0,0.0,0.0,0.0,0.0,0.0,0.0,0.0,0.0,0.0,0.0,0.0,0.0,0.0,0.0,0.0,0.0,0.0,0.0,0.0,0.0,0.0,0.0,0.0,0.0,0.0,0.0,0.0,0.0,0.0,0.0,0.0,0.0,0.0,0.0,0.0,0.0,0.0,-7.5953,-7.5902,-7.584,-7.5757,-7.651,-7.696,0.0,0.0,0.0,0.0,0.0,0.0,0.0,0.0,0.0,0.0,0.0,0.0,0.0,0.0,0.0,0.0,0.0,0.0,0.0,0.0,0.0,0.0,0.0,0.0,0.0,0.0,0.0,0.0,0.0,0.0,0.0,0.0,0.0,0.0,0.0,0.0,0.0,0.0,0.0,0.0,0.0,0.0,0.0,0.0,0.0,0.0,0.0,0.0,0.0,0.0,0.0,0.0,0.0,0.0,0.0,0.0,0.0,0.0,0.0,0.0,0.0,0.0,0.0,0.0,0.0,0.0,0.0,0.0,0.0,0.0,0.0,0.0,0.0,0.0,0.0,0.0,0.0,0.0,0.0,0.0,0.0,0.0,0.0,0.0,0.0,0.0,0.0,0.0,0.0,0.0,0.0,0.0,0.0,0.0,0.0,0.0,0.0,0.0,0.0,0.0,0.0,0.0,0.0,0.0,0.0,0.0,0.0,0.0,0.0,-7.5713,-7.5179,-7.4873,-7.4873,-7.5719,-7.6181,0.0,0.0,0.0,0.0,0.0,0.0,0.0,0.0,0.0,0.0,0.0,0.0,0.0,0.0,0.0,0.0,0.0,0.0,0.0,0.0,0.0,0.0,0.0,0.0,0.0,0.0,0.0,0.0,0.0,0.0,0.0,0.0,0.0,0.0,0.0,0.0,0.0,0.0,0.0,0.0,0.0,0.0,0.0,0.0,0.0,0.0,0.0,0.0,0.0,0.0,0.0,0.0,0.0,0.0,0.0,0.0,0.0,0.0,0.0,0.0,0.0,0.0,0.0,0.0,0.0,0.0,0.0,0.0,0.0,0.0,0.0,0.0,0.0,0.0,0.0,0.0,0.0,0.0,0.0,0.0,0.0,0.0,0.0,0.0,0.0,0.0,0.0,0.0,0.0,0.0,0.0,0.0,0.0,0.0,0.0,0.0,0.0,0.0,0.0,0.0,0.0,0.0,0.0,0.0,0.0,0.0,0.0,0.0,0.0,-7.4883,0.0,-7.3969,-7.3969,-7.4787,-7.5261,0.0,0.0,0.0,0.0,0.0,0.0,0.0,0.0,0.0,0.0,0.0,0.0,0.0,0.0,0.0,0.0,0.0,0.0,0.0,0.0,0.0,0.0,0.0,0.0,0.0,0.0,0.0,0.0,0.0,0.0,0.0,0.0,0.0,0.0,0.0,0.0,0.0,0.0,0.0,0.0,0.0,0.0,0.0,0.0,0.0,0.0,0.0,0.0,0.0,0.0,0.0,0.0,0.0,0.0,0.0,0.0,0.0,0.0,0.0,0.0,0.0,0.0,0.0,0.0,0.0,0.0,0.0,0.0,0.0,0.0,0.0,0.0,0.0,0.0,0.0,0.0,0.0,0.0,0.0,0.0,0.0,0.0,0.0,0.0,0.0,0.0,0.0,0.0,0.0,0.0,0.0,0.0,0.0,0.0,0.0,0.0,0.0,0.0,0.0,0.0,0.0,0.0,0.0,0.0,0.0,0.0,0.0,0.0,-7.4762,-7.3211,-7.3062,-7.3048,-7.3002,-7.3858,-7.4346,0.0,0.0,0.0,0.0,0.0,0.0,0.0,0.0,0.0,0.0,0.0,0.0,0.0,0.0,0.0,0.0,0.0,0.0,0.0,0.0,0.0,0.0,0.0,0.0,0.0,0.0,0.0,0.0,0.0,0.0,0.0,0.0,0.0,0.0,0.0,0.0,0.0,0.0,0.0,0.0,0.0,0.0,0.0,0.0,0.0,0.0,0.0,0.0,0.0,0.0,0.0,0.0,0.0,0.0,0.0,0.0,0.0,0.0,0.0,0.0,0.0,0.0,0.0,0.0,0.0,0.0,0.0,0.0,0.0,0.0,0.0,0.0,0.0,0.0,0.0,0.0,0.0,0.0,0.0,0.0,0.0,0.0,0.0,0.0,0.0,0.0,0.0,0.0,0.0,0.0,0.0,0.0,0.0,0.0,0.0,0.0,0.0,0.0,0.0,0.0,0.0,0.0,0.0,0.0,0.0,0.0,0.0,0.0,0.0,-7.3055,-7.3009,-7.2691,-7.2185,-7.3547,-7.4021,0.0,0.0,0.0,0.0,0.0,0.0,0.0,0.0,0.0,0.0,0.0,0.0,0.0,0.0,0.0,0.0,0.0,0.0,0.0,0.0,0.0,0.0,0.0,0.0,0.0,0.0,0.0,0.0,0.0,0.0,0.0,0.0,0.0,0.0,0.0,0.0,0.0,0.0,0.0,0.0,0.0,0.0,0.0,0.0,0.0,0.0,0.0,0.0,0.0,0.0,0.0,0.0,0.0,0.0,0.0,0.0,0.0,0.0,0.0,0.0,0.0,0.0,0.0,0.0,0.0,0.0,0.0,0.0,0.0,0.0,0.0,0.0,0.0,0.0,0.0,0.0,0.0,0.0,0.0,0.0,0.0,0.0,0.0,0.0,0.0,0.0,0.0,0.0,0.0,0.0,0.0,0.0,0.0,0.0,0.0,0.0,0.0,0.0,0.0,0.0,0.0,0.0,0.0,0.0,0.0,0.0,0.0,0.0,0.0,-7.2025,-7.2327,-7.2107,-7.1212,-7.2574,-7.3073,-7.2553,0.0,0.0,0.0,0.0,0.0,0.0,0.0,0.0,0.0,0.0,0.0,0.0,0.0,0.0,0.0,0.0,0.0,0.0,0.0,0.0,0.0,0.0,0.0,0.0,0.0,0.0,0.0,0.0,0.0,0.0,0.0,0.0,0.0,0.0,0.0,0.0,0.0,0.0,0.0,0.0,0.0,0.0,0.0,0.0,0.0,0.0,0.0,0.0,0.0,0.0,0.0,0.0,0.0,0.0,0.0,0.0,0.0,0.0,0.0,0.0,0.0,0.0,0.0,0.0,0.0,0.0,0.0,0.0,0.0,0.0,0.0,0.0,0.0,0.0,0.0,0.0,0.0,0.0,0.0,0.0,0.0,0.0,0.0,0.0,0.0,0.0,0.0,0.0,0.0,0.0,0.0,0.0,0.0,0.0,0.0,0.0,0.0,0.0,0.0,0.0,0.0,0.0,0.0,0.0,0.0,0.0,0.0,0.0,-7.0199,-7.1053,-7.1166,-7.0466,-7.1283,-7.1697,0.0,0.0,0.0,0.0,0.0,0.0,0.0,0.0,0.0,0.0,0.0,0.0,0.0,0.0,0.0,0.0,0.0,0.0,0.0,0.0,0.0,0.0,0.0,0.0,0.0,0.0,0.0,0.0,0.0,0.0,0.0,0.0,0.0,0.0,0.0,0.0,0.0,0.0,0.0,0.0,0.0,0.0,0.0,0.0,0.0,0.0,0.0,0.0,0.0,0.0,0.0,0.0,0.0,0.0,0.0,0.0,0.0,0.0,0.0,0.0,0.0,0.0,0.0,0.0,0.0,0.0,0.0,0.0,0.0,0.0,0.0,0.0,0.0,0.0,0.0,0.0,0.0,0.0,0.0,0.0,0.0,0.0,0.0,0.0,0.0,0.0,0.0,0.0,0.0,0.0,0.0,0.0,0.0,0.0,0.0,0.0,0.0,0.0,0.0,0.0,0.0,0.0,0.0,0.0,0.0,0.0,0.0,0.0,0.0,-6.8574,-6.9267,-6.9935,-7.0385,-7.1218,-7.1638,0.0,0.0,0.0,0.0,0.0,0.0,0.0,0.0,0.0,0.0,0.0,0.0,0.0,0.0,0.0,0.0,0.0,0.0,0.0,0.0,0.0,0.0,0.0,0.0,0.0,0.0,0.0,0.0,0.0,0.0,0.0,0.0,0.0,0.0,0.0,0.0,0.0,0.0,0.0,0.0,0.0,0.0,0.0,0.0,0.0,0.0,0.0,0.0,0.0,0.0,0.0,0.0,0.0,0.0,0.0,0.0,0.0,0.0,0.0,0.0,0.0,0.0,0.0,0.0,0.0,0.0,0.0,0.0,0.0,0.0,0.0,0.0,0.0,0.0,0.0,0.0,0.0,0.0,0.0,0.0,0.0,0.0,0.0,0.0,0.0,0.0,0.0,0.0,0.0,0.0,0.0,0.0,0.0,0.0,0.0,0.0,0.0,0.0,0.0,0.0,0.0,0.0,0.0,0.0,0.0,0.0,0.0,0.0,-6.9204,-6.8247,-6.8364,-6.8691,-6.9236,-7.0456,-7.1482,0.0,0.0,0.0,0.0,0.0,0.0,0.0,0.0,0.0,0.0,0.0,0.0,0.0,0.0,0.0,0.0,0.0,0.0,0.0,0.0,0.0,0.0,0.0,0.0,0.0,0.0,0.0,0.0,0.0,0.0,0.0,0.0,0.0,0.0,0.0,0.0,0.0,0.0,0.0,0.0,0.0,0.0,0.0,0.0,0.0,0.0,0.0,0.0,0.0,0.0,0.0,0.0,0.0,0.0,0.0,0.0,0.0,0.0,0.0,0.0,0.0,0.0,0.0,0.0,0.0,0.0,0.0,0.0,0.0,0.0,0.0,0.0,0.0,0.0,0.0,0.0,0.0,0.0,0.0,0.0,0.0,0.0,0.0,0.0,0.0,0.0,0.0,0.0,0.0,0.0,0.0,0.0,0.0,0.0,0.0,0.0,0.0,0.0,0.0,0.0,0.0,0.0,0.0,0.0,0.0,0.0,0.0,0.0,-6.8694,-6.8539,-6.7813,-6.7587,-6.7873,-6.9508,-7.1109,0.0,0.0,0.0,0.0,0.0,0.0,0.0,0.0,0.0,0.0,0.0,0.0,0.0,0.0,0.0,0.0,0.0,0.0,0.0,0.0,0.0,0.0,0.0,0.0,0.0,0.0,0.0,0.0,0.0,0.0,0.0,0.0,0.0,0.0,0.0,0.0,0.0,0.0,0.0,0.0,0.0,0.0,0.0,0.0,0.0,0.0,0.0,0.0,0.0,0.0,0.0,0.0,0.0,0.0,0.0,0.0,0.0,0.0,0.0,0.0,0.0,0.0,0.0,0.0,0.0,0.0,0.0,0.0,0.0,0.0,0.0,0.0,0.0,0.0,0.0,0.0,0.0,0.0,0.0,0.0,0.0,0.0,0.0,0.0,0.0,0.0,0.0,0.0,0.0,0.0,0.0,0.0,0.0,0.0,0.0,0.0,0.0,0.0,0.0,0.0,0.0,0.0,0.0,0.0,0.0,0.0,0.0,0.0,-6.815,-6.6884,-6.6622,-6.7193,-6.8605,-6.967,-7.046,0.0,0.0,0.0,0.0,0.0,0.0,0.0,0.0,0.0,0.0,0.0,0.0,0.0,0.0,0.0,0.0,0.0,0.0,0.0,0.0,0.0,0.0,0.0,0.0,0.0,0.0,0.0,0.0,0.0,0.0,0.0,0.0,0.0,0.0,0.0,0.0,0.0,0.0,0.0,0.0,0.0,0.0,0.0,0.0,0.0,0.0,0.0,0.0,-7.6027,0.0,0.0,0.0,0.0,0.0,0.0,0.0,0.0,0.0,0.0,0.0,0.0,0.0,0.0,0.0,0.0,0.0,0.0,0.0,0.0,0.0,0.0,0.0,0.0,0.0,0.0,0.0,0.0,0.0,0.0,0.0,0.0,0.0,0.0,0.0,0.0,0.0,0.0,0.0,0.0,0.0,0.0,0.0,0.0,0.0,0.0,0.0,0.0,0.0,0.0,0.0,0.0,0.0,0.0,0.0,0.0,0.0,0.0,0.0,-6.8061,-6.6801,-6.6355,-6.6763,-6.8171,-6.9022,-7.0147,0.0,0.0,0.0,0.0,0.0,0.0,0.0,0.0,0.0,0.0,0.0,0.0,0.0,0.0,0.0,0.0,0.0,0.0,0.0,0.0,0.0,0.0,0.0,0.0,0.0,0.0,0.0,0.0,0.0,0.0,0.0,0.0,0.0,0.0,0.0,0.0,0.0,0.0,0.0,0.0,0.0,0.0,0.0,0.0,0.0,0.0,0.0,0.0,0.0,0.0,0.0,0.0,0.0,0.0,0.0,0.0,0.0,0.0,0.0,0.0,0.0,0.0,0.0,0.0,0.0,0.0,0.0,0.0,0.0,0.0,0.0,0.0,0.0,0.0,0.0,0.0,0.0,0.0,0.0,0.0,0.0,0.0,0.0,0.0,0.0,0.0,0.0,0.0,0.0,0.0,0.0,0.0,0.0,0.0,0.0,0.0,0.0,0.0,0.0,0.0,0.0,0.0,0.0,0.0,0.0,0.0,0.0,-6.8921,-6.8051,-6.712,-6.6387,-6.6499,-6.7548,-6.8304,-6.9948,-7.2628,0.0,0.0,0.0,0.0,0.0,0.0,0.0,0.0,0.0,0.0,0.0,0.0,0.0,0.0,0.0,0.0,0.0,0.0,0.0,0.0,0.0,0.0,0.0,0.0,0.0,0.0,0.0,0.0,0.0,0.0,0.0,0.0,0.0,0.0,0.0,0.0,0.0,0.0,-7.6283,-7.64,0.0,0.0,0.0,0.0,0.0,0.0,0.0,0.0,-7.5615,0.0,0.0,0.0,0.0,0.0,0.0,0.0,0.0,0.0,0.0,0.0,0.0,0.0,0.0,0.0,0.0,0.0,0.0,0.0,0.0,0.0,0.0,0.0,0.0,0.0,0.0,0.0,0.0,0.0,0.0,0.0,0.0,0.0,0.0,0.0,0.0,0.0,0.0,0.0,0.0,0.0,0.0,0.0,0.0,0.0,0.0,0.0,0.0,0.0,0.0,0.0,0.0,0.0,0.0,0.0,0.0,-6.8853,-6.8565,-6.7705,-6.6233,-6.6079,-6.6746,-6.834,-6.859,-6.9888,-7.231,0.0,0.0,0.0,0.0,0.0,0.0,0.0,0.0,0.0,0.0,0.0,0.0,0.0,0.0,0.0,0.0,0.0,0.0,0.0,0.0,0.0,0.0,0.0,0.0,0.0,0.0,0.0,0.0,0.0,0.0,0.0,0.0,0.0,0.0,0.0,0.0,0.0,0.0,0.0,-7.5484,-7.5743,0.0,0.0,0.0,0.0,0.0,0.0,0.0,0.0,-7.3933,0.0,0.0,0.0,0.0,0.0,0.0,0.0,0.0,0.0,0.0,0.0,0.0,0.0,0.0,0.0,0.0,0.0,0.0,0.0,0.0,0.0,0.0,0.0,0.0,0.0,0.0,0.0,0.0,0.0,0.0,0.0,0.0,0.0,0.0,0.0,0.0,0.0,0.0,0.0,0.0,0.0,0.0,0.0,0.0,0.0,0.0,0.0,0.0,0.0,0.0,0.0,0.0,0.0,0.0,0.0,-6.8576,-6.8026,-6.7179,-6.6071,-6.597,-6.6779,-6.8473,-6.855,-6.995,0.0,0.0,0.0,0.0,0.0,0.0,0.0,0.0,0.0,0.0,0.0,0.0,0.0,0.0,0.0,0.0,0.0,0.0,0.0,0.0,0.0,0.0,0.0,0.0,0.0,0.0,0.0,0.0,0.0,0.0,0.0,0.0,0.0,0.0,0.0,0.0,0.0,0.0,0.0,0.0,-7.4385,-7.4269,-7.2534,0.0,0.0,0.0,0.0,0.0,0.0,-7.3562,-7.3536,0.0,0.0,0.0,0.0,0.0,0.0,0.0,0.0,0.0,0.0,0.0,0.0,0.0,0.0,0.0,0.0,0.0,0.0,0.0,0.0,0.0,0.0,0.0,0.0,0.0,0.0,0.0,0.0,0.0,0.0,0.0,0.0,0.0,0.0,0.0,0.0,0.0,0.0,0.0,0.0,0.0,0.0,0.0,0.0,0.0,0.0,0.0,0.0,0.0,0.0,0.0,0.0,0.0,0.0,0.0,-6.845,-6.7552,-6.6705,-6.5998,-6.5897,-6.6667,-6.8386,-6.8398,-7.004,0.0,0.0,0.0,0.0,0.0,0.0,0.0,0.0,0.0,0.0,0.0,0.0,0.0,0.0,0.0,0.0,0.0,0.0,0.0,0.0,0.0,0.0,0.0,0.0,0.0,0.0,0.0,0.0,0.0,0.0,0.0,0.0,0.0,0.0,0.0,0.0,0.0,0.0,0.0,0.0,0.0,-7.2863,-7.1074,-7.2097,0.0,0.0,0.0,0.0,-7.3652,-7.3008,0.0,0.0,0.0,0.0,0.0,0.0,0.0,0.0,0.0,0.0,0.0,0.0,0.0,0.0,0.0,0.0,0.0,0.0,0.0,0.0,0.0,0.0,0.0,0.0,0.0,0.0,0.0,0.0,0.0,0.0,0.0,0.0,0.0,0.0,0.0,0.0,0.0,0.0,0.0,0.0,0.0,0.0,0.0,0.0,0.0,0.0,0.0,0.0,0.0,0.0,0.0,0.0,0.0,0.0,0.0,0.0,-6.8317,-6.7404,-6.6559,-6.5845,-6.5701,-6.6507,-6.8241,-6.8248,-6.9889,0.0,0.0,0.0,0.0,0.0,0.0,0.0,0.0,0.0,0.0,0.0,0.0,0.0,0.0,0.0,0.0,0.0,0.0,0.0,0.0,0.0,0.0,0.0,0.0,0.0,0.0,0.0,0.0,0.0,0.0,0.0,0.0,0.0,0.0,0.0,0.0,0.0,0.0,0.0,0.0,0.0,-7.2564,-7.0707,-7.1226,-7.18,0.0,0.0,-6.9759,-7.0599,-6.9997,0.0,0.0,0.0,0.0,0.0,0.0,0.0,0.0,0.0,0.0,0.0,0.0,0.0,0.0,0.0,0.0,0.0,0.0,0.0,0.0,0.0,0.0,0.0,0.0,0.0,0.0,0.0,0.0,0.0,0.0,0.0,0.0,0.0,0.0,0.0,0.0,0.0,0.0,0.0,0.0,0.0,0.0,0.0,0.0,0.0,0.0,0.0,0.0,0.0,0.0,0.0,0.0,0.0,0.0,0.0,-6.8744,-6.8124,-6.6901,-6.6085,-6.5726,-6.5608,-6.6427,-6.8196,-6.8148,-6.9734,0.0,0.0,0.0,0.0,0.0,0.0,0.0,0.0,0.0,0.0,0.0,0.0,0.0,0.0,0.0,0.0,0.0,0.0,0.0,0.0,0.0,0.0,0.0,0.0,0.0,0.0,0.0,0.0,0.0,0.0,0.0,0.0,0.0,0.0,0.0,0.0,0.0,0.0,0.0,0.0,0.0,0.0,-7.1057,-7.0387,0.0,0.0,0.0,-6.9869,-7.1309,0.0,0.0,0.0,0.0,0.0,0.0,0.0,0.0,0.0,0.0,0.0,0.0,0.0,0.0,0.0,0.0,0.0,0.0,0.0,0.0,0.0,0.0,0.0,0.0,0.0,0.0,0.0,0.0,0.0,0.0,0.0,0.0,0.0,0.0,0.0,0.0,0.0,0.0,0.0,0.0,0.0,0.0,0.0,0.0,0.0,0.0,0.0,0.0,0.0,0.0,0.0,0.0,0.0,0.0,0.0,0.0,0.0,-6.7982,-6.649,-6.5674,-6.558,-6.5781,-6.6639,-6.8124,-6.8265,0.0,0.0,0.0,0.0,0.0,0.0,0.0,0.0,0.0,0.0,0.0,0.0,0.0,0.0,0.0,0.0,0.0,0.0,0.0,0.0,0.0,0.0,0.0,0.0,0.0,0.0,0.0,-7.2914,0.0,0.0,0.0,0.0,0.0,0.0,0.0,0.0,0.0,0.0,0.0,0.0,0.0,0.0,-7.039,-7.0928,-6.9379,-6.8319,0.0,0.0,-6.9753,-7.1122,-7.0053,-6.9669,0.0,0.0,0.0,0.0,0.0,0.0,0.0,0.0,0.0,0.0,0.0,0.0,0.0,0.0,0.0,0.0,0.0,0.0,0.0,0.0,0.0,0.0,0.0,0.0,0.0,0.0,0.0,0.0,0.0,0.0,0.0,0.0,0.0,0.0,0.0,0.0,0.0,0.0,0.0,0.0,0.0,0.0,0.0,0.0,0.0,0.0,0.0,0.0,0.0,0.0,0.0,0.0,0.0,0.0,-6.8265,-6.7944,-6.6351,-6.5509,-6.5547,-6.6223,-6.7118,-6.8074,-6.8762,-7.0056,0.0,0.0,0.0,0.0,0.0,0.0,0.0,0.0,0.0,0.0,0.0,0.0,0.0,0.0,0.0,0.0,0.0,0.0,0.0,0.0,0.0,0.0,0.0,0.0,0.0,0.0,0.0,0.0,0.0,0.0,0.0,0.0,0.0,0.0,0.0,0.0,0.0,0.0,0.0,0.0,0.0,-6.9873,-6.9773,-6.8161,-6.6681,0.0,0.0,-6.8114,-6.8125,-6.8044,-6.8253,-6.9268,0.0,0.0,0.0,0.0,0.0,0.0,0.0,0.0,0.0,0.0,0.0,0.0,0.0,0.0,0.0,0.0,0.0,0.0,0.0,0.0,0.0,0.0,0.0,0.0,0.0,0.0,0.0,0.0,0.0,0.0,0.0,0.0,0.0,0.0,0.0,0.0,0.0,0.0,0.0,0.0,0.0,0.0,0.0,0.0,0.0,0.0,0.0,0.0,0.0,0.0,0.0,0.0,0.0,-6.8139,-6.7906,-6.6321,-6.5479,-6.5459,-6.6269,-6.711,-6.7959,-6.8754,-6.9999,0.0,0.0,0.0,0.0,0.0,0.0,0.0,0.0,0.0,0.0,0.0,0.0,0.0,0.0,0.0,0.0,0.0,0.0,0.0,0.0,0.0,0.0,0.0,0.0,0.0,0.0,0.0,0.0,-7.0366,-6.9909,-6.97,0.0,0.0,0.0,0.0,0.0,0.0,0.0,0.0,0.0,0.0,-6.9451,-6.8738,-6.7025,0.0,0.0,-6.6565,-6.7208,-6.7716,-6.7696,-6.7958,-6.901,-6.9138,0.0,0.0,0.0,0.0,0.0,0.0,0.0,0.0,0.0,0.0,0.0,0.0,0.0,0.0,0.0,0.0,0.0,0.0,0.0,0.0,0.0,0.0,0.0,0.0,0.0,0.0,0.0,0.0,0.0,0.0,0.0,0.0,0.0,0.0,0.0,0.0,0.0,0.0,0.0,0.0,0.0,0.0,0.0,0.0,0.0,0.0,0.0,0.0,0.0,0.0,0.0,0.0,-6.8089,-6.7897,-6.6315,-6.5535,-6.5727,-6.6589,-6.7391,-6.8161,-6.9039,-7.0052,0.0,0.0,0.0,0.0,0.0,0.0,0.0,0.0,0.0,0.0,0.0,0.0,0.0,0.0,0.0,0.0,0.0,0.0,0.0,0.0,0.0,0.0,0.0,0.0,0.0,0.0,0.0,0.0,-6.9796,-6.928,-6.9235,0.0,0.0,0.0,0.0,0.0,0.0,0.0,0.0,0.0,0.0,-6.8487,-6.7959,-6.655,-6.5724,-6.6254,-6.6739,-6.7232,-6.7576,-6.7701,-6.7976,-6.8548,0.0,0.0,0.0,0.0,0.0,0.0,0.0,0.0,0.0,0.0,0.0,0.0,0.0,0.0,0.0,0.0,0.0,0.0,0.0,0.0,0.0,0.0,0.0,0.0,0.0,0.0,0.0,0.0,0.0,0.0,-7.6691,0.0,0.0,0.0,0.0,0.0,0.0,0.0,0.0,0.0,0.0,0.0,0.0,0.0,0.0,0.0,0.0,0.0,0.0,0.0,0.0,0.0,0.0,-6.8028,-6.7859,-6.6254,-6.5749,-6.6472,-6.7333,-6.81,-6.887,-6.9708,-7.0238,-7.0345,0.0,0.0,0.0,0.0,0.0,0.0,0.0,0.0,0.0,0.0,0.0,0.0,0.0,0.0,0.0,0.0,0.0,0.0,0.0,0.0,0.0,0.0,0.0,0.0,0.0,0.0,-7.0701,-6.9026,-6.8318,0.0,0.0,0.0,0.0,0.0,0.0,0.0,0.0,0.0,0.0,-6.8323,-6.693,-6.7509,-6.6866,-6.6292,-6.61,-6.751,-6.8315,-6.7415,-6.7948,-6.8246,0.0,0.0,0.0,0.0,0.0,0.0,0.0,0.0,0.0,0.0,0.0,0.0,0.0,0.0,0.0,0.0,0.0,0.0,0.0,0.0,0.0,0.0,0.0,0.0,0.0,0.0,0.0,-7.576,-7.5681,0.0,0.0,0.0,0.0,0.0,0.0,0.0,0.0,0.0,0.0,0.0,-7.0445,-7.035,0.0,0.0,0.0,0.0,0.0,0.0,0.0,0.0,0.0,0.0,0.0,0.0,-6.7928,-6.7821,-6.6208,-6.5687,-6.6494,-6.7321,-6.8126,-6.8891,-6.9766,-7.0203,-7.022,0.0,0.0,0.0,0.0,0.0,0.0,0.0,0.0,0.0,0.0,0.0,0.0,0.0,0.0,0.0,0.0,0.0,0.0,0.0,0.0,0.0,0.0,0.0,0.0,0.0,-7.0809,0.0,0.0,0.0,0.0,0.0,0.0,0.0,0.0,0.0,0.0,0.0,-6.9027,-6.7703,-6.7792,-6.7612,-6.656,-6.631,-6.5938,0.0,0.0,0.0,0.0,0.0,0.0,0.0,0.0,0.0,0.0,0.0,0.0,0.0,0.0,-6.6182,-6.6879,-6.6418,-6.584,-6.5606,0.0,0.0,0.0,0.0,0.0,0.0,0.0,0.0,0.0,0.0,0.0,0.0,0.0,0.0,-7.4255,0.0,-7.4147,0.0,0.0,0.0,0.0,0.0,0.0,0.0,0.0,-7.0654,-6.9525,-6.8677,-6.8636,-6.8636,0.0,-6.9404,-7.0377,0.0,0.0,0.0,0.0,0.0,0.0,0.0,0.0,-6.7897,-6.7773,-6.616,-6.5792,-6.6831,-6.7351,-6.8136,-6.9221,-6.9809,-7.0132,-7.0132,-7.093,-7.1367,0.0,0.0,0.0,0.0,0.0,0.0,0.0,0.0,0.0,0.0,0.0,0.0,0.0,0.0,0.0,0.0,0.0,0.0,0.0,0.0,0.0,0.0,0.0,-6.9379,0.0,0.0,0.0,0.0,0.0,0.0,0.0,0.0,0.0,-6.8118,-6.8213,-6.7705,-6.6118,-6.6922,-6.7269,-6.6383,0.0,0.0,0.0,0.0,0.0,0.0,0.0,-6.7391,-6.7444,-6.7161,-6.6691,-6.6049,-6.5602,-6.5327,-6.5249,0.0,0.0,-6.5667,-6.5304,-6.4694,-6.4452,-6.431,-6.4087,-6.3653,-6.35,-6.3046,0.0,0.0,0.0,0.0,0.0,0.0,0.0,0.0,-7.1833,-7.2308,0.0,-7.2153,0.0,0.0,0.0,0.0,0.0,-7.1774,0.0,0.0,-6.7231,-6.6359,-6.7038,-6.6998,-6.6971,-6.6995,-6.762,-6.7944,-6.8059,-6.9666,0.0,0.0,0.0,0.0,0.0,0.0,-6.7865,-6.7709,-6.6129,-6.5993,-6.7438,-6.7496,-6.824,-6.9797,-6.9948,-7.0003,-7.0041,-7.0801,-7.1293,-7.1423,-7.287,0.0,0.0,0.0,0.0,0.0,0.0,0.0,0.0,0.0,0.0,0.0,0.0,0.0,0.0,0.0,0.0,0.0,0.0,0.0,0.0,-6.8721,0.0,0.0,0.0,0.0,0.0,0.0,0.0,0.0,0.0,0.0,-6.6925,-6.6925,-6.6679,-6.5951,0.0,0.0,0.0,0.0,-6.6359,-6.8061,-6.8309,-6.8173,-6.8099,-6.7494,-6.6716,-6.5704,0.0,0.0,-6.4152,-6.461,-6.4945,-6.4981,-6.4154,-6.3782,-6.4548,-6.4475,-6.4307,-6.4251,-6.3986,-6.3631,-6.307,-6.2709,-6.2283,-7.0479,0.0,0.0,0.0,0.0,-7.2081,-7.149,-7.0722,-7.0451,-7.0572,-7.0925,-7.0486,0.0,0.0,0.0,0.0,0.0,0.0,-7.006,-6.8715,-6.7892,-6.702,-6.6008,-6.6019,-6.6019,-6.6005,-6.6193,-6.6294,-6.6332,-6.6806,-6.7759,-6.9228,0.0,0.0,0.0,0.0,-6.756,-6.6869,-6.5775,-6.5943,-6.7496,-6.7425,-6.8223,-6.9854,-6.9929,-6.9929,-6.9948,-7.0232,-7.063,-7.1162,-7.1731,0.0,0.0,0.0,0.0,0.0,0.0,0.0,0.0,0.0,0.0,0.0,0.0,0.0,0.0,0.0,0.0,0.0,0.0,0.0,-7.027,-6.8661,-6.8203,0.0,0.0,0.0,0.0,0.0,0.0,0.0,0.0,0.0,-6.6362,-6.7074,-6.738,0.0,0.0,-6.7351,-6.7598,-6.7047,-6.6519,-6.6383,-6.647,0.0,0.0,-6.5915,-6.6087,-6.5593,-6.4655,-6.3914,-6.3899,-6.3503,-6.3179,-6.3179,-6.2891,-6.2675,-6.2857,-6.2956,-6.2912,-6.2749,-6.2602,-6.2426,-6.2104,-6.1918,-6.1702,-6.7692,-6.8432,-7.0332,-7.0961,-7.0602,-7.0254,-6.9663,-6.8841,-6.8521,-6.8716,-6.9232,-6.8602,-6.9258,-7.0898,-7.0898,0.0,0.0,0.0,-6.8891,-6.7212,-6.7208,-6.6605,-6.5632,-6.5608,-6.5608,-6.5594,-6.5566,-6.5566,-6.5552,-6.5868,-6.6766,-6.8165,0.0,0.0,-6.8661,-6.7821,-6.7124,-6.6478,-6.5955,-6.6235,-6.7443,-6.8071,-6.8868,-6.9816,-6.9891,-6.9891,-6.9891,-6.9948,-7.0175,-7.0631,-7.1048,-7.1674,0.0,0.0,0.0,0.0,0.0,0.0,0.0,0.0,0.0,0.0,0.0,-7.3517,-7.3838,0.0,0.0,0.0,-7.1147,-7.0188,-6.8893,-6.8055,0.0,0.0,0.0,0.0,0.0,0.0,0.0,-6.7898,-6.7697,-6.7276,-6.6506,-6.7295,-6.7646,-6.6743,-6.7306,-6.7736,-6.7458,0.0,-6.622,-6.6061,-6.6161,-6.6001,-6.5372,-6.5509,-6.5435,-6.4497,-6.3768,-6.3309,-6.3231,-6.2725,-6.2354,-6.2291,-6.2222,-6.2141,-6.2141,-6.2195,-6.2222,-6.206,-6.2005,-6.195,-6.1784,-6.1764,-6.1612,-6.5608,-6.5876,-6.91,-7.0079,-6.94,-6.8629,-6.7858,-6.7108,-6.6325,-6.683,-6.8129,-6.6649,-6.7653,-7.0475,-7.0514,0.0,-6.8073,-6.8098,-6.7173,-6.5594,-6.558,-6.558,-6.558,-6.558,-6.558,-6.558,-6.5523,-6.5494,-6.5518,-6.6208,-6.6621,-6.6713,-6.6736,-6.7156,-6.7821,-6.7155,-6.6695,-6.6493,-6.6476,-6.6809,-6.7504,-6.9058,-6.9891,-6.9891,-6.9891,-6.9891,-6.9891,-6.9891,-6.9929,-7.0004,-7.0612,-7.1067,-7.1314,0.0,0.0,0.0,0.0,0.0,0.0,0.0,0.0,0.0,0.0,0.0,0.0,0.0,0.0,0.0,-7.0261,0.0,-6.7042,-6.7262,0.0,0.0,0.0,-6.9211,-6.863,-6.9051,-6.8765,-6.7136,0.0,0.0,-6.6863,-6.7451,-6.7579,-6.6639,-6.7163,-6.74,-6.6795,-6.5956,-6.5698,-6.6665,-6.6688,-6.6537,-6.618,-6.5727,-6.4768,-6.3119,-6.264,-6.2672,-6.2506,-6.2301,-6.2222,-6.2158,-6.2087,-6.2041,-6.2041,-6.2005,-6.2041,-6.2005,-6.2041,-6.1978,-6.1978,-6.1978,-6.1978,-6.5608,-6.5685,-6.6518,-6.6737,-6.6598,-6.6367,-6.6189,-6.5972,-6.578,-6.592,-6.6266,-6.5987,-6.6295,-6.709,-6.7038,-6.6806,-6.6408,-6.6221,-6.5973,-6.5523,-6.5465,-6.5435,-6.5474,-6.5435,-6.5435,-6.5474,-6.5444,-6.5405,-6.5444,-6.5543,-6.6001,-6.6659,-6.6589,-6.6978,-6.7785,-6.7632,-6.7436,-6.7227,-6.7227,-6.7574,-6.83,-6.9361,-6.9891,-6.9891,-6.9777,-6.9738,-6.9738,-6.9738,-6.9758,-6.9777,-6.9947,-7.0364,-7.1105,-7.1913,0.0,0.0,0.0,0.0,0.0,0.0,0.0,0.0,0.0,-7.3011,-7.2889,0.0,-7.2537,0.0,-7.0698,-6.9691,-6.8715,-6.8444,0.0,0.0,-6.889,-6.8778,-6.9186,-6.8852,-6.8086,-6.6849,-6.7336,-6.731,-6.5937,-6.6942,-6.7594,-6.6897,-6.696,-6.7008,-6.671,-6.5996,-6.5687,-6.636,-6.6103,-6.5426,-6.4949,-6.4581,-6.4053,-6.2812,-6.3038,-6.3089,-6.2374,-6.2141,-6.2033,-6.2033,-6.2033,-6.2041,-6.2041,-6.2041,-6.2041,-6.2041,-6.2041,-6.2041,-6.2041,-6.2041,-6.2041,-6.5523,-6.5552,-6.5523,-6.5509,-6.5509,-6.5566,-6.5608,-6.5608,-6.5608,-6.5608,-6.5608,-6.5688,-6.5728,-6.5768,-6.5728,-6.5688,-6.566,-6.5576,-6.5479,-6.5435,-6.5405,-6.5413,-6.5413,-6.5413,-6.5413,-6.5413,-6.5413,-6.5605,-6.5948,-6.5559,-6.5826,-6.6674,-6.6246,-6.6564,-6.7664,-6.7769,-6.7752,-6.7656,-6.7911,-6.8448,-6.919,-6.9664,-6.9891,-6.9891,-6.9795,-6.9699,-6.9699,-6.9659,-6.9828,-7.0169,-7.0186,-7.0567,-7.1459,-7.223,-7.2906,0.0,0.0,0.0,0.0,0.0,0.0,0.0,0.0,0.0,0.0,0.0,-7.2019,-7.1073,-7.0301,-6.9648,-6.9125,-6.8869,-6.8917,-6.9402,-6.891,-6.8764,-6.9186,-6.879,-6.8098,-6.7136,-6.7308,-6.7183,-6.6384,-6.6962,-6.7393,-6.7136,-6.7062,-6.7013,-6.6801,-6.6381,-6.6282,-6.6611,-6.629,-6.586,-6.5294,-6.4912,-6.4442,-6.3873,-6.4014,-6.3945,-6.301,-6.2757,-6.2631,-6.2277,-6.2141,-6.2087,-6.2087,-6.2359,-6.2512,-6.2549,-6.2549,-6.2404,-6.2078,-6.2041,-6.2041,-6.542,-6.5479,-6.5444,-6.5413,-6.539,-6.5523,-6.5566,-6.5566,-6.5566,-6.558,-6.558,-6.558,-6.5594,-6.5594,-6.5594,-6.5552,-6.5494,-6.5494,-6.545,-6.5413,-6.5413,-6.5413,-6.5413,-6.5528,-6.5566,-6.5566,-6.5643,-6.6101,-6.6827,-6.6086,-6.6086,-6.6789,-6.62,-6.6504,-6.7745,-6.8084,-6.8193,-6.8079,-6.8631,-6.9302,-7.0005,-7.0043,-7.0043,-7.0062,-7.0022,-6.9964,-6.9848,-6.9902,-7.0218,-7.0914,-7.0952,-7.1237,-7.1862,-7.2755,-7.3208,0.0,-7.3765,0.0,0.0,0.0,0.0,0.0,0.0,0.0,0.0,-7.168,-7.1291,-7.0398,-6.9678,-6.9206,-6.8929,-6.8884,-6.8921,-6.8944,-6.8884,-6.8921,-6.8921,-6.8805,-6.8376,-6.7556,-6.728,-6.7184,-6.707,-6.7134,-6.7221,-6.7341,-6.7489,-6.7492,-6.7247,-6.7,-6.6913,-6.7024,-6.6962,-6.6701,-6.6526,-6.5956,-6.5385,-6.5144,-6.4981,-6.4772,-6.3736,-6.3454,-6.3235,-6.2698,-6.251,-6.2466,-6.2503,-6.3039,-6.3392,-6.3401,-6.3401,-6.312,-6.244,-6.2223,-6.2123,-6.5375,-6.5444,-6.5413,-6.5413,-6.5413,-6.5444,-6.542,-6.5459,-6.542,-6.5488,-6.5523,-6.5523,-6.5552,-6.5594,-6.5537,-6.5509,-6.5494,-6.5435,-6.539,-6.5413,-6.5413,-6.5413,-6.5452,-6.6101,-6.6445,-6.6522,-6.7095,-6.7515,-6.7668,-6.7452,-6.7452,-6.7668,-6.8139,-6.8581,-6.8919,0.0,0.0,0.0,-6.9682,-7.0062,-7.0801,-7.0896,-7.0838,-7.0798,-7.1421,0.0,-7.0512,-7.1241,-7.1694,-7.1713,-7.1739,0.0,0.0,0.0,0.0,0.0,0.0,0.0,0.0,0.0,0.0,0.0,-7.1809,-7.1584,-7.0706,-7.0503,-7.0419,-7.0315,-7.006,-6.9708,-6.9191,-6.8975,-6.8952,-6.9131,-6.8998,-6.8921,-6.8921,-6.8805,-6.8352,-6.7476,-6.7388,-6.7175,-6.6677,-6.6951,-6.7482,-6.7612,-6.8087,-6.8413,-6.8497,-6.7677,-6.7309,-6.7751,-6.7356,-6.69,-6.671,-6.6574,-6.6114,-6.5417,-6.5118,-6.4772,-6.3909,-6.3126,-6.298,-6.3235,-6.3355,-6.3537,-6.412,-6.4421,-6.4439,-6.4366,-6.4338,-6.4056,-6.3156,-6.2947,-6.2983,-6.5444,0.0,-6.539,-6.5413,0.0,-6.5413,-6.5413,-6.5413,-6.5413,-6.5444,-6.5435,-6.5435,-6.5465,-6.5494,-6.545,-6.5435,-6.5435,-6.539,-6.5413,-6.5413,-6.5834,-6.6025,-6.6063,-6.6904,-6.7286,-6.7324,-6.7706,-6.8126,-6.8508,-6.8095,-6.8095,-6.8547,-6.8553,-6.8711,-6.9131,-6.9849,-7.0164,-7.0114,-6.9984,-7.0138,-7.0498,-7.0498,-7.0517,-7.0478,0.0,0.0,0.0,0.0,0.0,0.0,0.0,0.0,0.0,0.0,0.0,-7.1501,-7.1761,-7.1735,-7.1293,-7.1228,-7.0997,-7.0517,-7.048,-7.0458,-7.0391,-6.9949,-6.9702,-6.9769,-6.9687,-6.9537,-6.9235,-6.9109,-6.9065,-6.9094,-6.902,-6.8929,-6.8884,-6.8852,-6.8619,-6.8213,-6.8148,-6.8008,-6.7597,-6.7896,-6.8194,-6.8263,-6.8553,-6.8828,-6.8838,-6.8385,-6.8145,-6.8358,-6.7988,-6.7555,-6.7516,-6.7428,-6.7215,-6.6628,-6.6502,-6.6056,-6.5191,-6.4689,-6.4469,-6.4469,-6.438,-6.451,-6.4838,-6.5177,-6.5387,-6.5304,-6.5304,-6.5168,-6.4648,-6.4182,-6.378,-6.5435,-6.5465,-6.542,-6.539,-6.5413,-6.5566,-6.5643,-6.5605,0.0,0.0,0.0,-6.5413,-6.5413,-6.5413,-6.5413,-6.5413,-6.5413,-6.5566,-6.5643,-6.5681,-6.6522,-6.6942,-6.6942,-6.7744,-6.8126,-6.8126,-6.8279,-6.8699,-6.9349,-6.8699,-6.8623,-6.9082,-6.8623,-6.8667,-6.9234,-6.9804,-7.0093,-7.0185,-7.0039,-7.0023,-7.01,-7.0119,-7.0119,-7.01,-7.0155,-7.0037,-6.9783,-6.9855,-7.0164,-7.069,-7.0727,-7.0975,-7.1478,-7.1626,-7.1638,-7.1508,-7.153,-7.1249,-7.0612,-7.0428,-7.0041,-6.9428,-6.9246,-6.9579,-7.0442,-6.9691,-6.9181,-6.9181,-6.9181,-6.9181,-6.9181,-6.9181,-6.916,-6.905,-6.9027,-6.896,-6.8929,-6.8921,-6.8898,-6.8921,-6.8846,-6.8907,-6.8832,-6.8832,-6.8907,-6.8929,-6.8892,-6.8907,-6.8929,-6.8846,-6.8777,-6.8697,-6.848,-6.8371,-6.8321,-6.821,-6.8132,-6.7856,-6.7731,-6.7421,-6.6775,-6.6455,-6.6098,-6.5569,-6.5443,-6.5464,-6.5584,-6.6043,-6.6299,-6.6281,-6.6281,-6.6253,-6.6153,-6.5521,-6.4908,-6.545,-6.5405,-6.5465,-6.5435,-6.5452,-6.6216,-6.6522,-6.6445,-6.5719,-6.5413,-6.5413,-6.5413,-6.5413,-6.5413,-6.5413,-6.5413,-6.5452,-6.6178,-6.6522,0.0,-6.7362,-6.7744,-6.7782,-6.8623,-6.9005,-6.9043,-6.9731,-7.0113,-7.0228,-7.0113,-6.9769,-6.9349,-6.9769,-7.0097,-7.0195,-7.0264,-7.0255,-7.0185,-7.0004,-7.0252,-7.0915,-7.0915,-7.0914,-7.0873,-7.1596,-7.1514,-7.0508,-7.1295,-7.1706,-7.1554,-7.1642,-7.1422,-7.082,-7.0889,-7.0692,-7.0075,-7.0116,-6.9982,-6.9662,-6.9645,-6.9566,-6.9284,-6.9241,-6.9579,-7.0367,-6.9729,-6.9181,-6.9181,-6.9181,-6.9181,-6.9181,-6.9181,-6.9181,-6.916,-6.9072,-6.9005,-6.8983,-6.8952,-6.8921,-6.8944,-6.8952,-6.8983,-6.8983,-6.8983,-6.9027,-6.9094,-6.9065,-6.9027,-6.9072,-6.8998,-6.8921,-6.8898,-6.8852,-6.8768,-6.865,-6.8554,-6.8395,-6.8247,-6.7628,-6.7158,-6.6857,-6.6353,-6.6081,-6.6282,-6.6397,-6.6654,-6.7126,-6.7473,-6.743,-6.7231,-6.7213,-6.7158,-6.7011,-6.6781,-6.6498,-6.5537,-6.5571,-6.5992,-6.6207,-6.6238,-6.7034,-6.7095,-6.6674,-6.6338,-6.6162,-6.6139,-6.6207,-6.6207,-6.6162,-6.6162,-6.5879,-6.5413,-6.5834,-6.6025,-6.6063,-6.6865,-6.7477,-6.7973,-6.8814,-6.9425,-6.9846,-7.0228,-7.0402,-7.0402,-7.0402,-7.0228,-6.9884,-7.0228,-7.0402,-7.0402,-7.0319,-7.0307,-7.0255,-7.0077,-7.0138,-7.0422,-7.046,-7.0441,-7.0402,-7.082,-7.0761,-7.0125,-7.0546,-7.0732,-7.0562,-7.0604,-7.0495,-7.0081,-7.0122,-6.9974,-6.9657,-6.9697,-6.9637,-6.9432,-6.9374,-6.9536,-6.9842,-6.9444,-6.9579,-7.0442,-6.9669,-6.9181,-6.9181,-6.9181,-6.9181,-6.9181,-6.9181,-6.9181,-6.9181,-6.9138,-6.9116,-6.9094,-6.9072,-6.9065,-6.9065,-6.9109,-6.9116,-6.9116,-6.9116,-6.9116,-6.9181,-6.9138,-6.9138,-6.9181,-6.9131,-6.9042,-6.8975,-6.8929,-6.8898,-6.8814,-6.8768,-6.8674,-6.8554,-6.8171,-6.7851,-6.7691,-6.7247,-6.7183,-6.7391,-6.7439,-6.7561,-6.7889,-6.7863,-6.7847,-6.7767,-6.7633,-6.7579,-6.7497,-6.746,-6.7259,-6.6044,-6.6246,-6.6869,-6.7223,-6.7423,-6.799,-6.7883,-6.7347,-6.7385,-6.7429,-6.7391,-6.7089,-6.696,-6.7093,-6.7093,-6.6719,-6.6124,-6.6238,-6.6315,-6.6391,-6.7164,-6.7928,-6.854,-6.9174,-6.9807,-7.0326,-7.0402,-7.0402,-7.0402,-7.0402,-7.0402,-7.0402,-7.0402,-7.0402,-7.0402,-7.0353,-7.0302,-7.0307,-7.0147,-7.0041,-6.9929,-6.991,-6.9891,-6.9891,-6.9891,-6.9853,-6.9719,-6.9888,-6.9962,-6.9899,-7.0029,-7.0088,-6.9899,-7.007,-7.0108,-6.9957,-6.9919,-6.9765,-6.9432,-6.9456,-6.9691,-7.0142,-6.9616,-6.9482,-7.0067,-6.9616,-6.9181,-6.9181,-6.9181,-6.9181,-6.9181,-6.9181,-6.9181,-6.9181,-6.9181,-6.9181,-6.9181,-6.9181,-6.9181,-6.9181,-6.9181,-6.9181,-6.9181,-6.9181,-6.9181,-6.9181,-6.9181,-6.9181,-6.9181,-6.9181,-6.9175,-6.9297,-6.917,-6.9012,-6.8952,-6.8929,-6.8884,-6.8754,-6.873,-6.8599,-6.8504,-6.8444,-6.8346,-6.826,-6.8222,-6.8109,-6.8095,-6.8081,-6.8004,-6.7952,-6.7899,-6.781,-6.7794,-6.7714,-6.7633,-6.7289,-6.7937,-6.8056,-6.8541,-6.9121,-6.9221,-6.9183,-6.9121,-6.9194,-6.9299,-6.9107,-6.763,-6.7372,-6.7985,-6.8062,-6.7971,-6.7894,-6.8699,-6.8914,-6.8991,-6.9873,-7.0263,-7.0171,-7.026,-7.0342,-7.0419,-7.0419,-7.0419,-7.0419,-7.0419,-7.0419,-7.0402,-7.0402,-7.0402,-7.0402,-7.0402,-7.0353,-7.0324,-7.0268,-7.0164,-7.0003,-6.9948,-6.9891,-6.9891,-6.9891,-6.9853,-6.9832,-7.0475,-7.0793,-7.0767,-7.1446,-7.1484,-7.088,-7.1491,-7.1607,-7.0947,-7.0871,-7.0451,-6.9545,-7.0019,-7.0104,-6.9407,-6.9353,-6.9257,-6.9369,-6.9257,-6.9181,-6.9181,-6.9181,-6.9181,-6.9181,-6.9181,-6.9181,-6.9181,-6.9181,-6.9181,-6.9181,-6.9181,-6.9181,-6.9181,-6.9181,-6.9181,-6.9181,-6.9181,-6.9181,-6.9181,-6.9181,-6.9181,-6.9181,-6.9316,-6.9579,-6.997,-6.9723,-6.931,-6.925,-6.905,-6.908,-6.8998,-6.8929,-6.8875,-6.8842,-6.8809,-6.8626,-6.8729,-6.8507,-6.8519,-6.8247,-6.8183,-6.8234,-6.8146,-6.8146,-6.8171,-6.8044,-6.7863,-6.7714,-6.7985,-6.8356,-6.8828,-6.9438,-7.0147,-7.0171,-6.9864,-6.9404,-6.9476,-6.9519,-6.9519,-6.8842,-6.8751,-6.9016,-6.9016,-6.8733,-6.8268,-6.8522,-6.869,-6.8714,-6.9029,-6.9436,-6.9842,-6.985,-7.0065,-7.054,-7.0578,-7.0562,-7.0578,-7.0562,-7.0585,-7.0538,-7.0522,-7.0506,-7.0419,-7.0402,-7.0386,-7.0353,-7.0837,-7.1052,-7.0926,-7.0836,-7.099,-7.139,-7.1428,-7.1427,-7.1331,-7.1652,-7.1783,-7.1781,-7.2084,-7.2122,-7.1781,-7.2124,-7.2182,-7.1841,-7.1683,-7.1203,-7.0269,-7.0852,-7.084,-7.0079,-6.9976,-6.9954,-6.9954,-6.9504,-6.9181,-6.9181,-6.9181,-6.9181,-6.9181,-6.9181,-6.9181,-6.9181,-6.9181,-6.9181,-6.9181,-6.9181,-6.9181,-6.9181,-6.9181,-6.9181,-6.9181,-6.9181,-6.9181,-6.9181,-6.9181,-6.9203,-6.9241,-6.966,-7.0154,-7.0476,-7.0707,-7.0611,-7.0148,-6.991,-6.9701,-6.9303,-6.9109,-6.9102,-6.9619,-6.9663,-6.9631,-6.95,-6.9453,-6.9182,-6.8663,-6.853,-6.853,-6.8457,-6.8297,-6.8272,-6.8222,-6.8044,-6.8099,-6.8898,-6.9154,-6.969,-7.021,-7.0743,-7.0743,-7.0398,-6.986,-6.9879,-6.9893,-6.9984,-7.0025,-7.0025,-6.9984,-6.9931,-6.9557,-6.8977,-6.8939,-6.8939,-6.8939,-6.8925,-6.9256,-6.974,-6.9764,-7.0094,-7.0608,-7.0708,-7.0708,-7.0723,-7.0723,-7.0678,-7.0616,-7.0623,-7.0554,-7.0451,-7.0419,-7.0533,-7.0784,-7.1345,-7.1846,-7.221,-7.2233,-7.2278,-7.2491,-7.251,-7.2472,-7.2413,-7.264,-7.2696,-7.2734,-7.2924,-7.2962,-7.2772,-7.2962,-7.2999,-7.2732,-7.2515,-7.2012,-7.1199,-7.1557,-7.1529,-7.1008,-7.0906,-7.0862,-7.0705,-7.0255,-6.982,-6.9579,-6.9519,-6.9541,-6.9181,-6.9181,-6.9181,-6.9181,-6.9181,-6.9181,-6.9181,-6.9332,-6.9579,-6.9579,-6.9654,-6.9444,-6.9257,-6.9225,-6.9246,-6.9246,-6.9268,-6.9439,-6.9627,-7.0239,-7.0771,-7.1223,-7.2025,-7.1928,-7.1137,-7.0884,-7.0486,-6.9976,-6.9729,-7.0157,-7.0555,-7.0503,-7.0661,-7.0485,-7.0485,-7.0364,-6.991,-6.9626,-6.9276,-6.9103,-6.8812,-6.8518,-6.8431,-6.8408,-6.8675,-7.009,-7.0706,-7.0821,-7.0808,-7.0885,-7.0885,-7.0885,-7.0717,-7.0769,-7.0808,-7.0769,-7.0783,-7.0821,-7.0769,-7.0769,-7.0769,-7.0731,-7.0654,-7.0602,-7.0602,-7.0584,-7.0671,-7.071,-7.0676,-7.0646,-7.0699,-7.0737,-7.0737,-7.0723,-7.0723,-7.0708,-7.0708,-7.067,-7.0623,-7.063,-7.0604,-7.0839,-7.1603,-7.1794,-7.2465,-7.3802,-7.3993,-7.3547,-7.2794,-7.2548,-7.2585,-7.2564,-7.3189,-7.3548,-7.3568,-7.425,-7.4364,-7.3737,-7.4288,-7.4323,-7.3539,-7.3405,-7.3002,-7.2126,-7.2084,-7.2003,-7.1864,-7.1842,-7.1777,-7.1666,-7.1478,-7.1103,-7.0517,-7.0464,-7.0164,-6.9525,-6.9316,-6.9219,-6.9294,-6.9257,-6.9257,-6.9294,-7.0067,-7.0405,-7.0464,-7.0464,-7.0223,-6.9466,-6.9289,-6.9541,-6.9621,-6.9608,-6.9896,-7.0554,-7.0801,-7.1539,-7.2557,-7.3069,-7.2973,-7.2234,-7.1901,-7.146,-7.0912,-7.0824,-7.1306,-7.1118,-7.1021,-7.1291,-7.1508,-7.1485,-7.1378,-7.1247,-7.0999,-7.0635,-7.0163,-6.9323,-6.8968,-6.8768,-6.9199,-6.9471,-7.0735,-7.0965,-7.0965,-7.0939,-7.0898,-7.0898,-7.0898,-7.0898,-7.0898,-7.0898,-7.0898,-7.0898,-7.0898,-7.0898,-7.0898,-7.0898,-7.0898,-7.0898,-7.0898,-7.0898,-7.0871,-7.0857,-7.0857,-7.0829,-7.0853,-7.0815,-7.0815,-7.0815,-7.0815,-7.0815,-7.0772,-7.0799,-7.1214,-7.1382,-7.1401,-7.1811,-7.2253,-7.2559,-7.3017,-7.3628,-7.4201,-7.4736,-7.4781,-7.4351,-7.4239,-7.4163,-7.4066,-7.4328,-7.444,-7.4419,-7.4743,-7.4781,-7.4516,-7.4705,-7.4475,-7.3691,-7.3972,-7.3649,-7.2511,-7.309,-7.3409,-7.2977,-7.2838,-7.2714,-7.2551,-7.2234,-7.1804,-7.1498,-7.1466,-7.1299,-7.0901,-6.9966,-6.9428,-6.9917,-7.0029,-7.0255,-7.0705,-7.1081,-7.1291,-7.1379,-7.1444,-7.1336,-7.1073,-7.1078,-7.1099,-7.112,-7.1141,-7.1295,-7.1635,-7.2092,-7.27,-7.3326,-7.3935,-7.4203,-7.4014,-7.3102,-7.2423,-7.1814,-7.162,-7.1929,-7.1944,-7.2094,-7.2387,-7.2402,-7.2379,-7.2229,-7.2024,-7.1649,-7.1395,-7.0796,-6.9933,-6.9588,-6.9012,-6.9775,-7.0165,-7.1068,-7.1082,-7.1352,-7.1236,-7.0977,-7.1273,-7.1183,-7.0977,-7.0952,-7.0965,-7.0965,-7.0965,-7.1119,-7.1364,-7.1389,-7.1568,-7.167,-7.122,-7.0898,-7.0898,-7.0898,-7.0898,-7.0898,-7.0898,-7.0898,-7.0898,-7.0898,-7.0898,-7.0898,-7.0898,-7.0843,-7.0796,-7.1573,-7.1904,-7.1909,-7.2625,-7.3127,-7.3454,-7.3934,-7.4316,-7.4622,-7.5157,-7.5483,-7.5374,-7.5264,-7.5152,-7.5017,-7.4975,-7.4915,-7.4895,-7.4895,-7.4895,-7.4895,-7.4895,-7.4626,-7.4072,-7.4165,-7.4014,-7.3295,-7.38,-7.4119,-7.3935,-7.3796,-7.3689,-7.3565,-7.3156,-7.2779,-7.2493,-7.2402,-7.2407,-7.1933,-7.0901,-7.0401,-7.089,-7.1003,-7.1228,-7.1755,-7.2056,-7.2213,-7.2337,-7.2402,-7.2369,-7.2163,-7.2109,-7.2033,-7.213,-7.2151,-7.2247,-7.2645,-7.3065,-7.3694,-7.3921,-7.4454,-7.474,-7.4606,-7.3985,-7.3285,-7.2676,-7.2582,-7.2816,-7.277,-7.3033,-7.3221,-7.3296,-7.3183,-7.2996,-7.2695,-7.232,-7.1832,-7.1306,-7.0939,-7.0608,-7.0511,-7.0629,-7.0989,-7.1183,-7.1337,-7.2044,-7.1878,-7.1364,-7.1878,-7.1801,-7.1172,-7.1107,-7.112,-7.1235,-7.1171,-7.1659,-7.2263,-7.2405,-7.2804,-7.3008,-7.1876,-7.1143,-7.1052,-7.1014,-7.0975,-7.0898,-7.1014,-7.1052,-7.1052,-7.0975,-7.0975,-7.1014,-7.1129,-7.1115,-7.1063,-7.1891,-7.2264,-7.1958,-7.2876,-7.3598,-7.4104,-7.4316,-7.466,-7.5348,-7.548,-7.5501,-7.5462,-7.5374,-7.5227,-7.5036,-7.4979,-7.4957,-7.4895,-7.4895,-7.4895,-7.4895,-7.4895,-7.4874,-7.4609,-7.4078,-7.4116,-7.4533,-7.4096,-7.4131,-7.443,-7.4653,-7.4535,-7.4353,-7.4315,-7.4013,-7.3447,-7.3296,-7.3069,-7.2486,-7.2201,-7.2067,-7.2105,-7.2062,-7.21,-7.2385,-7.2859,-7.3333,-7.3296,-7.3355,-7.2994,-7.2449,-7.2473,-7.2611,-7.2594,-7.2634,-7.2922,-7.347,-7.3717,-7.404,-7.4533,-7.4836,-7.4874,-7.4854,-7.4716,-7.4119,-7.3598,-7.3703,-7.3853,-7.3515,-7.353,-7.377,-7.3845,-7.3784,-7.3596,-7.3559,-7.3183,-7.2808,-7.2357,-7.2034,-7.1561,-7.1404,-7.1433,-7.2024,-7.2449,-7.2877,-7.2607,-7.2648,-7.2675,-7.1916,-7.1633,-7.1891,-7.1402,-7.1453,-7.1916,-7.1993,-7.2507,-7.3163,-7.3317,-7.3421,-7.3626,-7.3022,-7.2469,-7.1912,-7.1797,-7.1475,-7.1129,-7.1514,-7.1783,-7.1783,-7.1783,-7.1783,-7.1898,-7.236,-7.214,-7.1406,-7.2837,-7.3361,-7.2853,-7.4085,-7.4954,-7.5059,-7.508,-7.5233,-7.548,-7.5518,-7.5518,-7.5501,-7.5483,-7.5356,-7.5227,-7.5056,-7.4977,-7.4895,-7.4895,-7.4895,-7.4895,-7.4895,-7.4591,-7.4136,-7.4364,-7.425,-7.404,-7.4326,-7.4533,-7.4778,-7.4833,-7.4792,-7.467,-7.4712,-7.4636,-7.4292,-7.4334,-7.4262,-7.4072,-7.4035,-7.367,-7.2994,-7.2897,-7.3145,-7.356,-7.398,-7.4233,-7.4271,-7.4334,-7.4262,-7.4072,-7.4,-7.3886,-7.3924,-7.4003,-7.4174,-7.4402,-7.4382,-7.4516,-7.4857,-7.4895,-7.4895,-7.4874,-7.4833,-7.4485,-7.4136,-7.4249,-7.4282,-7.4034,-7.3936,-7.4177,-7.4243,-7.422,-7.4197,-7.4122,-7.3934,-7.3521,-7.3146,-7.2695,-7.226,-7.1922,-7.2199,-7.2805,-7.3358,-7.3787,-7.3593,-7.3519,-7.3664,-7.2556,-7.2402,-7.2776,-7.2016,-7.2143,-7.2839,-7.2966,-7.3418,-7.4074,-7.4229,-7.4371,-7.459,-7.4359,-7.3832,-7.3201,-7.2827,-7.2429,-7.1978,-7.2412,-7.2668,-7.2668,-7.2668,-7.2668,-7.2706,-7.3168,-7.2909,-7.2328,-7.3711,-7.429,-7.3789,-7.4922,-7.5599,-7.5535,-7.548,-7.5518,-7.5518,-7.5518,-7.5518,-7.5518,-7.5518,-7.5427,-7.532,-7.519,-7.5056,-7.4937,-7.4915,-7.4895,-7.4895,-7.4895,-7.4667,-7.4364,-7.4516,-7.4667,-7.4192,-7.4629,-7.4895,-7.4895,-7.4895,-7.4854,-7.4812,-7.4854,-7.4854,-7.4812,-7.4816,-7.4895,-7.4874,-7.4895,-7.4568,-7.3989,-7.3914,-7.4119,-7.4573,-7.4712,-7.4754,-7.4737,-7.4816,-7.4874,-7.4895,-7.4895,-7.4895,-7.4895,-7.4895,-7.4895,-7.4895,-7.4857,-7.4895,-7.4895,-7.4895,-7.4895,-7.4895,-7.4854,-7.4774,-7.4615,-7.453,-7.4476,-7.4296,-7.4259,-7.4387,-7.4335,-7.4289,-7.4243,-7.4183,-7.416,-7.3934,-7.3596,-7.3296,-7.3258,-7.3048,-7.3146,-7.355,-7.396,-7.4154,-7.4811,-7.4622,-7.4084,-7.381,-7.376,-7.3736,-7.2998,-7.3137,-7.3833,-7.3938,-7.4413,-7.5032,-7.5175,-7.5499,-7.6004,-7.5425,-7.504,-7.4732,-7.4282,-7.3794,-7.3599,-7.343,-7.3427,-7.3567,-7.3567,-7.3553,-7.3553,-7.3822,-7.3553,-7.3423,-7.4269,-7.4672,-7.4612,-7.5271,-7.5649,-7.5553,-7.5518,-7.5518,-7.5518,-7.5518,-7.5518,-7.5518,-7.5518,-7.5427,-7.5356,-7.5301,-7.5209,-7.5036,-7.4975,-7.4935,-7.4915,-7.4895,-7.4877,-7.4801,-7.4895,-7.4895,-7.4857,-7.4857,-7.4895,-7.4895,-7.4895,-7.4895,-7.4874,-7.4874,-7.4874,-7.4874,-7.4874,-7.4895,-7.4895,-7.4895,-7.4836,-7.4874,-7.4702,-7.4778,-7.4874,-7.4874,-7.4874,-7.4874,-7.4895,-7.4895,-7.4895,-7.4895,-7.4895,-7.4895,-7.4895,-7.4895,-7.4895,-7.4895,-7.4895,-7.4932,-7.5008,-7.5008,-7.5046,-7.5291,-7.5174,-7.4812,-7.4691,-7.4665,-7.4519,-7.4498,-7.4476,-7.4447,-7.438,-7.4312,-7.4266,-7.4243,-7.4197,-7.3972,-7.3972,-7.416,-7.4122,-7.3972,-7.3897,-7.4618,-7.5662,-7.5276,-7.5341,-7.5484,-7.4463,-7.4259,-7.4634,-7.391,-7.3999,-7.4657,-7.4773,-7.5237,-7.6011,-7.6011,-7.6192,-7.6258,-7.6103,-7.6026,-7.5975,-7.5809,-7.5207,-7.4539,-7.3961,-7.3998,-7.4368,-7.4469,-7.4417,-7.4437,-7.4938,-7.4668,-7.3591,-7.4938,-7.524,-7.4804,-7.5426,-7.5731,-7.5583,-7.5566,-7.5532,-7.5518,-7.5518,-7.5518,-7.5518,-7.5518,-7.5501,-7.5427,-7.5356,-7.5264,-7.5171,-7.5133,-7.5113,-7.5113,-7.5017,-7.4977,-7.4957,-7.4935,-7.4895,-7.4895,-7.4895,-7.4895,-7.4895,-7.4895,-7.4895,-7.4895,-7.4895,-7.4895,-7.4895,-7.4895,-7.4895,-7.4895,-7.4895,-7.4895,-7.4895,-7.4895,-7.4895,-7.4895,-7.4895,-7.4895,-7.4895,-7.4895,-7.4895,-7.4895,-7.4895,-7.4895,-7.4895,-7.4895,-7.4895,-7.4895,-7.4895,-7.4895,-7.5122,-7.5236,-7.5198,-7.5311,-7.5615,-7.5518,-7.4988,-7.4833,-7.4829,-7.4686,-7.4584,-7.4541,-7.4476,-7.4469,-7.4425,-7.4335,-7.4289,-7.4243,-7.4272,-7.4197,-7.4197,-7.4235,-7.4122,-7.4085,-7.5625,-7.6438,-7.5935,-7.6024,-7.6306,-7.5,-7.49,-7.5415,-7.4823,-7.4889,-7.5508,-7.5662,-7.5933,-7.6359,-7.6397,-7.6397,-7.6397,-7.6397,-7.6359,-7.6359,-7.632,-7.599,-7.5452,-7.4951,-7.4989,-7.5335,-7.5372,-7.5344,-7.5365,-7.5798,-7.5399,-7.4899,-7.5515,-7.5663,-7.5242,-7.5572,-7.5833,-7.5666,-7.5616,-7.5566,-7.5532,-7.5535,-7.5518,-7.5518,-7.5518,-7.5518,-7.5501,-7.5409,-7.5338,-7.5284,-7.5228,-7.5209,-7.519,-7.5114,-7.5056,-7.4979,-7.4957,-7.4935,-7.4895,-7.4895,-7.4895,-7.4895,-7.4895,-7.4895,-7.4895,-7.4895,-7.4895,-7.4895,-7.4895,-7.4895,-7.4895,-7.4895,-7.4895,-7.4895,-7.4895,-7.4895,-7.4895,-7.4895,-7.4915,-7.4935,-7.4915,-7.4915,-7.4935,-7.4915,-7.4895,-7.4895,-7.4895,-7.4895,-7.4895,-7.4932,-7.5029,-7.5352,-7.5673,-7.5787,-7.5976,-7.628,-7.6486,-7.5918,-7.5442,-7.5346,-7.5077,-7.4897,-7.4724,-7.4681,-7.4617,-7.4551,-7.4538,-7.4523,-7.4553,-7.4506,-7.4371,-7.4423,-7.4573,-7.4385,-7.4347,-7.6506,-7.6594,-7.6594,-7.6623,-7.6478,-7.5647,-7.5692,-7.6217,-7.5603,-7.5686,-7.6227,-7.6382,-7.6355,-7.6409,-7.6432,-7.6432,-7.6432,-7.6444,-7.6421,-7.6421,-7.6409,-7.6285,-7.6159,-7.6031,-7.6006,-7.6083,-7.6106,-7.6041,-7.5975,-7.6034,-7.6044,-7.5827,-7.5943,-7.6,-7.5802,-7.5887,-7.5864,-7.5747,-7.5682,-7.5633,-7.5599,-7.5549,-7.5535,-7.5535,-7.5518,-7.5518,-7.5518,-7.5501,-7.5465,-7.5338,-7.5284,-7.5265,-7.5247,-7.5228,-7.5152,-7.5151,-7.5208,-7.5225,-7.5125,-7.518,-7.5104,-7.5142,-7.5008,-7.4895,-7.4915,-7.4915,-7.4895,-7.4895,-7.4895,-7.4895,-7.4895,-7.4895,-7.4895,-7.4953,-7.4991,-7.5067,-7.4915,-7.4915,-7.4955,-7.5017,-7.4975,-7.4995,-7.4995,-7.5033,-7.5067,-7.5387,-7.5463,-7.5749,-7.5807,-7.5807,-7.581,-7.5774,-7.6134,-7.651,-7.6738,-7.7042,-7.7152,-7.7055,-7.6486,-7.6162,-7.5746,-7.5477,-7.5153,-7.4998,-7.5102,-7.5054,-7.4853,-7.4877,-7.496,-7.5018,-7.507,-7.5197,-7.5286,-7.4873,-7.4685,-7.6003,-7.669,-7.669,-7.6699,-7.666,-7.64,-7.6381,-7.6536,-7.633,-7.6278,-7.6488,-7.651,-7.651,-7.6477,-7.6549,-7.6542,-7.657,-7.6521,-7.656,-7.6466,-7.6421,-7.6397,-7.6386,-7.6362,-7.6326,-7.6288,-7.6263,-7.6225,-7.6185,-7.6145,-7.6145,-7.6145,-7.6131,-7.6118,-7.6048,-7.602,-7.6015,-7.5895,-7.5833,-7.5801,-7.566,-7.5616,-7.5566,-7.5566,-7.5553,-7.5518,-7.5518,-7.5518,-7.5501,-7.5483,-7.5448,-7.543,-7.5374,-7.532,-7.5303,-7.5418,-7.5818,-7.6045,-7.6004,-7.5964,-7.5964,-7.5888,-7.5297,-7.4935,-7.4977,-7.4935,-7.4895,-7.4895,-7.4895,-7.4895,-7.4895,-7.4895,-7.4935,-7.5071,-7.5471,-7.57,-7.5303,-7.5074,-7.5112,-7.5171,-7.5228,-7.5113,-7.5112,-7.5817,-7.5928,-7.5979,-7.63,-7.6797,-7.6797,-7.6703,-7.6592,-7.6462,-7.7085,-7.7462,-7.75,-7.7745,-7.791,-7.7851,-7.7396,-7.6903,-7.6486,-7.6335,-7.6104,-7.5893,-7.5717,-7.5631,-7.5544,-7.5472,-7.557,-7.5689,-7.5906,-7.607,-7.6047,-7.5535,-7.5235,-7.6298,-7.6746,-7.6746,-7.6762,-7.6762,-7.6687,-7.6651,-7.6642,-7.6594,-7.6583,-7.6542,-7.6602,-7.6591,-7.6531,-7.6602,-7.6612,-7.6612,-7.6612,-7.6602,-7.6521,-7.6477,-7.6444,-7.6432,-7.6409,-7.6386,-7.635,-7.6313,-7.6276,-7.625,-7.6212,-7.6185,-7.6198,-7.6237,-7.6145,-7.6104,-7.6181,-7.6072,-7.597,-7.591,-7.5864,-7.5779,-7.5715,-7.5666,-7.5666,-7.5616,-7.5583,-7.5532,-7.557,-7.5553,-7.5518,-7.5518,-7.5518,-7.5501,-7.5465,-7.5565,-7.5968,-7.6236,-7.6713,-7.6787,-7.6577,-7.6311,-7.6349,-7.553,-7.5169,-7.5017,-7.4957,-7.4935,-7.4895,-7.4895,-7.4895,-7.4955,-7.5015,-7.5036,-7.5132,-7.5493,-7.578,-7.5837,-7.5723,-7.5704,-7.5799,-7.5837,-7.6065,-7.637,-7.6732,-7.6864,-7.6936,-7.7032,-7.7432,-7.7356,-7.7242,-7.7318,-7.7452,-7.8172,-7.8511,-7.8377,-7.8466,-7.8668,-7.8495,-7.8078,-7.7586,-7.7131,-7.7169,-7.7207,-7.6937,-7.6613,-7.6571,-7.6485,-7.6413,-7.6474,-7.6881,-7.7099,-7.7142,-7.6945,-7.6531,-7.6305,-7.6825,-7.6837,-7.6837,-7.6851,-7.6897,-7.6801,-7.6721,-7.6713,-7.666,-7.6652,-7.6604,-7.6594,-7.6642,-7.6632,-7.6642,-7.6594,-7.6604,-7.6632,-7.6594,-7.6622,-7.657,-7.6527,-7.6477,-7.6444,-7.6525,-7.6552,-7.6389,-7.6326,-7.6301,-7.6302,-7.6418,-7.6431,-7.6469,-7.6546,-7.6415,-7.6489,-7.6563,-7.6399,-7.6494,-7.654,-7.6394,-7.6216,-7.5977,-7.5676,-7.5676,-7.5666,-7.5599,-7.5583,-7.5549,-7.5518,-7.5518,-7.5518,-7.5518,-7.5692,-7.5903,-7.6597,-7.6902,-7.736,-7.7437,-7.7055,-7.6656,-7.6446,-7.5666,-7.5323,-7.5285,-7.517,-7.5169,-7.5223,-7.5241,-7.5185,-7.5074,-7.5361,-7.5418,-7.5532,-7.5532,-7.6008,-7.6598,-7.6789,-7.696,-7.675,-7.6788,-7.6922,-7.7341,-7.7722,-7.7817,-7.7893,-7.7969,-7.8045,-7.8007,-7.8083,-7.8312,-7.8464,-7.9167,-7.9274,-7.9157,-7.8997,-7.9237,-7.9102,-7.8723,-7.8419,-7.804,-7.823,-7.8306,-7.7813,-7.7527,-7.7484,-7.7441,-7.7354,-7.759,-7.8097,-7.8194,-7.8125,-7.789,-7.7551,-7.7377,-7.6855,-7.6981,-7.6981,-7.6987,-7.6981,-7.6897,-7.6876,-7.6869,-7.6801,-7.6743,-7.666,-7.6699,-7.6671,-7.6701,-7.6681,-7.666,-7.6681,-7.6662,-7.6682,-7.6672,-7.6622,-7.6542,-7.651,-7.6643,-7.6842,-7.7106,-7.6927,-7.6618,-7.6529,-7.6374,-7.6852,-7.729,-7.7432,-7.7383,-7.7408,-7.7792,-7.7607,-7.7121,-7.7462,-7.7754,-7.7662,-7.7116,-7.6386,-7.5839,-7.5724,-7.5676,-7.5633,-7.5599,-7.5566,-7.548,-7.5518,-7.5556,-7.5841,-7.6282,-7.6647,-7.6935,-7.7719,-7.8102,-7.7932,-7.7627,-7.717,-7.6579,-7.5799,-7.5723,-7.5913,-7.5685,-7.5589,-7.5874,-7.5988,-7.5894,-7.5247,-7.5875,-7.6218,-7.6484,-7.6864,-7.7359,-7.7777,-7.812,-7.8331,-7.8006,-7.7891,-7.7873,-7.8312,-7.8675,-7.879,-7.8942,-7.9133,-7.9266,-7.9284,-7.9456,-7.9724,-7.9915,-8.0105,-8.0043,-7.9882,-7.9739,-7.973,-7.9692,-7.9464,-7.9443,-7.9253,-7.9481,-7.9367,-7.8912,-7.8533,-7.8398,-7.8355,-7.8312,-7.8343,-7.8602,-7.8837,-7.9047,-7.8722,-7.8458,-7.8534,-7.6936,-7.6999,-7.6999,-7.7005,-7.7017,-7.6987,-7.6936,-7.6923,-7.6901,-7.684,-7.676,-7.6696,-7.6708,-7.6699,-7.6708,-7.6687,-7.6678,-7.6708,-7.669,-7.6681,-7.6643,-7.6642,-7.6728,-7.7018,-7.7041,-7.7318,-7.745,-7.7709,-7.7686,-7.7287,-7.7597,-7.8177,-7.837,-7.8128,-7.7846,-7.8218,-7.815,-7.7742,-7.8083,-7.853,-7.8438,-7.7662,-7.6786,-7.6102,-7.5856,-7.5826,-7.5862,-7.6229,-7.635,-7.6399,-7.6727,-7.688,-7.7131,-7.7479,-7.7809,-7.7582,-7.7831,-7.8328,-7.8235,-7.7873,-7.6995,-7.669,-7.6139,-7.6159,-7.6369,-7.6217,-7.6141,-7.6313,-7.6522,-7.6541,-7.6579,-7.696,-7.7207,-7.7358,-7.772,-7.812,-7.8615,-7.9054,-7.913,-7.9054,-7.8883,-7.8941,-7.9361,-7.9648,-7.98,-8.0011,-8.0182,-8.0278,-8.0334,-8.0373,-8.045,-8.0411,-8.0354,-8.0255,-8.0096,-8.003,-7.9946,-7.9984,-7.9941,-7.9919,-7.9957,-7.9957,-8.0163,-8.0087,-7.9784,-7.9291,-7.9253,-7.921,-7.9188,-7.9128,-7.9311,-7.9494,-7.9426,-7.9403,-7.9366,-7.693,-7.6999,-7.7005,-7.6983,-7.6999,-7.6989,-7.6978,-7.6966,-7.6904,-7.6886,-7.6809,-7.6713,-7.6687,-7.6687,-7.6687,-7.6687,-7.6687,-7.6678,-7.6794,-7.7019,-7.7039,-7.7021,-7.7419,-7.7661,-7.7997,-7.8098,-7.8258,-7.8932,-7.8421,-7.8138,-7.8486,-7.8989,-7.9221,-7.8914,-7.8503,-7.8876,-7.837,-7.8146,-7.8397,-7.8776,-7.8569,-7.7938,-7.713,-7.6284,-7.6092,-7.6047,-7.6263,-7.667,-7.7099,-7.7358,-7.7763,-7.8223,-7.8377,-7.8846,-7.8891,-7.8306,-7.7582,-7.8061,-7.8137,-7.7678,-7.6782,-7.6667,-7.6685,-7.6822,-7.7206,-7.734,-7.7112,-7.6827,-7.7131,-7.7302,-7.7607,-7.8082,-7.8233,-7.8233,-7.831,-7.8557,-7.9245,-7.9665,-7.9856,-7.9818,-7.9742,-7.9818,-8.0029,-8.0143,-8.0163,-8.0163,-8.0392,-8.0392,-8.0431,-8.045,-8.0468,-8.0392,-8.0354,-8.0295,-8.0215,-8.0134,-8.0093,-8.0072,-7.9988,-7.9946,-8.0017,-8.0109,-8.0412,-8.0807,-8.0504,-8.0125,-8.0087,-7.9973,-7.9686,-7.9589,-7.9822,-7.9838,-7.9712,-7.9652,-7.9652,-7.693,-7.6999,-7.6989,-7.7004,-7.7009,-7.6985,-7.6995,-7.6985,-7.6942,-7.6904,-7.6876,-7.6777,-7.6687,-7.6726,-7.6764,-7.6726,-7.6764,-7.6959,-7.7308,-7.7766,-7.7882,-7.8165,-7.8719,-7.8942,-7.9213,-7.9238,-7.9194,-7.8545,-7.8471,-7.873,-7.926,-7.9879,-8.006,-7.988,-7.9572,-7.9765,-7.9455,-7.8847,-7.9341,-7.9706,-7.9454,-7.8784,-7.7977,-7.7169,-7.6553,-7.6408,-7.6886,-7.7255,-7.7492,-7.8141,-7.8278,-7.8355,-7.8338,-7.8377,-7.8807,-7.9006,-7.905,-7.8748,-7.829,-7.7449,-7.6876,-7.6914,-7.6876,-7.7564,-7.8233,-7.8615,-7.8406,-7.789,-7.8386,-7.8615,-7.8444,-7.8748,-7.9016,-7.913,-7.913,-7.9513,-8.0047,-8.0009,-8.0238,-8.0277,-8.0124,-8.02,-8.0391,-8.043,-8.0468,-8.0506,-8.0506,-8.0506,-8.0582,-8.0659,-8.0773,-8.0793,-8.0984,-8.0964,-8.0696,-8.054,-8.0309,-8.0289,-8.0262,-8.0178,-8.0385,-8.0607,-8.1019,-8.1224,-8.1035,-8.1073,-8.1148,-8.0883,-8.0201,-7.9898,-7.9898,-7.9898,-7.9898,-7.9876,-7.9854,-7.695,-7.6989,-7.6999,-7.7024,-7.7047,-7.7008,-7.7012,-7.7043,-7.6921,-7.6904,-7.6883,-7.6746,-7.6687,-7.6842,-7.7153,-7.7464,-7.7541,-7.7891,-7.8318,-7.8629,-7.8785,-7.897,-7.9271,-7.968,-8.0126,-7.9921,-8.02,-8.0207,-7.9637,-7.9528,-8.0111,-8.0769,-8.0872,-8.0601,-8.0332,-8.0602,-8.0267,-7.9968,-8.0155,-8.0313,-7.9884,-7.943,-7.8823,-7.8015,-7.7169,-7.7269,-7.7701,-7.7893,-7.8339,-7.906,-7.9521,-7.9905,-7.9851,-7.9873,-7.9961,-8.0136,-7.9668,-7.918,-7.8746,-7.7908,-7.7526,-7.7602,-7.7831,-7.8557,-7.9187,-7.9302,-7.9207,-7.8787,-7.9054,-7.9207,-7.936,-7.9742,-7.9895,-7.9971,-7.9856,-8.0047,-8.0353,-8.0391,-8.0468,-8.0506,-8.0506,-8.0582,-8.0582,-8.0506,-8.0506,-8.0506,-8.0582,-8.0697,-8.0888,-8.1117,-8.1232,-8.1347,-8.1614,-8.19,-8.1518,-8.1193,-8.081,-8.0712,-8.0912,-8.0866,-8.0997,-8.1258,-8.1723,-8.2042,-8.2058,-8.2134,-8.221,-8.1376,-8.0352,-8.0049,-7.9898,-8.0087,-8.0277,-7.9973,-7.9952,-7.716,-7.7336,-7.7336,-7.7359,-7.7465,-7.7571,-7.7578,-7.7422,-7.7601,-7.7469,-7.728,-7.7337,-7.7386,-7.7464,-7.8046,-7.8318,-7.8357,-7.9018,-7.9406,-7.9562,-7.9639,-7.9795,-8.0222,-8.064,-8.0592,-7.9855,-8.1038,-8.1163,-8.0877,-8.0733,-8.0933,-8.1528,-8.1387,-8.1143,-8.0833,-8.0718,-8.0525,-8.0099,-8.0481,-8.0579,-8.0319,-7.9991,-7.9514,-7.8844,-7.8214,-7.8006,-7.8699,-7.8823,-7.9231,-8.0038,-8.0577,-8.083,-8.083,-8.076,-8.0712,-8.0679,-8.0191,-7.9915,-7.9389,-7.8744,-7.8288,-7.8517,-7.9016,-7.9513,-7.9589,-7.9589,-7.9589,-7.9589,-7.9627,-7.9971,-8.0315,-8.043,-8.0391,-8.0391,-8.0391,-8.0468,-8.0506,-8.0506,-8.0506,-8.0506,-8.0582,-8.0773,-8.0735,-8.0582,-8.0544,-8.0544,-8.0659,-8.0812,-8.1194,-8.1538,-8.1805,-8.1958,-8.1958,-8.2283,-8.2302,-8.1881,-8.148,-8.1307,-8.1489,-8.1634,-8.1765,-8.2212,-8.2731,-8.2975,-8.3028,-8.2968,-8.293,-8.1641,-8.0542,-8.0845,-8.0997,-8.0807,-8.0694,-8.0352,-8.0049,-7.7578,-7.832,-7.832,-7.832,-7.8366,-7.9161,-7.9011,-7.838,-7.8954,-7.8747,-7.8254,-7.8684,-7.888,-7.9066,-7.9074,-7.923,-7.9212,-7.929,-7.9881,-8.0348,-8.0572,-8.0892,-8.1241,-8.1513,-8.1659,-8.1485,-8.1776,-8.1708,-8.1639,-8.1392,-8.1491,-8.16,-8.1553,-8.1477,-8.1182,-8.0821,-8.0641,-8.0332,-8.0511,-8.0792,-8.0751,-8.053,-8.0015,-7.9745,-7.9124,-7.8903,-7.9736,-7.9638,-7.9939,-8.0746,-8.0977,-8.1093,-8.1093,-8.1077,-8.0991,-8.0882,-8.0789,-8.0553,-8.0217,-7.9347,-7.8815,-7.9239,-7.9835,-8.0238,-8.02,-8.0353,-8.0391,-8.0277,-8.0162,-8.0277,-8.0468,-8.0506,-8.0506,-8.0506,-8.0506,-8.0506,-8.0506,-8.0506,-8.0506,-8.0506,-8.0697,-8.1003,-8.127,-8.1232,-8.1003,-8.1003,-8.085,-8.1003,-8.1729,-8.2149,-8.2416,-8.2531,-8.2302,-8.2493,-8.2913,-8.2703,-8.2511,-8.2416,-8.2469,-8.2579,-8.2631,-8.3134,-8.3724,-8.368,-8.3695,-8.3673,-8.3574,-8.2778,-8.2248,-8.2248,-8.2118,-8.1679,-8.1338,-8.1073,-8.058,-7.8107,-7.8497,-7.9551,-7.9668,-7.92,-7.9558,-7.9522,-7.9242,-7.9461,-7.94,-7.9033,-7.9267,-7.9359,-7.9506,-7.999,-8.012,-8.0201,-8.0759,-8.1062,-8.1286,-8.1472,-8.1627,-8.189,-8.1911,-8.1892,-8.1892,-8.1873,-8.1864,-8.1815,-8.1814,-8.1745,-8.1691,-8.1612,-8.1541,-8.1323,-8.1155,-8.0976,-8.0912,-8.0873,-8.1103,-8.1129,-8.1074,-8.0828,-8.0698,-7.9927,-7.9948,-8.0444,-8.0106,-8.0446,-8.0839,-8.1054,-8.1093,-8.1093,-8.1093,-8.1077,-8.1007,-8.0991,-8.0975,-8.0926,-8.0174,-7.9957,-7.9984,-8.0389,-8.0506,-8.0525,-8.0506,-8.0506,-8.0506,-8.0506,-8.0506,-8.0506,-8.0506,-8.0506,-8.0506,-8.0506,-8.0506,-8.0506,-8.0506,-8.0659,-8.0735,-8.1117,-8.1499,-8.1767,-8.1996,-8.1729,-8.1461,-8.1308,-8.1347,-8.2225,-8.2798,-8.3104,-8.3448,-8.3295,-8.3333,-8.3754,-8.3715,-8.3601,-8.3524,-8.3446,-8.3519,-8.359,-8.4068,-8.4528,-8.4484,-8.434,-8.4317,-8.4241,-8.4105,-8.3688,-8.3081,-8.2627,-8.2285,-8.1982,-8.1755,-8.1186,-7.8702,-7.9287,-8.0459,-8.0654,-8.0146,-8.0341,-8.0341,-8.014,-8.0341,-8.0313,-8.0259,-8.0224,-8.0186,-8.0372,-8.073,-8.1073,-8.1148,-8.1562,-8.1843,-8.1912,-8.1865,-8.1934,-8.1917,-8.1899,-8.1911,-8.1902,-8.1892,-8.1892,-8.1883,-8.1854,-8.1824,-8.1745,-8.1691,-8.16,-8.1541,-8.1504,-8.1542,-8.1478,-8.1453,-8.1427,-8.1414,-8.1349,-8.1322,-8.1283,-8.069,-8.0649,-8.0902,-8.0704,-8.0645,-8.0946,-8.1108,-8.1093,-8.1093,-8.1093,-8.1093,-8.1093,-8.1093,-8.1093,-8.1061,-8.0926,-8.0754,-8.0608,-8.054,-8.058,-8.0543,-8.0525,-8.0506,-8.0506,-8.0506,-8.0525,-8.0543,-8.0543,-8.0543,-8.0562,-8.0525,-8.0506,-8.0506,-8.0506,-8.0773,-8.1003,-8.1423,-8.1939,-8.2836,-8.3161,-8.3009,-8.2798,-8.276,-8.2875,-8.3448,-8.383,-8.383,-8.4212,-8.448,-8.4556,-8.4709,-8.4556,-8.448,-8.448,-8.442,-8.4457,-8.4622,-8.5007,-8.5028,-8.4794,-8.4727,-8.4871,-8.4749,-8.4522,-8.4029,-8.3498,-8.3271,-8.3233,-8.2816,-8.2551,-8.1793,-7.9405,-8.0888,-8.1005,-8.1005,-8.1044,-8.1864,-8.1708,-8.108,-8.1629,-8.1839,-8.1682,-8.171,-8.1727,-8.1727,-8.1742,-8.1727,-8.1758,-8.1921,-8.1999,-8.1991,-8.1983,-8.1967,-8.1943,-8.1917,-8.1929,-8.1902,-8.1892,-8.1892,-8.1892,-8.1883,-8.1854,-8.1853,-8.1879,-8.1763,-8.16,-8.1567,-8.1542,-8.153,-8.1491,-8.1607,-8.1478,-8.1466,-8.1466,-8.1414,-8.1259,-8.1233,-8.1449,-8.1186,-8.1128,-8.1338,-8.1193,-8.1124,-8.1093,-8.1108,-8.1108,-8.1093,-8.1093,-8.1093,-8.1077,-8.0959,-8.0893,-8.0792,-8.0705,-8.0614,-8.0596,-8.058,-8.0543,-8.058,-8.0543,-8.0542,-8.0542,-8.0542,-8.0542,-8.0542,-8.0543,-8.0677,-8.0677,-8.0849,-8.1155,-8.1784,-8.2014,-8.2416,-8.3638,-8.4402,-8.4346,-8.427,-8.4251,-8.4403,-8.4556,-8.4518,-8.4365,-8.4747,-8.5091,-8.5091,-8.5091,-8.532,-8.5358,-8.5358,-8.5262,-8.5108,-8.5085,-8.5232,-8.5181,-8.5073,-8.4984,-8.4954,-8.4947,-8.4863,-8.4446,-8.4105,-8.4446,-8.437,-8.3877,-8.3271,-8.2551,-8.0459,-8.1044,-8.163,-8.1864,-8.1903,-8.2176,-8.2137,-8.1939,-8.207,-8.2153,-8.2112,-8.2116,-8.2091,-8.2085,-8.2085,-8.2039,-8.2005,-8.2052,-8.2052,-8.199,-8.199,-8.196,-8.1937,-8.1943,-8.1908,-8.1902,-8.1892,-8.1931,-8.1892,-8.2009,-8.1931,-8.1893,-8.2355,-8.2139,-8.1913,-8.189,-8.2161,-8.1774,-8.1929,-8.2122,-8.162,-8.1568,-8.1607,-8.1607,-8.1582,-8.1749,-8.2186,-8.1796,-8.1624,-8.1875,-8.1715,-8.1392,-8.1331,-8.1278,-8.1254,-8.1185,-8.1131,-8.1093,-8.1093,-8.1023,-8.0975,-8.0893,-8.0809,-8.0741,-8.0741,-8.0723,-8.0705,-8.067,-8.0634,-8.0632,-8.0705,-8.058,-8.0562,-8.056,-8.0656,-8.1001,-8.1192,-8.1458,-8.1821,-8.2697,-8.3195,-8.3828,-8.4841,-8.5051,-8.5052,-8.4767,-8.4576,-8.4404,-8.4499,-8.4518,-8.448,-8.5015,-8.5358,-8.5358,-8.5397,-8.5473,-8.5511,-8.5435,-8.5435,-8.5415,-8.5413,-8.5449,-8.5346,-8.516,-8.5073,-8.4984,-8.4932,-8.4901,-8.4901,-8.4863,-8.4901,-8.4901,-8.4484,-8.3915,-8.3347,-8.1161,-8.1513,-8.2059,-8.2296,-8.2299,-8.2296,-8.2293,-8.229,-8.2234,-8.2179,-8.2201,-8.2138,-8.2117,-8.2151,-8.2112,-8.2117,-8.2071,-8.2101,-8.2117,-8.2065,-8.2052,-8.2033,-8.199,-8.1975,-8.1934,-8.1929,-8.1941,-8.197,-8.2398,-8.2359,-8.2543,-8.2931,-8.3191,-8.3064,-8.2816,-8.296,-8.2819,-8.2509,-8.2664,-8.2857,-8.2393,-8.2277,-8.2471,-8.2393,-8.2342,-8.2329,-8.269,-8.2573,-8.2171,-8.2526,-8.2459,-8.2044,-8.2008,-8.2016,-8.2016,-8.2009,-8.1977,-8.1862,-8.167,-8.1554,-8.143,-8.1013,-8.0893,-8.0843,-8.0826,-8.0792,-8.0792,-8.0758,-8.0779,-8.0813,-8.0869,-8.0729,-8.0787,-8.0803,-8.1147,-8.1512,-8.1837,-8.2084,-8.2715,-8.363,-8.4184,-8.499,-8.5604,-8.5698,-8.568,-8.5262,-8.4843,-8.471,-8.4557,-8.4652,-8.4747,-8.5167,-8.5511,-8.5473,-8.5473,-8.5473,-8.5511,-8.5511,-8.5511,-8.5511,-8.5491,-8.5451,-8.5388,-8.5283,-8.5198,-8.5066,-8.4969,-8.4901,-8.4901,-8.4901,-8.4901,-8.4901,-8.4901,-8.4484,-8.3953,-8.1552,-8.2254,-8.2293,-8.2302,-8.231,-8.2302,-8.2296,-8.2293,-8.2241,-8.2191,-8.2187,-8.2171,-8.2157,-8.2196,-8.2196,-8.2192,-8.2187,-8.2192,-8.2187,-8.2177,-8.2106,-8.2089,-8.2052,-8.2036,-8.1991,-8.1934,-8.1986,-8.2288,-8.299,-8.3136,-8.3544,-8.4086,-8.4259,-8.425,-8.4258,-8.4223,-8.3811,-8.3412,-8.3592,-8.3554,-8.3089,-8.3438,-8.3554,-8.3476,-8.3244,-8.3399,-8.3528,-8.3347,-8.3346,-8.3536,-8.374,-8.3669,-8.3648,-8.3695,-8.3634,-8.3548,-8.3455,-8.2955,-8.2516,-8.2362,-8.2093,-8.1676,-8.1359,-8.1135,-8.1025,-8.1145,-8.1414,-8.1342,-8.1325,-8.1222,-8.1162,-8.1227,-8.1252,-8.15,-8.1845,-8.219,-8.2441,-8.2957,-8.3724,-8.4335,-8.4642,-8.5235,-8.5713,-8.5905,-8.5905,-8.568,-8.5339,-8.5303,-8.5188,-8.5149,-8.5244,-8.5282,-8.5511,-8.5511,-8.5511,-8.5511,-8.5511,-8.5511,-8.5511,-8.5511,-8.5491,-8.5491,-8.5411,-8.5367,-8.5262,-8.5132,-8.4977,-8.4924,-8.4901,-8.4901,-8.4901,-8.4901,-8.4901,-8.4901,-8.4446,-8.2059,-8.2293,-8.2305,-8.231,-8.2315,-8.232,-8.2324,-8.2283,-8.2281,-8.2235,-8.2185,-8.2166,-8.2205,-8.2176,-8.2191,-8.2191,-8.2191,-8.2183,-8.2166,-8.2153,-8.2138,-8.2117,-8.2089,-8.2059,-8.2012,-8.1983,-8.2069,-8.2426,-8.3191,-8.363,-8.4476,-8.5085,-8.524,-8.5447,-8.5739,-8.5938,-8.4933,-8.4353,-8.465,-8.4327,-8.3979,-8.4134,-8.4289,-8.4173,-8.3979,-8.4211,-8.4546,-8.4121,-8.4159,-8.4659,-8.4261,-8.3989,-8.3784,-8.3813,-8.3813,-8.3665,-8.3611,-8.348,-8.3263,-8.3208,-8.3054,-8.2785,-8.2731,-8.1984,-8.1814,-8.1914,-8.2304,-8.2134,-8.2177,-8.2249,-8.2265,-8.2271,-8.2237,-8.2429,-8.2775,-8.3103,-8.3449,-8.3965,-8.4673,-8.5074,-8.5399,-8.5458,-8.5937,-8.5958,-8.5979,-8.5887,-8.591,-8.5895,-8.5743,-8.5685,-8.5511,-8.5511,-8.5702,-8.5741,-8.5588,-8.555,-8.555,-8.5511,-8.5511,-8.5511,-8.5511,-8.5491,-8.5451,-8.537,-8.5245,-8.5138,-8.5006,-8.4954,-8.4947,-8.4901,-8.4901,-8.4901,-8.4901,-8.4901,-8.4863,-8.2299,-8.231,-8.2313,-8.232,-8.229,-8.2297,-8.2301,-8.23,-8.2295,-8.225,-8.2244,-8.2237,-8.2237,-8.224,-8.223,-8.2227,-8.2232,-8.2266,-8.2254,-8.2237,-8.2166,-8.2157,-8.2143,-8.2106,-8.2077,-8.2052,-8.2234,-8.2667,-8.3704,-8.489,-8.5816,-8.6087,-8.6154,-8.6433,-8.6622,-8.6576,-8.618,-8.5693,-8.5488,-8.523,-8.4985,-8.4869,-8.5062,-8.4946,-8.4792,-8.5062,-8.5565,-8.4985,-8.5036,-8.5589,-8.5204,-8.5048,-8.4899,-8.4951,-8.487,-8.4813,-8.4797,-8.4558,-8.4225,-8.4093,-8.3939,-8.3824,-8.3901,-8.3362,-8.2939,-8.2885,-8.2962,-8.2962,-8.3237,-8.3451,-8.349,-8.349,-8.3473,-8.3473,-8.3802,-8.417,-8.4571,-8.501,-8.5467,-8.5885,-8.6038,-8.5967,-8.6043,-8.6065,-8.6206,-8.6404,-8.6657,-8.6756,-8.6451,-8.6049,-8.5742,-8.5511,-8.5817,-8.6046,-8.5893,-8.5855,-8.5893,-8.5817,-8.5511,-8.5511,-8.5511,-8.5568,-8.5604,-8.5484,-8.5266,-8.5236,-8.5241,-8.4999,-8.4954,-8.4947,-8.4901,-8.4901,-8.4901,-8.4901,-8.4901,-8.2313,-8.2292,-8.2322,-8.229,-8.2302,-8.2304,-8.2304,-8.2304,-8.23,-8.2295,-8.2295,-8.2293,-8.2293,-8.2295,-8.2289,-8.2289,-8.229,-8.2287,-8.2279,-8.2313,-8.2212,-8.2198,-8.2214,-8.2226,-8.2479,-8.2346,-8.2647,-8.3487,-8.478,-8.5876,-8.6639,-8.7001,-8.6904,-8.6912,-8.687,-8.6877,-8.6611,-8.6487,-8.6286,-8.612,-8.5836,-8.6094,-8.661,-8.6352,-8.5952,-8.5759,-8.6145,-8.6068,-8.5759,-8.63,-8.6519,-8.6376,-8.6282,-8.6201,-8.6152,-8.6054,-8.5845,-8.5552,-8.5142,-8.4994,-8.4632,-8.4478,-8.4478,-8.4401,-8.4209,-8.4055,-8.4132,-8.3939,-8.4154,-8.4368,-8.4445,-8.4445,-8.4445,-8.4522,-8.4736,-8.495,-8.5198,-8.5522,-8.5753,-8.6094,-8.6094,-8.6154,-8.6522,-8.6582,-8.6928,-8.7092,-8.7364,-8.7576,-8.7426,-8.6834,-8.6508,-8.6086,-8.639,-8.6772,-8.6619,-8.6543,-8.6467,-8.6275,-8.6008,-8.6046,-8.6428,-8.6179,-8.5777,-8.6022,-8.6282,-8.5719,-8.5497,-8.5408,-8.5243,-8.4924,-8.4901,-8.4901,-8.4901,-8.4901,-8.4901,-8.2289,-8.2293,-8.2296,-8.2301,-8.2304,-8.2304,-8.2304,-8.2304,-8.2304,-8.2304,-8.2303,-8.2302,-8.2301,-8.2303,-8.2297,-8.2296,-8.2299,-8.2297,-8.2326,-8.2315,-8.2302,-8.2411,-8.2479,-8.2925,-8.3111,-8.3419,-8.3878,-8.4556,-8.5525,-8.6498,-8.7089,-8.7085,-8.7049,-8.6982,-8.6951,-8.693,-8.6888,-8.6866,-8.6731,-8.6645,-8.649,-8.6441,-8.6649,-8.6623,-8.6339,-8.6261,-8.6532,-8.6494,-8.6377,-8.6571,-8.661,-8.6558,-8.6544,-8.6556,-8.6514,-8.6419,-8.6345,-8.6077,-8.5883,-8.5703,-8.5494,-8.5478,-8.5593,-8.5593,-8.5593,-8.5517,-8.5324,-8.5016,-8.4939,-8.5209,-8.5363,-8.5363,-8.5363,-8.5478,-8.5593,-8.567,-8.5786,-8.594,-8.6094,-8.617,-8.617,-8.6423,-8.6829,-8.7252,-8.7598,-8.7906,-8.8214,-8.841,-8.8398,-8.8077,-8.8021,-8.7695,-8.7557,-8.7689,-8.7422,-8.7345,-8.7345,-8.7345,-8.7192,-8.7269,-8.7345,-8.7116,-8.6867,-8.7266,-8.7434,-8.6756,-8.6247,-8.6137,-8.5857,-8.5387,-8.5075,-8.5151,-8.4976,-8.4901,-8.4901,-8.2296,-8.2301,-8.2303,-8.2304,-8.2304,-8.2304,-8.2304,-8.2304,-8.2304,-8.2304,-8.2304,-8.2304,-8.2304,-8.2304,-8.2303,-8.2304,-8.2304,-8.2302,-8.2296,-8.2326,-8.2667,-8.2852,-8.3155,-8.365,-8.3958,-8.431,-8.497,-8.5652,-8.615,-8.6734,-8.7188,-8.7105,-8.7037,-8.703,-8.7001,-8.6951,-8.693,-8.693,-8.6899,-8.6926,-8.6904,-8.6797,-8.6725,-8.6687,-8.6662,-8.6661,-8.661,-8.661,-8.661,-8.661,-8.661,-8.661,-8.6596,-8.6596,-8.6569,-8.6514,-8.6443,-8.6345,-8.6254,-8.6191,-8.6143,-8.6126,-8.6094,-8.5901,-8.5901,-8.5824,-8.5824,-8.5555,-8.5593,-8.5786,-8.5786,-8.5786,-8.5786,-8.5863,-8.5978,-8.6055,-8.617,-8.6324,-8.6594,-8.6824,-8.6824,-8.6901,-8.7346,-8.7846,-8.8231,-8.8923,-8.921,-8.9483,-8.945,-8.9279,-8.9247,-8.9132,-8.8901,-8.838,-8.788,-8.8033,-8.8301,-8.8301,-8.8301,-8.8033,-8.788,-8.7957,-8.8071,-8.8204,-8.8124,-8.768,-8.7269,-8.7046,-8.6517,-8.5911,-8.5637,-8.5463,-8.525,-8.5,-8.4924,-8.2301,-8.2304,-8.2304,-8.2304,-8.2304,-8.2304,-8.2304,-8.2304,-8.2304,-8.2304,-8.2344,-8.2461,-8.2422,-8.2304,-8.2304,-8.2304,-8.2304,-8.2304,-8.2304,-8.2726,-8.3228,-8.3489,-8.3945,-8.4519,-8.4945,-8.5413,-8.5956,-8.6176,-8.638,-8.693,-8.7222,-8.7137,-8.7081,-8.7085,-8.703,-8.6992,-8.702,-8.7088,-8.7117,-8.7244,-8.7114,-8.6921,-8.6902,-8.6841,-8.6752,-8.6739,-8.6855,-8.6726,-8.6726,-8.6958,-8.6996,-8.6764,-8.6648,-8.661,-8.6583,-8.6528,-8.65,-8.639,-8.6315,-8.6269,-8.6207,-8.6159,-8.6126,-8.6165,-8.6165,-8.6149,-8.611,-8.6149,-8.6187,-8.6132,-8.6132,-8.617,-8.617,-8.6247,-8.6363,-8.6671,-8.6824,-8.6901,-8.7209,-8.7517,-8.7555,-8.7594,-8.8017,-8.8517,-8.9056,-8.9748,-9.0192,-9.0524,-9.066,-9.0411,-9.0241,-9.011,-8.9918,-8.9323,-8.8706,-8.8759,-8.9179,-8.9179,-8.9103,-8.8683,-8.8492,-8.8874,-8.8988,-8.8759,-8.8603,-8.8523,-8.8252,-8.8014,-8.7351,-8.6669,-8.6191,-8.5902,-8.5591,-8.5341,-8.5068,-8.2304,-8.2304,-8.2304,-8.2304,-8.2304,-8.2304,-8.2304,-8.2304,-8.2304,-8.2304,-8.2539,-8.3008,-8.3047,-8.2344,-8.2304,-8.2422,-8.2734,-8.2617,-8.2929,-8.3355,-8.3819,-8.4122,-8.4656,-8.5426,-8.6197,-8.6627,-8.6861,-8.7049,-8.6874,-8.7107,-8.7276,-8.7253,-8.705,-8.7046,-8.7103,-8.7049,-8.703,-8.7137,-8.7603,-8.7914,-8.7748,-8.7569,-8.7431,-8.7297,-8.711,-8.7771,-8.8004,-8.7255,-8.7706,-8.8041,-8.7963,-8.7306,-8.6919,-8.6687,-8.6583,-8.6569,-8.6542,-8.65,-8.639,-8.6384,-8.6339,-8.6308,-8.6293,-8.6385,-8.637,-8.6361,-8.64,-8.6499,-8.6483,-8.6357,-8.6379,-8.6401,-8.644,-8.6632,-8.6786,-8.7555,-8.8017,-8.8055,-8.8209,-8.8363,-8.844,-8.8709,-8.9171,-8.9594,-8.994,-9.0479,-9.0748,-9.1021,-9.1003,-9.108,-9.11,-9.0912,-9.0685,-9.0704,-9.026,-8.987,-9.0079,-9.0058,-8.9982,-8.9638,-8.9638,-9.0096,-9.0096,-8.9638,-8.9655,-8.9711,-8.938,-8.8939,-8.8319,-8.7639,-8.6818,-8.6279,-8.6029,-8.5719,-8.5408]},{"header":{"parameterUnit":"m.s-1","parameterCategory":1,"la1":31.0,"la2":29.5877,"lo1":-88.7671,"lo2":-86.6584,"dy":0.0162,"dx":0.0185,"nx":115,"ny":88,"refTime":"2023-02-22T18:00:00:Z","depth":0,"parameterNumber":3,"parameterNumberName":"V-component_of_WINDS"},"data":[0.0,0.0,0.0,0.0,0.0,0.0,0.0,0.0,0.0,0.0,0.0,0.0,0.0,0.0,0.0,0.0,0.0,0.0,0.0,0.0,0.0,0.0,0.0,0.0,0.0,0.0,0.0,0.0,0.0,0.0,0.0,0.0,0.0,0.0,0.0,0.0,0.0,0.0,0.0,0.0,0.0,0.0,0.0,0.0,0.0,0.0,0.0,0.0,0.0,0.0,0.0,0.0,0.0,0.0,0.0,0.0,0.0,0.0,0.0,0.0,0.0,0.0,0.0,0.0,0.0,0.0,0.0,0.0,0.0,0.0,0.0,0.0,0.0,0.0,0.0,0.0,0.0,0.0,0.0,0.0,0.0,0.0,0.0,0.0,0.0,0.0,0.0,0.0,0.0,0.0,0.0,0.0,0.0,0.0,0.0,0.0,0.0,0.0,0.0,0.0,0.0,0.0,0.0,0.0,0.0,0.0,0.0,0.0,0.0,0.0,0.0,0.0,0.0,0.0,0.0,0.0,0.0,0.0,0.0,0.0,0.0,0.0,0.0,0.0,0.0,0.0,0.0,0.0,0.0,0.0,0.0,0.0,0.0,0.0,0.0,0.0,0.0,0.0,0.0,0.0,0.0,0.0,0.0,0.0,0.0,0.0,0.0,0.0,0.0,0.0,0.0,0.0,0.0,0.0,0.0,0.0,0.0,0.0,0.0,0.0,0.0,0.0,0.0,0.0,0.0,0.0,0.0,0.0,0.0,0.0,0.0,0.0,0.0,0.0,0.0,0.0,0.0,0.0,0.0,0.0,0.0,0.0,0.0,0.0,0.0,0.0,0.0,0.0,0.0,0.0,0.0,0.0,0.0,0.0,0.0,0.0,0.0,0.0,0.0,0.0,0.0,0.0,0.0,0.0,0.0,0.0,0.0,0.0,0.0,0.0,0.0,0.0,0.0,0.0,0.0,0.0,0.0,0.0,0.0,0.0,0.0,0.0,0.0,0.0,0.0,0.0,0.0,0.0,0.0,0.0,0.0,0.0,0.0,0.0,0.0,0.0,0.0,0.0,0.0,0.0,0.0,0.0,0.0,0.0,0.0,0.0,0.0,0.0,0.0,0.0,0.0,0.0,0.0,0.0,0.0,0.0,0.0,0.0,0.0,0.0,0.0,0.0,0.0,0.0,0.0,0.0,0.0,0.0,0.0,0.0,0.0,0.0,0.0,0.0,0.0,0.0,0.0,0.0,0.0,0.0,0.0,0.0,0.0,0.0,0.0,0.0,0.0,0.0,0.0,0.0,0.0,0.0,0.0,0.0,0.0,0.0,0.0,0.0,0.0,0.0,0.0,0.0,0.0,0.0,0.0,0.0,0.0,0.0,0.0,0.0,0.0,0.0,0.0,0.0,0.0,0.0,0.0,0.0,0.0,0.0,0.0,0.0,0.0,0.0,0.0,0.0,0.0,0.0,0.0,0.0,0.0,0.0,0.0,0.0,0.0,0.0,0.0,0.0,0.0,0.0,0.0,0.0,0.0,0.0,0.0,0.0,0.0,0.0,0.0,0.0,0.0,0.0,0.0,0.0,0.0,0.0,0.0,0.0,0.0,0.0,0.0,0.0,0.0,0.0,0.0,0.0,0.0,0.0,0.0,0.0,0.0,0.0,0.0,0.0,0.0,0.0,0.0,0.0,0.0,0.0,0.0,0.0,0.0,0.0,0.0,0.0,0.0,0.0,0.0,0.0,0.0,0.0,0.0,0.0,0.0,0.0,0.0,0.0,0.0,0.0,0.0,0.0,0.0,0.0,0.0,0.0,0.0,0.0,0.0,0.0,0.0,0.0,0.0,0.0,0.0,0.0,0.0,0.0,0.0,0.0,0.0,0.0,0.0,0.0,0.0,0.0,0.0,0.0,0.0,0.0,0.0,0.0,0.0,0.0,0.0,0.0,0.0,0.0,0.0,0.0,0.0,0.0,0.0,0.0,0.0,0.0,0.0,0.0,0.0,0.0,0.0,0.0,0.0,0.0,0.0,0.0,0.0,0.0,0.0,0.0,0.0,0.0,0.0,0.0,0.0,0.0,0.0,0.0,0.0,0.0,0.0,0.0,0.0,0.0,0.0,0.0,0.0,0.0,0.0,0.0,0.0,0.0,0.0,0.0,0.0,0.0,0.0,0.0,0.0,0.0,0.0,0.0,0.0,0.0,0.0,0.0,0.0,0.0,0.0,0.0,0.0,0.0,0.0,0.0,0.0,0.0,0.0,0.0,0.0,0.0,0.0,0.0,0.0,0.0,0.0,0.0,0.0,0.0,0.0,0.0,0.0,0.0,0.0,0.0,0.0,0.0,0.0,0.0,0.0,0.0,0.0,0.0,0.0,0.0,0.0,0.0,0.0,0.0,0.0,0.0,0.0,0.0,0.0,0.0,0.0,0.0,0.0,0.0,0.0,0.0,0.0,0.0,0.0,0.0,0.0,0.0,0.0,0.0,0.0,0.0,0.0,0.0,0.0,0.0,0.0,0.0,0.0,0.0,0.0,0.0,0.0,0.0,0.0,0.0,0.0,0.0,0.0,0.0,0.0,0.0,0.0,0.0,0.0,0.0,0.0,0.0,0.0,0.0,0.0,0.0,0.0,0.0,0.0,0.0,0.0,0.0,0.0,0.0,0.0,0.0,0.0,0.0,0.0,0.0,0.0,0.0,0.0,0.0,0.0,0.0,0.0,0.0,0.0,0.0,0.0,0.0,0.0,0.0,0.0,0.0,0.0,0.0,0.0,0.0,0.0,0.0,0.0,0.0,0.0,0.0,0.0,0.0,0.0,0.0,0.0,0.0,0.0,0.0,0.0,0.0,0.0,0.0,0.0,0.0,0.0,0.0,0.0,0.0,0.0,0.0,0.0,0.0,0.0,0.0,0.0,0.0,0.0,0.0,0.0,0.0,0.0,0.0,0.0,0.0,0.0,0.0,0.0,0.0,0.0,0.0,0.0,0.0,0.0,0.0,0.0,0.0,0.0,0.0,0.0,0.0,0.0,0.0,0.0,0.0,0.0,0.0,0.0,0.0,0.0,0.0,0.0,0.0,0.0,0.0,0.0,0.0,0.0,0.0,0.0,0.0,0.0,0.0,0.0,0.0,0.0,0.0,0.0,0.0,0.0,0.0,0.0,0.0,0.0,0.0,0.0,0.0,0.0,0.0,0.0,0.0,0.0,0.0,0.0,0.0,0.0,0.0,0.0,0.0,0.0,0.0,0.0,0.0,0.0,0.0,0.0,0.0,0.0,0.0,0.0,0.0,0.0,0.0,0.0,0.0,0.0,0.0,0.0,0.0,0.0,0.0,0.0,0.0,0.0,0.0,0.0,0.0,0.0,0.0,0.0,0.0,0.0,0.0,0.0,0.0,0.0,0.0,0.0,0.0,0.0,0.0,0.0,0.0,0.0,0.0,0.0,0.0,0.0,0.0,0.0,0.0,0.0,0.0,0.0,0.0,0.0,0.0,0.0,0.0,0.0,0.0,0.0,0.0,0.0,0.0,0.0,0.0,0.0,0.0,0.0,0.0,0.0,0.0,0.0,0.0,0.0,0.0,0.0,0.0,0.0,0.0,0.0,0.0,0.0,0.0,0.0,0.0,0.0,0.0,0.0,0.0,0.0,0.0,0.0,0.0,0.0,0.0,0.0,0.0,0.0,0.0,0.0,0.0,0.0,0.0,0.0,0.0,0.0,0.0,0.0,0.0,0.0,0.0,0.0,0.0,0.0,0.0,0.0,0.0,0.0,0.0,0.0,0.0,0.0,0.0,0.0,0.0,0.0,0.0,0.0,0.0,0.0,0.0,0.0,0.0,0.0,0.0,0.0,0.0,0.0,0.0,0.0,0.0,0.0,0.0,0.0,0.0,0.0,0.0,0.0,0.0,0.0,0.0,0.0,0.0,0.0,0.0,0.0,0.0,0.0,0.0,0.0,0.0,0.0,0.0,0.0,0.0,0.0,0.0,0.0,0.0,0.0,0.0,0.0,0.0,0.0,0.0,0.0,0.0,0.0,0.0,0.0,0.0,0.0,0.0,0.0,0.0,0.0,0.0,0.0,0.0,0.0,0.0,0.0,0.0,0.0,0.0,0.0,0.0,0.0,0.0,0.0,0.0,0.0,0.0,0.0,0.0,0.0,0.0,0.0,0.0,0.0,0.0,0.0,0.0,0.0,0.0,0.0,0.0,0.0,0.0,0.0,0.0,0.0,0.0,0.0,0.0,0.0,0.0,0.0,0.0,0.0,0.0,0.0,0.0,0.0,0.0,0.139,0.0,0.0,0.0,0.0,0.0,0.0,0.0,0.0,0.0,0.0,0.0,0.0,0.0,0.0,0.0,0.0,0.0,0.0,0.0,0.0,0.0,0.0,0.0,0.0,0.0,0.0,0.0,0.0,0.0,0.0,0.0,0.0,0.0,0.0,0.0,0.0,0.0,0.0,0.0,0.0,0.0,0.0,0.0,0.0,0.0,0.0,0.0,0.0,0.0,0.0,0.0,0.0,0.0,0.0,0.0,0.0,0.0,0.0,0.0,0.0,0.0,0.0,0.0,0.0,0.0,0.0,0.0,0.0,0.0,0.0,0.0,0.0,0.0,0.0,0.0,0.0,0.0,0.0,0.0,0.0,0.0,0.0,0.0,0.0,0.0,0.0,0.0,0.0,0.0,0.0,0.0,0.0,0.0,0.0,0.0,0.0,0.0,0.0,0.0,0.0,0.0,0.0,0.0,0.0,0.0,0.0,0.0,0.0,0.0,0.0,0.2923,0.3202,0.3124,0.2916,0.2498,0.0,0.0,0.0,0.0,0.0,0.0,0.0,0.0,0.0,0.0,0.0,0.0,0.0,0.0,0.0,0.0,0.0,0.0,0.0,0.0,0.0,0.0,0.0,0.0,0.0,0.0,0.0,0.0,0.0,0.0,0.0,0.0,0.0,0.0,0.0,0.0,0.0,0.0,0.0,0.0,0.0,0.0,0.0,0.0,0.0,0.0,0.0,0.0,0.0,0.0,0.0,0.0,0.0,0.0,0.0,0.0,0.0,0.0,0.0,0.0,0.0,0.0,0.0,0.0,0.0,0.0,0.0,0.0,0.0,0.0,0.0,0.0,0.0,0.0,0.0,0.0,0.0,0.0,0.0,0.0,0.0,0.0,0.0,0.0,0.0,0.0,0.0,0.0,0.0,0.0,0.0,0.0,0.0,0.0,0.0,0.0,0.0,0.0,0.0,0.0,0.0,0.0,0.0,0.0,0.0,0.0,0.0,0.0,0.0,0.0,0.0,0.0,0.3457,0.3418,0.3495,0.0,0.0,0.0,0.0,0.0,0.0,0.0,0.0,0.0,0.0,0.0,0.0,0.0,0.0,0.0,0.0,0.0,0.0,0.0,0.0,0.0,0.0,0.0,0.0,0.0,0.0,0.0,0.0,0.0,0.0,0.0,0.0,0.0,0.0,0.0,0.0,0.0,0.0,0.0,0.0,0.0,0.0,0.0,0.0,0.0,0.0,0.0,0.0,0.0,0.0,0.0,0.0,0.0,0.0,0.0,0.0,0.0,0.0,0.0,0.0,0.0,0.0,0.0,0.0,0.0,0.0,0.0,0.0,0.0,0.0,0.0,0.0,0.0,0.0,0.0,0.0,0.0,0.0,0.0,0.0,0.0,0.0,0.0,0.0,0.0,0.0,0.0,0.0,0.0,0.0,0.0,0.0,0.0,0.0,0.0,0.0,0.0,0.0,0.0,0.0,0.0,0.0,0.0,0.0,0.0,0.0,0.0,0.0,0.0,0.0,0.3659,0.4003,0.3616,0.0,0.3877,0.0,0.0,0.0,0.0,0.0,0.0,0.0,0.0,0.0,0.0,0.0,0.0,0.0,0.0,0.0,0.0,0.0,0.0,0.0,0.0,0.0,0.0,0.0,0.0,0.0,0.0,0.0,0.0,0.0,0.0,0.0,0.0,0.0,0.0,0.0,0.0,0.0,0.0,0.0,0.0,0.0,0.0,0.0,0.0,0.0,0.0,0.0,0.0,0.0,0.0,0.0,0.0,0.0,0.0,0.0,0.0,0.0,0.0,0.0,0.0,0.0,0.0,0.0,0.0,0.0,0.0,0.0,0.0,0.0,0.0,0.0,0.0,0.0,0.0,0.0,0.0,0.0,0.0,0.0,0.0,0.0,0.0,0.0,0.0,0.0,0.0,0.0,0.0,0.0,0.0,0.0,0.0,0.0,0.0,0.0,0.0,0.0,0.0,0.0,0.0,0.0,0.0,0.0,0.0,0.0,0.0,0.0,0.0,0.0,0.0,0.4062,0.4434,0.4216,0.4197,0.0,0.0,0.0,0.0,0.0,0.0,0.0,0.0,0.0,0.0,0.0,0.0,0.0,0.0,0.0,0.0,0.0,0.0,0.0,0.0,0.0,0.0,0.0,0.0,0.0,0.0,0.0,0.0,0.0,0.0,0.0,0.0,0.0,0.0,0.0,0.0,0.0,0.0,0.0,0.0,0.0,0.0,0.0,0.0,0.0,0.0,0.0,0.0,0.0,0.0,0.0,0.0,0.0,0.0,0.0,0.0,0.0,0.0,0.0,0.0,0.0,0.0,0.0,0.0,0.0,0.0,0.0,0.0,0.0,0.0,0.0,0.0,0.0,0.0,0.0,0.0,0.0,0.0,0.0,0.0,0.0,0.0,0.0,0.0,0.0,0.0,0.0,0.0,0.0,0.0,0.0,0.0,0.0,0.0,0.0,0.0,0.0,0.0,0.0,0.0,0.0,0.0,0.0,0.0,0.0,0.0,0.0,0.0,0.0,0.0,0.446,0.434,0.4693,0.4748,0.4836,0.4878,0.0,0.0,0.0,0.0,0.0,0.0,0.0,0.0,0.0,0.0,0.0,0.0,0.0,0.0,0.0,0.0,0.0,0.0,0.0,0.0,0.0,0.0,0.0,0.0,0.0,0.0,0.0,0.0,0.0,0.0,0.0,0.0,0.0,0.0,0.0,0.0,0.0,0.0,0.0,0.0,0.0,0.0,0.0,0.0,0.0,0.0,0.0,0.0,0.0,0.0,0.0,0.0,0.0,0.0,0.0,0.0,0.0,0.0,0.0,0.0,0.0,0.0,0.0,0.0,0.0,0.0,0.0,0.0,0.0,0.0,0.0,0.0,0.0,0.0,0.0,0.0,0.0,0.0,0.0,0.0,0.0,0.0,0.0,0.0,0.0,0.0,0.0,0.0,0.0,0.0,0.0,0.0,0.0,0.0,0.0,0.0,0.0,0.0,0.0,0.0,0.0,0.0,0.0,0.0,0.0,0.0,0.0,0.0,0.5228,0.4809,0.4556,0.4633,0.5099,0.5382,0.0,0.0,0.0,0.0,0.0,0.0,0.0,0.0,0.0,0.0,0.0,0.0,0.0,0.0,0.0,0.0,0.0,0.0,0.0,0.0,0.0,0.0,0.0,0.0,0.0,0.0,0.0,0.0,0.0,0.0,0.0,0.0,0.0,0.0,0.0,0.0,0.0,0.0,0.0,0.0,0.0,0.0,0.0,0.0,0.0,0.0,0.0,0.0,0.0,0.0,0.0,0.0,0.0,0.0,0.0,0.0,0.0,0.0,0.0,0.0,0.0,0.0,0.0,0.0,0.0,0.0,0.0,0.0,0.0,0.0,0.0,0.0,0.0,0.0,0.0,0.0,0.0,0.0,0.0,0.0,0.0,0.0,0.0,0.0,0.0,0.0,0.0,0.0,0.0,0.0,0.0,0.0,0.0,0.0,0.0,0.0,0.0,0.0,0.0,0.0,0.0,0.0,0.0,0.0,0.0,0.0,0.0,0.0,0.0,0.5294,0.5092,0.4989,0.4989,0.5212,0.5327,0.0,0.0,0.0,0.0,0.0,0.0,0.0,0.0,0.0,0.0,0.0,0.0,0.0,0.0,0.0,0.0,0.0,0.0,0.0,0.0,0.0,0.0,0.0,0.0,0.0,0.0,0.0,0.0,0.0,0.0,0.0,0.0,0.0,0.0,0.0,0.0,0.0,0.0,0.0,0.0,0.0,0.0,0.0,0.0,0.0,0.0,0.0,0.0,0.0,0.0,0.0,0.0,0.0,0.0,0.0,0.0,0.0,0.0,0.0,0.0,0.0,0.0,0.0,0.0,0.0,0.0,0.0,0.0,0.0,0.0,0.0,0.0,0.0,0.0,0.0,0.0,0.0,0.0,0.0,0.0,0.0,0.0,0.0,0.0,0.0,0.0,0.0,0.0,0.0,0.0,0.0,0.0,0.0,0.0,0.0,0.0,0.0,0.0,0.0,0.0,0.0,0.0,0.0,0.0,0.0,0.0,0.0,0.0,0.0,0.5401,0.0,0.5578,0.5578,0.564,0.5593,0.0,0.0,0.0,0.0,0.0,0.0,0.0,0.0,0.0,0.0,0.0,0.0,0.0,0.0,0.0,0.0,0.0,0.0,0.0,0.0,0.0,0.0,0.0,0.0,0.0,0.0,0.0,0.0,0.0,0.0,0.0,0.0,0.0,0.0,0.0,0.0,0.0,0.0,0.0,0.0,0.0,0.0,0.0,0.0,0.0,0.0,0.0,0.0,0.0,0.0,0.0,0.0,0.0,0.0,0.0,0.0,0.0,0.0,0.0,0.0,0.0,0.0,0.0,0.0,0.0,0.0,0.0,0.0,0.0,0.0,0.0,0.0,0.0,0.0,0.0,0.0,0.0,0.0,0.0,0.0,0.0,0.0,0.0,0.0,0.0,0.0,0.0,0.0,0.0,0.0,0.0,0.0,0.0,0.0,0.0,0.0,0.0,0.0,0.0,0.0,0.0,0.0,0.0,0.0,0.0,0.0,0.0,0.0,0.5966,0.5762,0.6151,0.6311,0.6387,0.6462,0.6259,0.0,0.0,0.0,0.0,0.0,0.0,0.0,0.0,0.0,0.0,0.0,0.0,0.0,0.0,0.0,0.0,0.0,0.0,0.0,0.0,0.0,0.0,0.0,0.0,0.0,0.0,0.0,0.0,0.0,0.0,0.0,0.0,0.0,0.0,0.0,0.0,0.0,0.0,0.0,0.0,0.0,0.0,0.0,0.0,0.0,0.0,0.0,0.0,0.0,0.0,0.0,0.0,0.0,0.0,0.0,0.0,0.0,0.0,0.0,0.0,0.0,0.0,0.0,0.0,0.0,0.0,0.0,0.0,0.0,0.0,0.0,0.0,0.0,0.0,0.0,0.0,0.0,0.0,0.0,0.0,0.0,0.0,0.0,0.0,0.0,0.0,0.0,0.0,0.0,0.0,0.0,0.0,0.0,0.0,0.0,0.0,0.0,0.0,0.0,0.0,0.0,0.0,0.0,0.0,0.0,0.0,0.0,0.0,0.0,0.6231,0.6307,0.636,0.6315,0.6435,0.6395,0.0,0.0,0.0,0.0,0.0,0.0,0.0,0.0,0.0,0.0,0.0,0.0,0.0,0.0,0.0,0.0,0.0,0.0,0.0,0.0,0.0,0.0,0.0,0.0,0.0,0.0,0.0,0.0,0.0,0.0,0.0,0.0,0.0,0.0,0.0,0.0,0.0,0.0,0.0,0.0,0.0,0.0,0.0,0.0,0.0,0.0,0.0,0.0,0.0,0.0,0.0,0.0,0.0,0.0,0.0,0.0,0.0,0.0,0.0,0.0,0.0,0.0,0.0,0.0,0.0,0.0,0.0,0.0,0.0,0.0,0.0,0.0,0.0,0.0,0.0,0.0,0.0,0.0,0.0,0.0,0.0,0.0,0.0,0.0,0.0,0.0,0.0,0.0,0.0,0.0,0.0,0.0,0.0,0.0,0.0,0.0,0.0,0.0,0.0,0.0,0.0,0.0,0.0,0.0,0.0,0.0,0.0,0.0,0.0,0.6777,0.6487,0.6309,0.623,0.6349,0.6473,0.6587,0.0,0.0,0.0,0.0,0.0,0.0,0.0,0.0,0.0,0.0,0.0,0.0,0.0,0.0,0.0,0.0,0.0,0.0,0.0,0.0,0.0,0.0,0.0,0.0,0.0,0.0,0.0,0.0,0.0,0.0,0.0,0.0,0.0,0.0,0.0,0.0,0.0,0.0,0.0,0.0,0.0,0.0,0.0,0.0,0.0,0.0,0.0,0.0,0.0,0.0,0.0,0.0,0.0,0.0,0.0,0.0,0.0,0.0,0.0,0.0,0.0,0.0,0.0,0.0,0.0,0.0,0.0,0.0,0.0,0.0,0.0,0.0,0.0,0.0,0.0,0.0,0.0,0.0,0.0,0.0,0.0,0.0,0.0,0.0,0.0,0.0,0.0,0.0,0.0,0.0,0.0,0.0,0.0,0.0,0.0,0.0,0.0,0.0,0.0,0.0,0.0,0.0,0.0,0.0,0.0,0.0,0.0,0.0,0.7378,0.6685,0.6304,0.6242,0.6315,0.6509,0.0,0.0,0.0,0.0,0.0,0.0,0.0,0.0,0.0,0.0,0.0,0.0,0.0,0.0,0.0,0.0,0.0,0.0,0.0,0.0,0.0,0.0,0.0,0.0,0.0,0.0,0.0,0.0,0.0,0.0,0.0,0.0,0.0,0.0,0.0,0.0,0.0,0.0,0.0,0.0,0.0,0.0,0.0,0.0,0.0,0.0,0.0,0.0,0.0,0.0,0.0,0.0,0.0,0.0,0.0,0.0,0.0,0.0,0.0,0.0,0.0,0.0,0.0,0.0,0.0,0.0,0.0,0.0,0.0,0.0,0.0,0.0,0.0,0.0,0.0,0.0,0.0,0.0,0.0,0.0,0.0,0.0,0.0,0.0,0.0,0.0,0.0,0.0,0.0,0.0,0.0,0.0,0.0,0.0,0.0,0.0,0.0,0.0,0.0,0.0,0.0,0.0,0.0,0.0,0.0,0.0,0.0,0.0,0.0,0.6754,0.6898,0.6888,0.67,0.7014,0.7135,0.0,0.0,0.0,0.0,0.0,0.0,0.0,0.0,0.0,0.0,0.0,0.0,0.0,0.0,0.0,0.0,0.0,0.0,0.0,0.0,0.0,0.0,0.0,0.0,0.0,0.0,0.0,0.0,0.0,0.0,0.0,0.0,0.0,0.0,0.0,0.0,0.0,0.0,0.0,0.0,0.0,0.0,0.0,0.0,0.0,0.0,0.0,0.0,0.0,0.0,0.0,0.0,0.0,0.0,0.0,0.0,0.0,0.0,0.0,0.0,0.0,0.0,0.0,0.0,0.0,0.0,0.0,0.0,0.0,0.0,0.0,0.0,0.0,0.0,0.0,0.0,0.0,0.0,0.0,0.0,0.0,0.0,0.0,0.0,0.0,0.0,0.0,0.0,0.0,0.0,0.0,0.0,0.0,0.0,0.0,0.0,0.0,0.0,0.0,0.0,0.0,0.0,0.0,0.0,0.0,0.0,0.0,0.0,0.8191,0.7625,0.7638,0.7523,0.7201,0.7172,0.7119,0.0,0.0,0.0,0.0,0.0,0.0,0.0,0.0,0.0,0.0,0.0,0.0,0.0,0.0,0.0,0.0,0.0,0.0,0.0,0.0,0.0,0.0,0.0,0.0,0.0,0.0,0.0,0.0,0.0,0.0,0.0,0.0,0.0,0.0,0.0,0.0,0.0,0.0,0.0,0.0,0.0,0.0,0.0,0.0,0.0,0.0,0.0,0.0,0.0,0.0,0.0,0.0,0.0,0.0,0.0,0.0,0.0,0.0,0.0,0.0,0.0,0.0,0.0,0.0,0.0,0.0,0.0,0.0,0.0,0.0,0.0,0.0,0.0,0.0,0.0,0.0,0.0,0.0,0.0,0.0,0.0,0.0,0.0,0.0,0.0,0.0,0.0,0.0,0.0,0.0,0.0,0.0,0.0,0.0,0.0,0.0,0.0,0.0,0.0,0.0,0.0,0.0,0.0,0.0,0.0,0.0,0.0,0.0,0.912,0.9099,0.8627,0.8224,0.7808,0.7229,0.6925,0.0,0.0,0.0,0.0,0.0,0.0,0.0,0.0,0.0,0.0,0.0,0.0,0.0,0.0,0.0,0.0,0.0,0.0,0.0,0.0,0.0,0.0,0.0,0.0,0.0,0.0,0.0,0.0,0.0,0.0,0.0,0.0,0.0,0.0,0.0,0.0,0.0,0.0,0.0,0.0,0.0,0.0,0.0,0.0,0.0,0.0,0.0,0.0,0.0,0.0,0.0,0.0,0.0,0.0,0.0,0.0,0.0,0.0,0.0,0.0,0.0,0.0,0.0,0.0,0.0,0.0,0.0,0.0,0.0,0.0,0.0,0.0,0.0,0.0,0.0,0.0,0.0,0.0,0.0,0.0,0.0,0.0,0.0,0.0,0.0,0.0,0.0,0.0,0.0,0.0,0.0,0.0,0.0,0.0,0.0,0.0,0.0,0.0,0.0,0.0,0.0,0.0,0.0,0.0,0.0,0.0,0.0,0.0,0.9351,0.8805,0.8993,0.8846,0.8272,0.8246,0.7872,0.0,0.0,0.0,0.0,0.0,0.0,0.0,0.0,0.0,0.0,0.0,0.0,0.0,0.0,0.0,0.0,0.0,0.0,0.0,0.0,0.0,0.0,0.0,0.0,0.0,0.0,0.0,0.0,0.0,0.0,0.0,0.0,0.0,0.0,0.0,0.0,0.0,0.0,0.0,0.0,0.0,0.0,0.0,0.0,0.0,0.0,0.0,0.0,0.6317,0.0,0.0,0.0,0.0,0.0,0.0,0.0,0.0,0.0,0.0,0.0,0.0,0.0,0.0,0.0,0.0,0.0,0.0,0.0,0.0,0.0,0.0,0.0,0.0,0.0,0.0,0.0,0.0,0.0,0.0,0.0,0.0,0.0,0.0,0.0,0.0,0.0,0.0,0.0,0.0,0.0,0.0,0.0,0.0,0.0,0.0,0.0,0.0,0.0,0.0,0.0,0.0,0.0,0.0,0.0,0.0,0.0,0.0,0.0,1.0248,0.9686,0.9769,0.968,0.9202,0.9317,0.8846,0.0,0.0,0.0,0.0,0.0,0.0,0.0,0.0,0.0,0.0,0.0,0.0,0.0,0.0,0.0,0.0,0.0,0.0,0.0,0.0,0.0,0.0,0.0,0.0,0.0,0.0,0.0,0.0,0.0,0.0,0.0,0.0,0.0,0.0,0.0,0.0,0.0,0.0,0.0,0.0,0.0,0.0,0.0,0.0,0.0,0.0,0.0,0.0,0.0,0.0,0.0,0.0,0.0,0.0,0.0,0.0,0.0,0.0,0.0,0.0,0.0,0.0,0.0,0.0,0.0,0.0,0.0,0.0,0.0,0.0,0.0,0.0,0.0,0.0,0.0,0.0,0.0,0.0,0.0,0.0,0.0,0.0,0.0,0.0,0.0,0.0,0.0,0.0,0.0,0.0,0.0,0.0,0.0,0.0,0.0,0.0,0.0,0.0,0.0,0.0,0.0,0.0,0.0,0.0,0.0,0.0,0.0,1.107,1.1311,1.0706,1.0589,1.0384,1.0246,1.0208,0.9753,0.8837,0.0,0.0,0.0,0.0,0.0,0.0,0.0,0.0,0.0,0.0,0.0,0.0,0.0,0.0,0.0,0.0,0.0,0.0,0.0,0.0,0.0,0.0,0.0,0.0,0.0,0.0,0.0,0.0,0.0,0.0,0.0,0.0,0.0,0.0,0.0,0.0,0.0,0.0,0.8523,0.8874,0.0,0.0,0.0,0.0,0.0,0.0,0.0,0.0,0.8866,0.0,0.0,0.0,0.0,0.0,0.0,0.0,0.0,0.0,0.0,0.0,0.0,0.0,0.0,0.0,0.0,0.0,0.0,0.0,0.0,0.0,0.0,0.0,0.0,0.0,0.0,0.0,0.0,0.0,0.0,0.0,0.0,0.0,0.0,0.0,0.0,0.0,0.0,0.0,0.0,0.0,0.0,0.0,0.0,0.0,0.0,0.0,0.0,0.0,0.0,0.0,0.0,0.0,0.0,0.0,0.0,1.0751,1.1551,1.1482,1.0564,1.054,1.0572,1.0748,1.0404,1.0445,1.0887,0.0,0.0,0.0,0.0,0.0,0.0,0.0,0.0,0.0,0.0,0.0,0.0,0.0,0.0,0.0,0.0,0.0,0.0,0.0,0.0,0.0,0.0,0.0,0.0,0.0,0.0,0.0,0.0,0.0,0.0,0.0,0.0,0.0,0.0,0.0,0.0,0.0,0.0,0.0,1.0777,1.0898,0.0,0.0,0.0,0.0,0.0,0.0,0.0,0.0,1.0308,0.0,0.0,0.0,0.0,0.0,0.0,0.0,0.0,0.0,0.0,0.0,0.0,0.0,0.0,0.0,0.0,0.0,0.0,0.0,0.0,0.0,0.0,0.0,0.0,0.0,0.0,0.0,0.0,0.0,0.0,0.0,0.0,0.0,0.0,0.0,0.0,0.0,0.0,0.0,0.0,0.0,0.0,0.0,0.0,0.0,0.0,0.0,0.0,0.0,0.0,0.0,0.0,0.0,0.0,0.0,1.1245,1.1689,1.1544,1.0834,1.0966,1.11,1.1151,1.1164,1.1314,0.0,0.0,0.0,0.0,0.0,0.0,0.0,0.0,0.0,0.0,0.0,0.0,0.0,0.0,0.0,0.0,0.0,0.0,0.0,0.0,0.0,0.0,0.0,0.0,0.0,0.0,0.0,0.0,0.0,0.0,0.0,0.0,0.0,0.0,0.0,0.0,0.0,0.0,0.0,0.0,1.1781,1.1763,1.1732,0.0,0.0,0.0,0.0,0.0,0.0,1.198,1.2141,0.0,0.0,0.0,0.0,0.0,0.0,0.0,0.0,0.0,0.0,0.0,0.0,0.0,0.0,0.0,0.0,0.0,0.0,0.0,0.0,0.0,0.0,0.0,0.0,0.0,0.0,0.0,0.0,0.0,0.0,0.0,0.0,0.0,0.0,0.0,0.0,0.0,0.0,0.0,0.0,0.0,0.0,0.0,0.0,0.0,0.0,0.0,0.0,0.0,0.0,0.0,0.0,0.0,0.0,0.0,1.1762,1.1911,1.1762,1.1266,1.1619,1.1755,1.1674,1.206,1.2192,0.0,0.0,0.0,0.0,0.0,0.0,0.0,0.0,0.0,0.0,0.0,0.0,0.0,0.0,0.0,0.0,0.0,0.0,0.0,0.0,0.0,0.0,0.0,0.0,0.0,0.0,0.0,0.0,0.0,0.0,0.0,0.0,0.0,0.0,0.0,0.0,0.0,0.0,0.0,0.0,0.0,1.2602,1.2852,1.3119,0.0,0.0,0.0,0.0,1.3734,1.3778,0.0,0.0,0.0,0.0,0.0,0.0,0.0,0.0,0.0,0.0,0.0,0.0,0.0,0.0,0.0,0.0,0.0,0.0,0.0,0.0,0.0,0.0,0.0,0.0,0.0,0.0,0.0,0.0,0.0,0.0,0.0,0.0,0.0,0.0,0.0,0.0,0.0,0.0,0.0,0.0,0.0,0.0,0.0,0.0,0.0,0.0,0.0,0.0,0.0,0.0,0.0,0.0,0.0,0.0,0.0,0.0,1.2508,1.2721,1.2561,1.2129,1.2474,1.2627,1.2494,1.288,1.3032,0.0,0.0,0.0,0.0,0.0,0.0,0.0,0.0,0.0,0.0,0.0,0.0,0.0,0.0,0.0,0.0,0.0,0.0,0.0,0.0,0.0,0.0,0.0,0.0,0.0,0.0,0.0,0.0,0.0,0.0,0.0,0.0,0.0,0.0,0.0,0.0,0.0,0.0,0.0,0.0,0.0,1.4023,1.4546,1.4734,1.4853,0.0,0.0,1.5066,1.5248,1.5438,0.0,0.0,0.0,0.0,0.0,0.0,0.0,0.0,0.0,0.0,0.0,0.0,0.0,0.0,0.0,0.0,0.0,0.0,0.0,0.0,0.0,0.0,0.0,0.0,0.0,0.0,0.0,0.0,0.0,0.0,0.0,0.0,0.0,0.0,0.0,0.0,0.0,0.0,0.0,0.0,0.0,0.0,0.0,0.0,0.0,0.0,0.0,0.0,0.0,0.0,0.0,0.0,0.0,0.0,0.0,1.2121,1.3319,1.2853,1.2547,1.2553,1.2753,1.2837,1.2947,1.3401,1.3634,0.0,0.0,0.0,0.0,0.0,0.0,0.0,0.0,0.0,0.0,0.0,0.0,0.0,0.0,0.0,0.0,0.0,0.0,0.0,0.0,0.0,0.0,0.0,0.0,0.0,0.0,0.0,0.0,0.0,0.0,0.0,0.0,0.0,0.0,0.0,0.0,0.0,0.0,0.0,0.0,0.0,0.0,1.5347,1.5846,0.0,0.0,0.0,1.6694,1.6545,0.0,0.0,0.0,0.0,0.0,0.0,0.0,0.0,0.0,0.0,0.0,0.0,0.0,0.0,0.0,0.0,0.0,0.0,0.0,0.0,0.0,0.0,0.0,0.0,0.0,0.0,0.0,0.0,0.0,0.0,0.0,0.0,0.0,0.0,0.0,0.0,0.0,0.0,0.0,0.0,0.0,0.0,0.0,0.0,0.0,0.0,0.0,0.0,0.0,0.0,0.0,0.0,0.0,0.0,0.0,0.0,0.0,1.3831,1.2924,1.2617,1.2896,1.3085,1.318,1.3319,1.3811,0.0,0.0,0.0,0.0,0.0,0.0,0.0,0.0,0.0,0.0,0.0,0.0,0.0,0.0,0.0,0.0,0.0,0.0,0.0,0.0,0.0,0.0,0.0,0.0,0.0,0.0,0.0,1.3431,0.0,0.0,0.0,0.0,0.0,0.0,0.0,0.0,0.0,0.0,0.0,0.0,0.0,0.0,1.6008,1.6457,1.7057,1.743,0.0,0.0,1.8283,1.798,1.8525,1.8749,0.0,0.0,0.0,0.0,0.0,0.0,0.0,0.0,0.0,0.0,0.0,0.0,0.0,0.0,0.0,0.0,0.0,0.0,0.0,0.0,0.0,0.0,0.0,0.0,0.0,0.0,0.0,0.0,0.0,0.0,0.0,0.0,0.0,0.0,0.0,0.0,0.0,0.0,0.0,0.0,0.0,0.0,0.0,0.0,0.0,0.0,0.0,0.0,0.0,0.0,0.0,0.0,0.0,0.0,1.2575,1.3823,1.3424,1.3253,1.3261,1.385,1.3961,1.3772,1.4303,1.4412,0.0,0.0,0.0,0.0,0.0,0.0,0.0,0.0,0.0,0.0,0.0,0.0,0.0,0.0,0.0,0.0,0.0,0.0,0.0,0.0,0.0,0.0,0.0,0.0,0.0,0.0,0.0,0.0,0.0,0.0,0.0,0.0,0.0,0.0,0.0,0.0,0.0,0.0,0.0,0.0,0.0,1.734,1.8207,1.8343,1.8571,0.0,0.0,1.9531,1.9776,1.9914,1.9894,1.9617,0.0,0.0,0.0,0.0,0.0,0.0,0.0,0.0,0.0,0.0,0.0,0.0,0.0,0.0,0.0,0.0,0.0,0.0,0.0,0.0,0.0,0.0,0.0,0.0,0.0,0.0,0.0,0.0,0.0,0.0,0.0,0.0,0.0,0.0,0.0,0.0,0.0,0.0,0.0,0.0,0.0,0.0,0.0,0.0,0.0,0.0,0.0,0.0,0.0,0.0,0.0,0.0,0.0,1.3245,1.4202,1.3569,1.3396,1.369,1.401,1.4188,1.4136,1.4536,1.4879,0.0,0.0,0.0,0.0,0.0,0.0,0.0,0.0,0.0,0.0,0.0,0.0,0.0,0.0,0.0,0.0,0.0,0.0,0.0,0.0,0.0,0.0,0.0,0.0,0.0,0.0,0.0,0.0,1.5761,1.6864,1.7864,0.0,0.0,0.0,0.0,0.0,0.0,0.0,0.0,0.0,0.0,1.8204,1.8901,1.9219,0.0,0.0,1.9955,1.9988,2.0059,2.0535,2.0615,1.9951,2.007,0.0,0.0,0.0,0.0,0.0,0.0,0.0,0.0,0.0,0.0,0.0,0.0,0.0,0.0,0.0,0.0,0.0,0.0,0.0,0.0,0.0,0.0,0.0,0.0,0.0,0.0,0.0,0.0,0.0,0.0,0.0,0.0,0.0,0.0,0.0,0.0,0.0,0.0,0.0,0.0,0.0,0.0,0.0,0.0,0.0,0.0,0.0,0.0,0.0,0.0,0.0,0.0,1.3698,1.4432,1.3794,1.3706,1.4121,1.4382,1.4555,1.4877,1.5069,1.537,0.0,0.0,0.0,0.0,0.0,0.0,0.0,0.0,0.0,0.0,0.0,0.0,0.0,0.0,0.0,0.0,0.0,0.0,0.0,0.0,0.0,0.0,0.0,0.0,0.0,0.0,0.0,0.0,1.6998,1.824,1.9445,0.0,0.0,0.0,0.0,0.0,0.0,0.0,0.0,0.0,0.0,1.9074,1.9647,1.9871,2.0172,2.0573,2.0723,2.0715,2.066,2.1184,2.1351,2.0549,0.0,0.0,0.0,0.0,0.0,0.0,0.0,0.0,0.0,0.0,0.0,0.0,0.0,0.0,0.0,0.0,0.0,0.0,0.0,0.0,0.0,0.0,0.0,0.0,0.0,0.0,0.0,0.0,0.0,0.0,0.8738,0.0,0.0,0.0,0.0,0.0,0.0,0.0,0.0,0.0,0.0,0.0,0.0,0.0,0.0,0.0,0.0,0.0,0.0,0.0,0.0,0.0,0.0,1.3995,1.4424,1.4083,1.4201,1.4736,1.5004,1.5331,1.5821,1.6013,1.5974,1.5676,0.0,0.0,0.0,0.0,0.0,0.0,0.0,0.0,0.0,0.0,0.0,0.0,0.0,0.0,0.0,0.0,0.0,0.0,0.0,0.0,0.0,0.0,0.0,0.0,0.0,0.0,1.9275,1.9467,1.9671,0.0,0.0,0.0,0.0,0.0,0.0,0.0,0.0,0.0,0.0,1.9511,1.9826,2.0479,2.0443,2.0584,2.1318,2.1529,2.1704,2.1823,2.2078,2.2174,0.0,0.0,0.0,0.0,0.0,0.0,0.0,0.0,0.0,0.0,0.0,0.0,0.0,0.0,0.0,0.0,0.0,0.0,0.0,0.0,0.0,0.0,0.0,0.0,0.0,0.0,0.0,0.8967,0.9293,0.0,0.0,0.0,0.0,0.0,0.0,0.0,0.0,0.0,0.0,0.0,1.2818,1.3118,0.0,0.0,0.0,0.0,0.0,0.0,0.0,0.0,0.0,0.0,0.0,0.0,1.4284,1.4416,1.4299,1.4487,1.4817,1.5233,1.5572,1.5905,1.6107,1.6127,1.605,0.0,0.0,0.0,0.0,0.0,0.0,0.0,0.0,0.0,0.0,0.0,0.0,0.0,0.0,0.0,0.0,0.0,0.0,0.0,0.0,0.0,0.0,0.0,0.0,0.0,2.0054,0.0,0.0,0.0,0.0,0.0,0.0,0.0,0.0,0.0,0.0,0.0,2.0447,2.078,2.0888,2.1075,2.1546,2.1306,2.1186,0.0,0.0,0.0,0.0,0.0,0.0,0.0,0.0,0.0,0.0,0.0,0.0,0.0,0.0,2.4088,2.3765,2.401,2.4453,2.5184,0.0,0.0,0.0,0.0,0.0,0.0,0.0,0.0,0.0,0.0,0.0,0.0,0.0,0.0,0.9364,0.0,0.9597,0.0,0.0,0.0,0.0,0.0,0.0,0.0,0.0,1.2538,1.2416,1.2496,1.2721,1.2721,0.0,1.3491,1.36,0.0,0.0,0.0,0.0,0.0,0.0,0.0,0.0,1.4432,1.4638,1.4516,1.4736,1.5276,1.5627,1.6044,1.6379,1.6438,1.6433,1.6433,1.662,1.664,0.0,0.0,0.0,0.0,0.0,0.0,0.0,0.0,0.0,0.0,0.0,0.0,0.0,0.0,0.0,0.0,0.0,0.0,0.0,0.0,0.0,0.0,0.0,2.0633,0.0,0.0,0.0,0.0,0.0,0.0,0.0,0.0,0.0,2.1805,2.1507,2.1429,2.1643,2.1825,2.2019,2.2211,0.0,0.0,0.0,0.0,0.0,0.0,0.0,2.1897,2.2485,2.2716,2.2882,2.3065,2.3392,2.3696,2.391,0.0,0.0,2.447,2.466,2.5158,2.5877,2.6228,2.6464,2.6692,2.6954,2.6924,0.0,0.0,0.0,0.0,0.0,0.0,0.0,0.0,0.89,0.9199,0.0,0.9179,0.0,0.0,0.0,0.0,0.0,1.2252,0.0,0.0,1.193,1.1701,1.1896,1.2342,1.2488,1.2568,1.3451,1.3823,1.3847,1.3778,0.0,0.0,0.0,0.0,0.0,0.0,1.458,1.4933,1.466,1.5084,1.6113,1.6204,1.6619,1.7321,1.7035,1.6806,1.6815,1.6998,1.6952,1.6571,1.7243,0.0,0.0,0.0,0.0,0.0,0.0,0.0,0.0,0.0,0.0,0.0,0.0,0.0,0.0,0.0,0.0,0.0,0.0,0.0,0.0,2.0519,0.0,0.0,0.0,0.0,0.0,0.0,0.0,0.0,0.0,0.0,2.3044,2.3044,2.2797,2.2147,0.0,0.0,0.0,0.0,2.2526,2.2361,2.2608,2.2893,2.2868,2.2583,2.2566,2.3106,0.0,0.0,2.327,2.3836,2.4282,2.4296,2.4386,2.4484,2.4778,2.5397,2.5819,2.5959,2.6504,2.6846,2.6366,2.6618,2.692,1.0455,0.0,0.0,0.0,0.0,1.0291,1.0286,1.0412,1.0372,1.0626,1.1154,1.0928,0.0,0.0,0.0,0.0,0.0,0.0,1.2748,1.2503,1.266,1.2648,1.2532,1.2683,1.2683,1.2755,1.3017,1.3111,1.3119,1.3137,1.3555,1.4557,0.0,0.0,0.0,0.0,1.4514,1.4748,1.4808,1.53,1.6204,1.6499,1.6852,1.7416,1.7273,1.7273,1.7197,1.7023,1.7038,1.7331,1.7304,0.0,0.0,0.0,0.0,0.0,0.0,0.0,0.0,0.0,0.0,0.0,0.0,0.0,0.0,0.0,0.0,0.0,0.0,0.0,2.1065,2.0583,2.1015,0.0,0.0,0.0,0.0,0.0,0.0,0.0,0.0,0.0,2.4729,2.3917,2.3283,0.0,0.0,2.3603,2.3606,2.3168,2.2904,2.2938,2.2563,0.0,0.0,2.2375,2.2353,2.3067,2.3373,2.3579,2.3732,2.3901,2.4094,2.4094,2.4299,2.4531,2.4602,2.4562,2.4782,2.5193,2.5452,2.5778,2.6043,2.6283,2.6191,1.1556,1.0915,1.0904,1.0922,1.0945,1.0892,1.0878,1.0826,1.0853,1.1114,1.1586,1.1326,1.1668,1.2501,1.2501,0.0,0.0,0.0,1.2846,1.2685,1.2912,1.2947,1.2832,1.2753,1.2753,1.2824,1.2968,1.2968,1.3039,1.3251,1.3735,1.4489,0.0,0.0,1.4594,1.4416,1.4497,1.489,1.5075,1.5596,1.6425,1.6814,1.7171,1.7407,1.7426,1.7426,1.7426,1.7197,1.7091,1.7365,1.7303,1.7539,0.0,0.0,0.0,0.0,0.0,0.0,0.0,0.0,0.0,0.0,0.0,1.9785,2.039,0.0,0.0,0.0,2.0149,2.0375,2.0489,2.0563,0.0,0.0,0.0,0.0,0.0,0.0,0.0,2.4629,2.4723,2.4736,2.4453,2.3996,2.3706,2.3799,2.4082,2.4153,2.3888,0.0,2.3287,2.315,2.2862,2.2726,2.2989,2.2716,2.2691,2.3236,2.3525,2.3749,2.3956,2.4078,2.417,2.4224,2.451,2.4713,2.4713,2.4578,2.451,2.4916,2.5052,2.5187,2.5592,2.5742,2.5599,1.2753,1.2805,1.2573,1.2199,1.1769,1.1639,1.1279,1.0779,1.0728,1.1034,1.1554,1.0929,1.1321,1.2427,1.2433,0.0,1.254,1.2621,1.2677,1.2824,1.2896,1.2896,1.2896,1.2896,1.2896,1.2896,1.3182,1.3325,1.3404,1.3922,1.4237,1.418,1.3881,1.3969,1.4416,1.4351,1.4633,1.5351,1.5424,1.5885,1.6831,1.7218,1.7426,1.7426,1.7426,1.7426,1.7426,1.7426,1.7273,1.6968,1.7442,1.7554,1.7203,0.0,0.0,0.0,0.0,0.0,0.0,0.0,0.0,0.0,0.0,0.0,0.0,0.0,0.0,0.0,1.9981,0.0,1.9303,2.0484,0.0,0.0,0.0,2.299,2.2382,2.2853,2.3092,2.2545,0.0,0.0,2.3104,2.3555,2.4014,2.409,2.4362,2.4282,2.3653,2.3681,2.3588,2.3199,2.337,2.3562,2.3517,2.3275,2.3174,2.3364,2.342,2.3666,2.3994,2.4306,2.451,2.4563,2.4849,2.5066,2.5066,2.5052,2.5066,2.5052,2.5066,2.5119,2.5119,2.5119,2.5119,1.2753,1.2768,1.2779,1.267,1.2569,1.2525,1.2417,1.2302,1.2266,1.2366,1.2431,1.2007,1.1839,1.183,1.2122,1.2306,1.2308,1.2872,1.3123,1.3182,1.3468,1.3611,1.3619,1.3611,1.3611,1.3619,1.3761,1.3753,1.3761,1.4231,1.433,1.4245,1.4382,1.4619,1.495,1.4916,1.5259,1.5985,1.5985,1.6379,1.7029,1.7294,1.7426,1.7426,1.7721,1.7873,1.7873,1.7873,1.7797,1.7721,1.7845,1.7789,1.7564,1.8514,0.0,0.0,0.0,0.0,0.0,0.0,0.0,0.0,0.0,2.0591,2.1159,0.0,2.0971,0.0,2.0439,1.9984,1.9704,2.0762,0.0,0.0,2.2467,2.293,2.3065,2.2954,2.3029,2.3263,2.3762,2.3836,2.3268,2.3705,2.3853,2.3362,2.3301,2.34,2.3541,2.3451,2.3503,2.3826,2.3733,2.3652,2.3479,2.3346,2.3313,2.3406,2.3804,2.4218,2.4334,2.4713,2.4984,2.4984,2.4984,2.5066,2.5066,2.5066,2.5066,2.5066,2.5066,2.5066,2.5066,2.5066,2.5066,1.3182,1.3039,1.3182,1.3253,1.3253,1.2968,1.2753,1.2753,1.2753,1.2753,1.2753,1.2545,1.233,1.2115,1.233,1.2545,1.2689,1.3118,1.3396,1.3611,1.3753,1.3904,1.3904,1.3904,1.3904,1.3904,1.3904,1.3945,1.4018,1.4159,1.4217,1.4172,1.4308,1.4681,1.5311,1.5024,1.5098,1.5697,1.6147,1.6591,1.7171,1.7369,1.7426,1.7426,1.7807,1.8025,1.8025,1.8177,1.8303,1.8392,1.8478,1.8414,1.8397,1.8848,1.9195,0.0,0.0,0.0,0.0,0.0,0.0,0.0,0.0,0.0,0.0,0.0,2.0651,2.0968,2.0408,2.0136,2.0394,2.0973,2.1482,2.1633,2.1893,2.2094,2.2313,2.2268,2.2373,2.2545,2.3012,2.3133,2.2696,2.3057,2.3123,2.2545,2.252,2.2666,2.3164,2.3181,2.3228,2.3588,2.3556,2.3484,2.3443,2.3466,2.3614,2.3802,2.4093,2.4386,2.4424,2.4642,2.475,2.4689,2.4713,2.4849,2.4849,2.5115,2.5257,2.5271,2.5271,2.5213,2.5081,2.5066,2.5066,1.3682,1.3396,1.3761,1.3904,1.3825,1.3182,1.2968,1.2968,1.2968,1.2896,1.2896,1.2896,1.2824,1.2824,1.2824,1.3039,1.3325,1.3325,1.3539,1.3904,1.3904,1.3904,1.3904,1.3928,1.3937,1.3937,1.3953,1.405,1.4205,1.4122,1.4122,1.4196,1.4147,1.4591,1.5485,1.486,1.4728,1.5249,1.616,1.6878,1.7454,1.7464,1.7464,1.755,1.7865,1.8094,1.8227,1.8485,1.8815,1.9084,1.9094,1.9088,1.9171,1.9155,1.9274,0.0,1.9765,0.0,0.0,0.0,0.0,0.0,0.0,0.0,0.0,2.0131,2.0358,2.0769,2.0309,2.0254,2.091,2.106,2.1071,2.0996,2.106,2.1071,2.1071,2.1447,2.1641,2.1381,2.186,2.2154,2.1873,2.2056,2.2166,2.1799,2.1847,2.2092,2.2582,2.2825,2.2958,2.2996,2.3057,2.3212,2.3476,2.3681,2.3879,2.4195,2.4296,2.4298,2.4386,2.4358,2.4274,2.4146,2.4309,2.4527,2.4542,2.4991,2.5371,2.5455,2.5455,2.5422,2.5227,2.514,2.5178,1.3896,1.3761,1.3904,1.3904,1.3904,1.3761,1.3682,1.369,1.3682,1.3547,1.3182,1.3182,1.3039,1.2824,1.3111,1.3253,1.3325,1.3611,1.3825,1.3904,1.3904,1.3904,1.3912,1.405,1.4123,1.414,1.4261,1.4351,1.4383,1.4645,1.4645,1.4383,1.4794,1.4969,1.4885,0.0,0.0,0.0,1.697,1.7387,1.7653,1.7594,1.7826,1.8145,1.8388,0.0,1.9224,1.8922,1.9043,1.9719,1.9474,0.0,0.0,0.0,0.0,0.0,0.0,0.0,0.0,0.0,0.0,0.0,2.0676,2.0611,2.0693,2.0968,2.111,2.0912,2.1086,2.0897,2.0167,2.0759,2.0834,2.0232,2.0684,2.1071,2.1071,2.1447,2.1715,2.1762,2.1652,2.1422,2.1183,2.1351,2.1358,2.1075,2.1386,2.1653,2.1515,2.2153,2.2766,2.3163,2.3111,2.3117,2.3541,2.3575,2.3819,2.4133,2.4266,2.4298,2.4372,2.4232,2.4176,2.4274,2.4399,2.4469,2.4694,2.489,2.5059,2.5354,2.5425,2.5394,2.5437,2.5432,2.5447,1.3761,0.0,1.3825,1.3904,0.0,1.3904,1.3904,1.3904,1.3904,1.3761,1.3611,1.3611,1.3468,1.3325,1.3539,1.3611,1.3611,1.3825,1.3904,1.3904,1.3993,1.4034,1.4042,1.4221,1.4302,1.431,1.4391,1.4481,1.4562,1.4629,1.4629,1.457,1.4728,1.4919,1.501,1.5565,1.6118,1.651,1.6883,1.7244,1.7577,1.7577,1.7663,1.7817,0.0,0.0,0.0,0.0,0.0,0.0,0.0,0.0,0.0,0.0,0.0,1.9159,1.9396,1.9641,1.9771,2.0005,2.0107,2.0221,2.021,2.0287,2.0517,2.0637,2.0647,2.0418,2.0559,2.0515,2.0016,2.0307,2.0458,2.0221,2.0609,2.091,2.106,2.1297,2.1389,2.1507,2.1324,2.1117,2.099,2.1082,2.1175,2.0952,2.1204,2.1372,2.121,2.148,2.1977,2.2459,2.2831,2.3014,2.3248,2.3382,2.3637,2.4004,2.4123,2.4206,2.4293,2.4186,2.4104,2.4104,2.4231,2.444,2.4565,2.4775,2.51,2.5314,2.5314,2.5342,2.5384,2.5606,2.5769,1.3611,1.3468,1.3682,1.3825,1.3904,1.3937,1.3953,1.3945,0.0,0.0,0.0,1.3904,1.3904,1.3904,1.3904,1.3904,1.3904,1.3937,1.3953,1.3961,1.414,1.4229,1.4229,1.4399,1.4481,1.4481,1.4513,1.4603,1.4741,1.4603,1.4586,1.4684,1.4586,1.4752,1.527,1.6116,1.6424,1.6203,1.6653,1.7054,1.7397,1.7483,1.7483,1.7559,1.7817,1.8276,1.878,1.8963,1.9458,2.0187,2.0197,2.0184,2.0412,2.0032,1.9699,1.9579,1.9501,1.9341,1.9003,1.9531,1.9754,1.9336,1.9693,1.9951,2.0199,1.9984,1.9919,1.9919,1.9919,1.9919,1.9919,1.9919,1.9995,2.0372,2.0447,2.0673,2.091,2.1071,2.1146,2.1071,2.1048,2.0985,2.0962,2.0962,2.0985,2.091,2.0898,2.0985,2.091,2.1048,2.1274,2.166,2.2085,2.2545,2.2694,2.2905,2.3377,2.3696,2.3819,2.3875,2.4057,2.4024,2.3976,2.3946,2.4062,2.4232,2.4358,2.4692,2.5119,2.5277,2.5277,2.5349,2.5394,2.5727,2.5896,1.3539,1.3753,1.3468,1.3611,1.3912,1.4075,1.414,1.4123,1.3969,1.3904,1.3904,1.3904,1.3904,1.3904,1.3904,1.3904,1.3912,1.4066,1.414,0.0,1.4318,1.4399,1.4408,1.4586,1.4667,1.4676,1.4822,1.4903,1.4927,1.4903,1.483,1.4741,1.483,1.4979,1.5081,1.5497,1.5897,1.6203,1.6968,1.7434,1.7681,1.7681,1.7845,1.8164,1.8017,1.8495,1.9388,1.902,1.9298,2.0433,2.0121,1.9891,1.9723,1.9327,1.8859,1.8286,1.797,1.818,1.9074,1.8988,1.9129,1.9703,1.9854,1.9951,2.0177,1.9994,1.9919,1.9919,1.9919,1.9919,1.9919,1.9919,1.9919,1.9995,2.0296,2.0522,2.0597,2.0834,2.1071,2.0996,2.0834,2.0597,2.0597,2.0597,2.0447,2.0221,2.0458,2.0447,2.0296,2.0684,2.1071,2.1146,2.1297,2.1435,2.181,2.2109,2.2471,2.2918,2.3039,2.3206,2.3593,2.3497,2.3563,2.4043,2.3839,2.3931,2.4349,2.4309,2.4543,2.497,2.513,2.5277,2.5556,2.5719,2.5693,1.3111,1.334,1.3426,1.3545,1.3778,1.4172,1.4261,1.4172,1.3874,1.3762,1.3682,1.3545,1.3545,1.3762,1.3762,1.3778,1.3904,1.3993,1.4034,1.4042,1.4213,1.4343,1.4448,1.4627,1.4757,1.4846,1.4927,1.5045,1.5045,1.5045,1.4927,1.4854,1.4927,1.5045,1.5045,1.5429,1.5667,1.5897,1.6662,1.7244,1.7558,1.7568,1.7644,1.7798,1.7739,1.7971,1.8708,1.8491,1.8705,1.9486,1.9332,1.9137,1.9024,1.8871,1.8668,1.8339,1.8187,1.8415,1.9174,1.9239,1.9529,2.0027,1.9995,1.9951,2.0199,2.006,1.9919,1.9919,1.9919,1.9919,1.9919,1.9919,1.9919,1.9919,2.007,2.0145,2.0221,2.0296,2.0458,2.0458,2.0307,2.0145,2.0145,2.0145,2.0145,1.9919,2.007,2.007,1.9919,2.0232,2.0533,2.0759,2.091,2.1146,2.1285,2.1435,2.1735,2.2109,2.215,2.2374,2.2731,2.2827,2.3133,2.3369,2.3468,2.3593,2.3957,2.4031,2.4193,2.4414,2.4784,2.4931,2.5152,2.5139,2.5231,1.2763,1.2952,1.3225,1.3448,1.3641,1.3987,1.412,1.4008,1.3633,1.3412,1.3405,1.3117,1.3167,1.3498,1.3498,1.3574,1.3754,1.3778,1.3794,1.3809,1.4123,1.4284,1.4412,1.4625,1.4838,1.5028,1.5045,1.5045,1.5045,1.5045,1.5045,1.5045,1.5045,1.5045,1.5045,1.5275,1.5505,1.5667,1.6195,1.6815,1.7273,1.735,1.7426,1.7426,1.7426,1.7578,1.7949,1.8074,1.8256,1.8648,1.8764,1.8698,1.8648,1.8612,1.8622,1.8581,1.8571,1.8694,1.9174,1.967,1.9984,2.0113,1.9962,2.0006,2.0091,1.9962,1.9919,1.9919,1.9919,1.9919,1.9919,1.9919,1.9919,1.9919,1.9919,1.9919,1.9919,1.9919,1.9919,1.9919,1.9919,1.9919,1.9919,1.9919,1.9919,1.9919,1.9919,1.9919,1.9919,1.9919,2.0081,2.0362,2.0653,2.077,2.0834,2.091,2.106,2.1349,2.1424,2.1712,2.2011,2.2321,2.262,2.2757,2.2992,2.3203,2.3364,2.3525,2.3748,2.3896,2.4044,2.4179,2.4341,2.4562,2.4784,1.2699,1.3052,1.2844,1.3013,1.3514,1.3612,1.3604,1.3514,1.3137,1.3,1.2964,1.2993,1.3096,1.3215,1.323,1.3289,1.3274,1.3432,1.3552,1.3567,1.4137,1.4375,1.4436,1.4774,1.4952,1.4968,1.4968,1.4968,1.4968,1.4968,1.4968,1.5045,1.5045,1.5045,1.5045,1.5045,1.5275,1.559,1.5659,1.6118,1.6806,1.7197,1.7426,1.7426,1.7426,1.7578,1.7979,1.8144,1.8473,1.8879,1.906,1.9071,1.8909,1.8739,1.8602,1.8348,1.8329,1.8548,1.9205,1.983,2.0102,1.9984,1.9887,1.9941,1.9973,1.9941,1.9919,1.9919,1.9919,1.9919,1.9919,1.9919,1.9919,1.9919,1.9919,1.9919,1.9919,1.9919,1.9919,1.9919,1.9919,1.9919,1.9919,1.9919,1.9919,1.9919,1.9919,1.9919,1.9919,1.9876,1.9951,2.0146,2.0157,2.0038,2.0103,2.0372,2.0544,2.0684,2.091,2.1222,2.1458,2.1695,2.1885,2.2331,2.2507,2.2594,2.2918,2.3228,2.3079,2.3215,2.3215,2.3141,2.3513,2.4031,2.4562,1.237,1.2515,1.2756,1.3105,1.3556,1.364,1.358,1.3491,1.3112,1.2885,1.2885,1.2681,1.2742,1.3025,1.3025,1.3049,1.3193,1.3319,1.3274,1.3357,1.3574,1.3733,1.3893,1.4053,1.4175,1.4191,1.4199,1.4276,1.4199,1.4276,1.4361,1.4592,1.4669,1.4745,1.4968,1.5045,1.5122,1.5275,1.5623,1.5915,1.6293,1.668,1.7043,1.7386,1.7396,1.7561,1.795,1.8114,1.8231,1.8397,1.8475,1.8484,1.8397,1.8317,1.8248,1.8162,1.8622,1.8912,1.9075,1.9899,2.0229,1.9764,1.9983,2.0059,2.0059,1.993,1.9919,1.9919,1.9919,1.9919,1.9919,1.9919,1.9919,1.9919,1.9919,1.9919,1.9919,1.9919,1.9919,1.9919,1.9919,1.9919,1.9919,1.9919,1.9919,1.9919,1.9919,1.9844,1.9854,1.981,1.9785,1.9793,1.9692,1.9748,1.9949,2.0212,2.0233,2.02,2.0307,2.0469,2.0787,2.1049,2.1288,2.158,2.1732,2.1813,2.1897,2.2184,2.2184,2.2408,2.2769,2.2843,2.2992,2.3513,2.3948,1.2149,1.2271,1.2602,1.3013,1.3351,1.3351,1.3286,1.3184,1.2872,1.2796,1.2734,1.2505,1.2505,1.2734,1.2803,1.2892,1.3018,1.3011,1.3011,1.3011,1.3086,1.3227,1.3398,1.3482,1.3625,1.3645,1.3744,1.3744,1.3667,1.3667,1.3898,1.4207,1.4368,1.4515,1.4814,1.4968,1.4992,1.5126,1.5491,1.5763,1.5926,1.6179,1.6687,1.732,1.7408,1.7566,1.7971,1.8027,1.8125,1.8135,1.8182,1.8191,1.8144,1.8191,1.8201,1.8303,1.8838,1.9212,1.9078,1.9844,2.0089,1.9776,1.9997,2.0152,2.0274,2.0145,2.0103,1.9951,2.0016,1.9941,1.9919,1.9919,1.9919,1.9919,1.9919,1.9919,1.9919,1.9962,1.9951,1.9951,1.9973,1.9995,1.9941,1.9768,1.9693,1.9693,1.9617,1.9584,1.9637,1.9479,1.946,1.9585,1.9467,1.9526,1.9895,2.0075,2.0045,1.9983,1.9994,2.02,2.0231,2.055,2.0847,2.1298,2.1298,2.1429,2.1708,2.1703,2.1511,2.154,2.1944,2.2346,2.2235,2.2806,2.3479,1.2359,1.2467,1.2488,1.2565,1.2579,1.2579,1.2579,1.2628,1.2558,1.2565,1.2558,1.2481,1.2488,1.2558,1.2558,1.2558,1.2551,1.2538,1.2608,1.2608,1.2923,1.3098,1.3105,1.3498,1.3652,1.3583,1.359,1.359,1.3667,1.3667,1.3744,1.3744,1.4137,1.4368,1.453,1.4846,1.5057,1.522,1.526,1.5486,1.5771,1.5812,1.6389,1.7225,1.7417,1.7594,1.8008,1.8248,1.8423,1.8343,1.8513,1.8541,1.847,1.8522,1.8703,1.8933,1.8984,1.9135,1.9242,1.9399,1.9546,1.9761,1.9839,2.0074,2.0465,2.0412,2.0304,2.0221,2.0122,2.0036,1.9854,1.9876,1.993,1.9952,1.9941,1.9941,1.9952,2.0091,2.0188,2.0122,2.0122,1.997,1.9919,1.9542,1.9367,1.9226,1.8977,1.881,1.907,1.9054,1.9169,1.9442,1.9493,1.9553,1.944,1.9771,1.9902,1.9832,2.0141,2.0447,2.0393,2.0449,2.0779,2.1012,2.109,2.1313,2.1613,2.1622,2.1343,2.1284,2.136,2.158,2.1435,2.2401,2.3076,1.1837,1.2114,1.2114,1.2269,1.2501,1.2501,1.2501,1.2501,1.2501,1.2501,1.2501,1.2501,1.2501,1.2501,1.2501,1.2501,1.2501,1.2501,1.2501,1.2501,1.2656,1.2733,1.2733,1.2888,1.2972,1.2965,1.2965,1.2965,1.2965,1.2965,1.3197,1.3682,1.4004,1.4361,1.4851,1.5182,1.5358,1.5423,1.552,1.565,1.5772,1.5886,1.6237,1.6909,1.7225,1.7548,1.7953,1.836,1.856,1.8641,1.8636,1.8645,1.8579,1.8626,1.8741,1.8972,1.9131,1.9133,1.9006,1.9414,1.9584,1.9384,1.9602,1.9909,2.0205,2.0032,1.9829,1.9912,1.9735,1.9605,1.9579,1.9732,1.9908,2.0048,2.0081,2.0145,2.0274,2.0382,2.0358,2.0047,1.9813,1.9616,1.9543,1.9378,1.93,1.9223,1.9145,1.902,1.9111,1.9064,1.9056,1.9134,1.9121,1.9018,1.8969,1.9673,2.0085,2.0085,2.0199,2.054,2.063,2.0673,2.0928,2.1017,2.1096,2.1053,2.1334,2.1223,2.0979,2.0803,2.0964,2.1026,2.077,2.1749,2.246,1.1495,1.1656,1.17,1.1921,1.2276,1.2167,1.2232,1.2276,1.2192,1.2114,1.2114,1.2114,1.2141,1.2102,1.2187,1.2298,1.2396,1.2478,1.2501,1.2501,1.2501,1.2501,1.2501,1.2501,1.2501,1.2501,1.2501,1.2501,1.2501,1.2501,1.2811,1.3281,1.3589,1.414,1.4712,1.5106,1.5377,1.5529,1.5715,1.5796,1.5861,1.5975,1.613,1.6451,1.6944,1.7437,1.801,1.8346,1.8592,1.8673,1.8673,1.8673,1.8673,1.8673,1.8779,1.8898,1.9008,1.8969,1.8785,1.9172,1.9341,1.9121,1.9343,1.9745,2.0056,1.9773,1.9671,1.9679,1.9569,1.9401,1.9358,1.9579,1.9772,1.991,1.9941,2.0005,2.0152,2.0237,2.0111,1.9806,1.9569,1.9391,1.9252,1.9153,1.9133,1.9074,1.8996,1.8937,1.8957,1.8896,1.8801,1.8859,1.8823,1.8808,1.8861,1.9392,1.9894,1.9899,2.0385,2.0708,2.0867,2.0942,2.0996,2.1017,2.0985,2.0931,2.0845,2.0737,2.0597,2.0447,2.0593,2.0748,2.0803,2.1089,2.1788,1.1274,1.1299,1.133,1.1626,1.1862,1.1626,1.1613,1.183,1.1501,1.1423,1.1442,1.1352,1.151,1.1445,1.1549,1.1775,1.2217,1.2351,1.2464,1.2528,1.2522,1.2515,1.2501,1.2522,1.2528,1.2528,1.2515,1.2515,1.2522,1.2542,1.262,1.269,1.3162,1.372,1.4069,1.4661,1.5225,1.5667,1.5796,1.5869,1.6016,1.5958,1.6048,1.604,1.6451,1.7108,1.7928,1.8001,1.8255,1.8673,1.8673,1.8673,1.8673,1.8673,1.8755,1.8689,1.8556,1.8565,1.867,1.8646,1.8827,1.9076,1.9307,1.945,1.9836,1.9826,1.9745,1.9594,1.9554,1.9493,1.9253,1.9262,1.931,1.932,1.9478,1.9488,1.948,1.9523,1.9564,1.9554,1.9484,1.9473,1.9243,1.8996,1.8778,1.869,1.8531,1.835,1.8574,1.8551,1.8546,1.867,1.8745,1.8755,1.8837,1.9062,1.9341,1.9634,2.044,2.0916,2.082,2.0911,2.1066,2.1087,2.1157,2.1103,2.1093,2.0985,2.0877,2.0748,2.0741,2.0689,2.0812,2.099,2.1334,1.0747,1.1054,1.1013,1.1263,1.1592,1.139,1.1426,1.1547,1.1389,1.1317,1.139,1.1403,1.1403,1.1506,1.153,1.1629,1.1826,1.1892,1.2127,1.2599,1.2579,1.2603,1.2542,1.261,1.2657,1.2657,1.2657,1.2657,1.2678,1.2759,1.2883,1.2993,1.3417,1.4011,1.4574,1.4989,1.542,1.5869,1.5959,1.5991,1.5958,1.5966,1.5966,1.6048,1.613,1.6534,1.7108,1.7673,1.8174,1.8673,1.8673,1.8673,1.8673,1.8673,1.8598,1.8484,1.8541,1.8513,1.8546,1.8532,1.867,1.8818,1.8918,1.9082,1.9398,1.9235,1.9215,1.93,1.9138,1.8946,1.8898,1.8888,1.9052,1.9473,1.9533,1.9514,1.9624,1.9564,1.9371,1.9381,1.9138,1.8946,1.8898,1.8708,1.8679,1.8689,1.8537,1.8494,1.855,1.8632,1.8579,1.8664,1.8673,1.8673,1.8755,1.8918,1.9176,1.9432,2.0069,2.0688,2.0705,2.0765,2.092,2.1114,2.1195,2.1276,2.1254,2.12,2.1082,2.0974,2.0845,2.0805,2.0708,2.0873,2.1307,1.0473,1.0781,1.0753,1.0988,1.1338,1.1086,1.1063,1.1201,1.1004,1.0943,1.1048,1.0986,1.1136,1.1236,1.1259,1.1364,1.1481,1.1445,1.1776,1.225,1.235,1.2364,1.2449,1.2687,1.2813,1.2813,1.2813,1.2813,1.282,1.2901,1.302,1.3161,1.3412,1.3937,1.4677,1.4988,1.5381,1.5883,1.5958,1.5966,1.5966,1.5966,1.5966,1.5966,1.5966,1.6205,1.6698,1.7273,1.7846,1.8337,1.8592,1.8673,1.8673,1.8673,1.8617,1.8541,1.8579,1.8617,1.8584,1.8607,1.8673,1.8673,1.8673,1.8837,1.9,1.8837,1.8837,1.9,1.8827,1.8673,1.8755,1.8673,1.8851,1.9221,1.9201,1.9341,1.946,1.9235,1.9072,1.8981,1.8827,1.8755,1.8673,1.8673,1.8673,1.8673,1.8673,1.8673,1.8673,1.8664,1.8673,1.8673,1.8673,1.8673,1.8673,1.8837,1.899,1.9297,1.9622,2.013,2.0343,2.0332,2.0455,2.079,2.0952,2.1114,2.1184,2.1265,2.12,2.1103,2.1017,2.1007,2.1032,2.0974,2.1264,1.0394,1.0422,1.0514,1.0737,1.0907,1.062,1.0695,1.0856,1.0503,1.036,1.0459,1.0556,1.0541,1.0629,1.0732,1.0947,1.1274,1.1188,1.1382,1.1586,1.1682,1.177,1.2234,1.2535,1.2782,1.2889,1.2889,1.2969,1.2969,1.3017,1.2969,1.3029,1.3179,1.3587,1.4334,1.4631,1.5133,1.5801,1.5966,1.5966,1.5966,1.5966,1.5966,1.5966,1.5966,1.6205,1.6534,1.678,1.7191,1.7928,1.8346,1.851,1.8592,1.8673,1.8582,1.8563,1.8673,1.8673,1.8664,1.8664,1.8673,1.8673,1.8673,1.8673,1.8755,1.8755,1.8755,1.8755,1.8755,1.8673,1.8673,1.8673,1.8745,1.8755,1.8799,1.8818,1.8755,1.8755,1.8755,1.8755,1.8673,1.8673,1.8673,1.8673,1.8673,1.8673,1.8673,1.8673,1.8673,1.8673,1.8673,1.8683,1.8702,1.8702,1.8711,1.8859,1.9004,1.9,1.9316,1.9571,1.9967,2.0049,2.013,2.0384,2.0627,2.0871,2.1033,2.1114,2.1276,2.1211,2.1211,2.1265,2.1254,2.1211,2.119,1.0487,1.0634,1.0579,1.0672,1.0777,1.0465,1.0519,1.0655,1.047,1.04,1.0492,1.0509,1.0574,1.0683,1.0683,1.0793,1.0887,1.0865,1.0854,1.0931,1.0992,1.1324,1.1806,1.1962,1.2217,1.2612,1.2713,1.2787,1.3125,1.3214,1.3166,1.2976,1.3214,1.3521,1.3949,1.4235,1.4721,1.5463,1.5546,1.5711,1.5966,1.5966,1.5966,1.5966,1.5966,1.6048,1.6205,1.6534,1.6944,1.7527,1.7691,1.7773,1.7773,1.801,1.8174,1.8255,1.851,1.8673,1.8673,1.8673,1.8673,1.8673,1.8673,1.8673,1.8673,1.8673,1.8673,1.8673,1.8673,1.8673,1.8673,1.8673,1.8673,1.8673,1.8673,1.8673,1.8673,1.8673,1.8673,1.8673,1.8673,1.8673,1.8673,1.8673,1.8673,1.8673,1.8673,1.8673,1.8673,1.8673,1.8673,1.873,1.8758,1.8749,1.8777,1.8853,1.8916,1.8783,1.8918,1.9091,1.9489,1.9723,1.9886,2.013,2.0303,2.0465,2.079,2.0952,2.1114,2.1297,2.1276,2.1276,2.1286,2.1254,2.1243,1.004,1.0148,1.0081,1.0009,0.9961,1.029,1.0443,1.0431,1.0432,1.0525,1.0612,1.0634,1.0672,1.0732,1.0737,1.0737,1.0737,1.0737,1.0732,1.0732,1.0726,1.1103,1.1529,1.1704,1.1961,1.2269,1.2528,1.2693,1.3035,1.328,1.3295,1.3207,1.3315,1.3597,1.3945,1.4092,1.4397,1.5051,1.5298,1.5546,1.5711,1.5883,1.5966,1.5966,1.5966,1.5966,1.6048,1.6287,1.6616,1.7035,1.7281,1.7363,1.7445,1.76,1.7846,1.8001,1.8255,1.851,1.8673,1.8673,1.8673,1.8673,1.8673,1.8673,1.8673,1.8673,1.8673,1.8673,1.8673,1.8673,1.8673,1.8673,1.8673,1.8673,1.8673,1.8673,1.8673,1.8673,1.8592,1.851,1.8592,1.8592,1.851,1.8592,1.8673,1.8673,1.8673,1.8673,1.8673,1.8683,1.862,1.8613,1.878,1.8808,1.8855,1.893,1.907,1.8928,1.8897,1.8961,1.9067,1.9457,1.9499,1.9662,1.9906,2.015,2.0496,2.0842,2.1026,2.1189,2.1238,2.134,2.1383,2.133,2.1319,0.9309,0.9235,0.9235,0.8984,0.8883,0.9875,1.0133,1.0034,1.0205,1.0469,1.0544,1.0565,1.0476,1.0654,1.0487,1.0487,1.0487,1.0404,1.057,1.057,1.0654,1.0976,1.1297,1.1617,1.1783,1.205,1.2395,1.2554,1.2714,1.3065,1.3238,1.3115,1.3135,1.3486,1.3707,1.3894,1.4232,1.4638,1.4968,1.5216,1.5381,1.5628,1.5883,1.5883,1.5966,1.5966,1.5966,1.6048,1.6213,1.6616,1.7035,1.7117,1.7199,1.7281,1.7437,1.7782,1.7882,1.8147,1.8557,1.8657,1.8639,1.8648,1.8702,1.8673,1.8592,1.8592,1.8673,1.8673,1.8673,1.8673,1.8673,1.8673,1.8673,1.8601,1.861,1.8629,1.8592,1.8592,1.8428,1.801,1.8346,1.8265,1.8265,1.8274,1.8629,1.8796,1.8815,1.8799,1.8725,1.8725,1.8551,1.8367,1.8542,1.881,1.8866,1.8941,1.9147,1.9212,1.907,1.9078,1.8973,1.9081,1.9086,1.9221,1.9598,1.9935,2.0232,2.0589,2.0876,2.1246,2.1349,2.1474,2.1588,2.147,2.1416,0.8911,0.8399,0.8399,0.8315,0.8311,0.8874,0.904,0.9059,0.9457,0.9873,1.007,0.9903,0.9903,1.0153,0.9908,0.9653,0.9741,0.982,0.9824,1.0237,1.057,1.0737,1.082,1.0987,1.1237,1.1486,1.1653,1.1902,1.2152,1.2401,1.2401,1.2401,1.2484,1.2567,1.2982,1.3148,1.3403,1.4066,1.4397,1.4563,1.4878,1.5298,1.5546,1.5546,1.5801,1.5966,1.5966,1.5966,1.6048,1.613,1.6295,1.6377,1.6451,1.6698,1.6953,1.7152,1.7504,1.7906,1.8247,1.8413,1.8413,1.8394,1.8512,1.851,1.8174,1.851,1.8673,1.8673,1.8673,1.8673,1.8673,1.8673,1.851,1.8283,1.8293,1.8174,1.7818,1.7937,1.7946,1.77,1.7627,1.7773,1.7946,1.7853,1.8229,1.868,1.8847,1.8792,1.8792,1.868,1.8476,1.8181,1.8596,1.8865,1.8875,1.9024,1.9335,1.941,1.9297,1.9174,1.907,1.9032,1.9151,1.9186,1.9406,1.9736,2.0066,2.0488,2.0869,2.1168,2.1408,2.1544,2.1627,2.157,2.1484,0.8019,0.7474,0.7474,0.7307,0.7307,0.806,0.8395,0.8478,0.8896,0.9318,0.9653,0.949,0.9574,0.9736,0.949,0.9407,0.9407,0.9407,0.949,0.982,1.0153,1.0404,1.0487,1.0654,1.082,1.107,1.132,1.157,1.1736,1.1986,1.2152,1.2069,1.2075,1.2401,1.265,1.2663,1.3072,1.3652,1.3983,1.4232,1.4473,1.4803,1.5051,1.5051,1.5298,1.5463,1.5711,1.5719,1.5801,1.5966,1.5966,1.5966,1.6048,1.6213,1.6493,1.6842,1.7076,1.7622,1.7993,1.8032,1.7969,1.7978,1.8046,1.8046,1.801,1.8255,1.851,1.8673,1.8673,1.8673,1.8428,1.8183,1.7928,1.7864,1.7863,1.7669,1.7421,1.7569,1.7652,1.7413,1.7421,1.7474,1.7544,1.7539,1.7834,1.8382,1.8316,1.8322,1.8304,1.8277,1.8295,1.8238,1.8587,1.8849,1.8907,1.9201,1.9523,1.9571,1.9467,1.9344,1.9231,1.924,1.925,1.9361,1.9368,1.9535,1.9869,2.0296,2.067,2.096,2.12,2.1484,2.161,2.1494,2.1431,0.7059,0.6469,0.6469,0.6301,0.6221,0.7311,0.7725,0.7809,0.8311,0.8733,0.9151,0.9235,0.9156,0.924,0.9156,0.9235,0.9151,0.924,0.9235,0.9323,0.9741,1.0075,1.0153,1.0404,1.067,1.0759,1.1076,1.1237,1.1403,1.1659,1.1676,1.1849,1.1855,1.2124,1.2445,1.2714,1.2984,1.3471,1.3832,1.4013,1.4159,1.447,1.4682,1.4796,1.4796,1.5051,1.5381,1.5463,1.5628,1.5966,1.5966,1.5966,1.5966,1.6089,1.622,1.6893,1.6961,1.7239,1.7611,1.7701,1.7521,1.7561,1.7469,1.7563,1.7727,1.7873,1.8046,1.832,1.8411,1.8311,1.7937,1.7745,1.7498,1.7351,1.7351,1.7199,1.7069,1.7288,1.7238,1.7103,1.7111,1.7229,1.7323,1.7409,1.7698,1.7894,1.7911,1.7928,1.792,1.7937,1.799,1.8025,1.8277,1.8849,1.9004,1.9331,1.9664,1.9722,1.9628,1.9552,1.9458,1.9505,1.9524,1.9401,1.9419,1.9588,1.9757,2.0095,2.0428,2.0652,2.1044,2.1299,2.1418,2.1325,2.1368,0.6724,0.5636,0.5636,0.5552,0.5636,0.6221,0.6472,0.6556,0.7311,0.7897,0.8311,0.8315,0.8566,0.8654,0.8483,0.8311,0.8483,0.865,0.8822,0.8905,0.9323,0.9653,0.9903,1.009,1.0372,1.0751,1.0897,1.0853,1.0926,1.0904,1.1143,1.112,1.1227,1.1565,1.2174,1.2495,1.29,1.3425,1.3746,1.3885,1.3956,1.4119,1.4416,1.457,1.4548,1.4796,1.5216,1.5381,1.5546,1.5958,1.5966,1.5974,1.5948,1.6127,1.6292,1.6441,1.6697,1.6958,1.7366,1.7298,1.7196,1.7153,1.7238,1.7221,1.7264,1.7386,1.7625,1.7779,1.7805,1.7696,1.7545,1.743,1.7334,1.7219,1.7128,1.7062,1.6798,1.6872,1.7007,1.6848,1.6823,1.6908,1.7093,1.7262,1.7467,1.7682,1.7725,1.7845,1.794,1.7888,1.7766,1.7808,1.7851,1.8479,1.8994,1.942,1.9786,1.9777,1.9721,1.9807,1.976,1.9817,1.9788,1.9675,1.9581,1.9638,1.9809,1.998,2.017,2.0419,2.0756,2.1181,2.1186,2.1115,2.1135,0.6224,0.5384,0.5384,0.53,0.5132,0.5552,0.5717,0.5885,0.6643,0.7314,0.7729,0.7976,0.8232,0.8315,0.8232,0.806,0.8144,0.8232,0.8399,0.8483,0.8817,0.9156,0.9421,0.9627,1.0057,1.0351,1.054,1.0662,1.0832,1.0862,1.0905,1.0987,1.1014,1.1328,1.1895,1.2301,1.2728,1.3271,1.3593,1.3759,1.3831,1.3956,1.3972,1.4019,1.4059,1.4225,1.466,1.4817,1.5014,1.537,1.5523,1.5554,1.5692,1.5939,1.6273,1.6402,1.6544,1.6649,1.6897,1.6908,1.6717,1.6651,1.6792,1.6884,1.7018,1.7159,1.7316,1.7443,1.7403,1.732,1.7328,1.7238,1.7028,1.6885,1.6875,1.6872,1.68,1.6803,1.682,1.6803,1.6857,1.6959,1.705,1.7202,1.7235,1.7372,1.7501,1.7613,1.7902,1.7726,1.7559,1.7735,1.7814,1.8252,1.8768,1.9214,1.9563,1.9572,1.9746,1.9834,1.9843,1.9843,1.9987,1.9968,1.9892,1.977,1.976,1.9933,2.0019,2.0096,2.0327,2.0558,2.0819,2.0905,2.0895,0.5801,0.5384,0.53,0.5046,0.4794,0.4962,0.513,0.5298,0.6137,0.6811,0.7227,0.7809,0.806,0.806,0.806,0.806,0.806,0.8144,0.8156,0.8265,0.8437,0.8605,0.8906,0.9192,0.9663,1.0109,1.039,1.0655,1.0934,1.0982,1.1031,1.1101,1.1134,1.1354,1.1732,1.214,1.2588,1.299,1.3383,1.3713,1.3765,1.3743,1.36,1.3451,1.3417,1.3666,1.4221,1.4383,1.4638,1.4949,1.5116,1.5205,1.5235,1.5683,1.6051,1.6377,1.6402,1.6592,1.6609,1.6511,1.6408,1.6384,1.63,1.6592,1.6851,1.6969,1.7095,1.7296,1.7188,1.6961,1.7027,1.6864,1.6718,1.6718,1.6735,1.6698,1.6844,1.6933,1.6974,1.6966,1.695,1.6966,1.7102,1.7126,1.7222,1.7222,1.7271,1.7271,1.7463,1.7375,1.7288,1.7639,1.7814,1.8077,1.8427,1.8777,1.8952,1.9039,1.9388,1.9563,1.9765,1.9881,1.9956,2.0148,2.0072,1.9977,1.9968,1.994,1.996,2.0028,1.9902,1.9998,2.0337,2.0414,2.0414,0.5801,0.5384,0.4962,0.471,0.4626,0.4372,0.4204,0.4372,0.5633,0.6137,0.6472,0.7562,0.806,0.8064,0.8068,0.8064,0.8068,0.8089,0.8125,0.8259,0.8272,0.856,0.8882,0.8994,0.9375,0.9817,1.0163,1.0602,1.0854,1.0977,1.1139,1.1226,1.1341,1.1493,1.1715,1.201,1.2229,1.2576,1.3188,1.3607,1.392,1.3892,1.3749,1.3607,1.3498,1.3645,1.4077,1.4231,1.445,1.5012,1.5127,1.5142,1.5227,1.5235,1.5676,1.6074,1.6442,1.6738,1.6641,1.6462,1.6341,1.6349,1.6341,1.6487,1.6718,1.68,1.6845,1.6645,1.6751,1.68,1.6853,1.6738,1.6795,1.682,1.682,1.6901,1.7015,1.7006,1.7055,1.7063,1.7031,1.7047,1.7088,1.7096,1.7104,1.7112,1.7112,1.7112,1.7128,1.7145,1.7169,1.745,1.7676,1.7949,1.8075,1.8409,1.8541,1.8628,1.9084,1.9434,1.9577,1.9818,2.0106,2.0251,2.0204,2.0214,2.0233,2.0166,1.9996,1.9921,1.9921,1.9921,1.9921,2.0008,2.0095,0.4959,0.4962,0.4794,0.4374,0.3954,0.3952,0.3868,0.4038,0.5379,0.6137,0.6389,0.7474,0.806,0.8076,0.8109,0.8142,0.815,0.8187,0.8232,0.8264,0.8281,0.8387,0.8507,0.8726,0.8952,0.9371,0.967,0.9937,1.0396,1.0912,1.1259,1.1351,1.1456,1.1417,1.1648,1.1956,1.2086,1.2487,1.3054,1.353,1.3727,1.3827,1.3899,1.3756,1.3607,1.3712,1.3963,1.3998,1.4166,1.4564,1.4649,1.4719,1.4799,1.4894,1.5271,1.5395,1.5757,1.6199,1.6559,1.656,1.6479,1.6495,1.6544,1.6698,1.6741,1.6766,1.6836,1.6747,1.6803,1.6836,1.6868,1.695,1.6982,1.6998,1.6974,1.7015,1.708,1.7088,1.7104,1.7112,1.7112,1.7128,1.7128,1.7112,1.7112,1.7112,1.7128,1.7153,1.7193,1.7242,1.7266,1.7291,1.7534,1.7689,1.7792,1.8,1.81,1.8356,1.9052,1.9414,1.9539,1.979,2.0187,2.036,2.0459,2.0478,2.0497,2.0289,2.0034,1.9959,1.9921,1.9968,2.0015,1.994,2.0027,0.4044,0.4391,0.4391,0.397,0.3382,0.3641,0.3472,0.3465,0.5171,0.5927,0.6337,0.7447,0.8134,0.8142,0.8203,0.8232,0.8236,0.8305,0.8346,0.8362,0.837,0.8387,0.8432,0.8565,0.8648,0.8922,0.9233,0.9516,0.993,1.045,1.1015,1.1277,1.1438,1.1494,1.145,1.1704,1.1945,1.215,1.2747,1.3123,1.3261,1.3565,1.3574,1.3548,1.3527,1.3579,1.37,1.3899,1.406,1.4203,1.4299,1.4434,1.4434,1.4604,1.4868,1.5044,1.5315,1.5715,1.6152,1.6379,1.6462,1.651,1.6795,1.6901,1.6917,1.6917,1.6917,1.6917,1.6925,1.6998,1.7071,1.7096,1.7088,1.7088,1.7088,1.7104,1.7112,1.7112,1.7112,1.7112,1.7128,1.7169,1.7161,1.7128,1.712,1.712,1.7145,1.7177,1.7258,1.7331,1.7388,1.7421,1.7421,1.7584,1.7681,1.7778,1.7784,1.8025,1.8813,1.9222,1.9347,1.9832,2.034,2.0496,2.0605,2.0686,2.0677,2.0355,2.0081,2.0157,2.0195,2.0148,2.0119,2.0034,1.9959,0.3472,0.3505,0.3505,0.3505,0.3336,0.3024,0.2845,0.2994,0.4829,0.5593,0.5901,0.7317,0.8117,0.8223,0.8137,0.8153,0.8326,0.8334,0.8308,0.8356,0.8468,0.8413,0.8449,0.8478,0.8583,0.8744,0.8956,0.9219,0.9482,0.9904,1.0367,1.0743,1.1099,1.136,1.15,1.1539,1.1692,1.1916,1.2302,1.2525,1.279,1.2935,1.2942,1.2898,1.3063,1.3204,1.3433,1.3774,1.4095,1.4238,1.4278,1.4299,1.4299,1.4387,1.4646,1.4808,1.4882,1.5293,1.5593,1.5963,1.6035,1.6301,1.6697,1.7055,1.7047,1.708,1.7088,1.7063,1.7039,1.7063,1.7104,1.7112,1.7112,1.7112,1.7112,1.7112,1.7112,1.7112,1.7112,1.7112,1.7153,1.7218,1.7274,1.7266,1.7218,1.7218,1.7185,1.7218,1.7372,1.7461,1.7518,1.7543,1.7494,1.7534,1.7624,1.7673,1.7821,1.7894,1.8377,1.878,1.9077,1.9671,2.039,2.0573,2.0674,2.0765,2.0837,2.0639,2.0507,2.0507,2.0379,2.0365,2.028,2.0214,2.0091,0.2983,0.2998,0.3039,0.3043,0.3025,0.2865,0.2777,0.294,0.4164,0.5204,0.596,0.6935,0.7641,0.7743,0.7614,0.7891,0.8253,0.7776,0.7895,0.8006,0.8114,0.8129,0.8246,0.8429,0.8607,0.8607,0.8786,0.8875,0.896,0.9322,0.9585,1.003,1.0654,1.1188,1.1339,1.1406,1.1561,1.1732,1.1996,1.2302,1.2396,1.275,1.2802,1.2872,1.2749,1.311,1.3462,1.3585,1.3914,1.4163,1.4292,1.4299,1.4299,1.4299,1.4387,1.4557,1.4646,1.4734,1.4999,1.5403,1.5904,1.6364,1.6721,1.7112,1.7024,1.7112,1.7112,1.7112,1.7112,1.7112,1.7112,1.7112,1.7112,1.7112,1.7112,1.7112,1.7112,1.7112,1.7145,1.7161,1.7242,1.7323,1.738,1.7429,1.7372,1.7315,1.7283,1.7291,1.7478,1.7599,1.7664,1.7737,1.7705,1.7713,1.7802,1.7794,1.777,1.7944,1.8118,1.8516,1.8914,1.9795,2.0391,2.0575,2.0833,2.0925,2.0906,2.097,2.0866,2.0715,2.0601,2.0516,2.044,2.0384,2.0242,0.2748,0.2769,0.281,0.2816,0.2799,0.2806,0.2806,0.2974,0.3771,0.5,0.6317,0.6754,0.7192,0.7297,0.7241,0.736,0.7814,0.7584,0.752,0.7617,0.7702,0.7799,0.7978,0.8157,0.8429,0.8518,0.8607,0.8607,0.8697,0.8964,0.9232,0.9585,1.003,1.0743,1.1188,1.1455,1.146,1.1632,1.181,1.1988,1.2077,1.2248,1.2426,1.242,1.2419,1.2683,1.3085,1.3324,1.3676,1.4,1.421,1.4299,1.4299,1.4299,1.4299,1.4299,1.4299,1.4299,1.4476,1.4999,1.5697,1.6034,1.6569,1.6761,1.6936,1.7024,1.7112,1.7112,1.7112,1.7024,1.6936,1.6936,1.6936,1.6849,1.7024,1.7112,1.7112,1.7112,1.7169,1.7218,1.7307,1.7323,1.723,1.7203,1.736,1.7411,1.7591,1.7616,1.7737,1.7819,1.7819,1.79,1.7957,1.7973,1.8005,1.7973,1.7957,1.7957,1.8233,1.8434,1.8954,1.9723,2.0315,2.0455,2.0732,2.0964,2.113,2.1074,2.0951,2.0818,2.0762,2.0752,2.0648,2.0582,2.0393,0.2773,0.2825,0.2829,0.2829,0.283,0.2859,0.2853,0.292,0.3832,0.5005,0.616,0.679,0.706,0.706,0.6882,0.706,0.7153,0.7077,0.7084,0.7173,0.7263,0.7442,0.771,0.7978,0.825,0.8518,0.8607,0.8607,0.8607,0.8697,0.8964,0.9326,0.9782,1.0402,1.0743,1.1282,1.146,1.1549,1.1543,1.156,1.1632,1.1721,1.1721,1.1804,1.2054,1.2231,1.2627,1.304,1.3394,1.3794,1.3951,1.4122,1.4299,1.421,1.421,1.4299,1.4299,1.4299,1.4387,1.4822,1.5175,1.5704,1.6145,1.6401,1.6489,1.6761,1.6936,1.6761,1.6936,1.6753,1.6753,1.6753,1.6753,1.6753,1.6936,1.7057,1.7057,1.7001,1.7065,1.6918,1.7152,1.733,1.7016,1.698,1.7256,1.7432,1.7716,1.794,1.7973,1.7965,1.7932,1.8014,1.8087,1.8087,1.8087,1.8135,1.8144,1.8144,1.822,1.8382,1.8668,1.9091,1.9666,2.013,2.0501,2.0788,2.0983,2.1159,2.1055,2.097,2.1055,2.1036,2.0913,2.0762,2.0582,0.281,0.283,0.2851,0.2859,0.286,0.287,0.2868,0.2951,0.3583,0.4305,0.5022,0.5562,0.592,0.601,0.601,0.6097,0.6544,0.5918,0.5918,0.6723,0.6723,0.7081,0.7349,0.771,0.8067,0.8518,0.8607,0.8611,0.8607,0.8619,0.8611,0.8969,0.9747,1.054,1.1057,1.1509,1.1547,1.1493,1.1514,1.1542,1.1471,1.1554,1.156,1.156,1.1738,1.1944,1.2191,1.2681,1.3019,1.3426,1.3674,1.3712,1.4067,1.4149,1.4053,1.4224,1.4306,1.4299,1.4299,1.4469,1.4734,1.5175,1.5616,1.5969,1.5969,1.6057,1.6145,1.6321,1.6497,1.6313,1.6145,1.6761,1.6849,1.6665,1.6777,1.6848,1.6888,1.6758,1.674,1.6543,1.6643,1.6865,1.678,1.6725,1.6918,1.715,1.7496,1.7748,1.7865,1.7965,1.7957,1.807,1.8144,1.8144,1.8152,1.8168,1.8176,1.816,1.816,1.8253,1.8447,1.865,1.9116,1.9759,2.013,2.0501,2.0881,2.1168,2.1168,2.1159,2.1168,2.1168,2.1064,2.0922,2.0781,0.2834,0.2846,0.2866,0.2784,0.2694,0.2784,0.2874,0.2964,0.3411,0.3768,0.4128,0.4574,0.4933,0.5025,0.5022,0.4933,0.5649,0.5201,0.4933,0.5739,0.5918,0.6186,0.6723,0.7352,0.7799,0.825,0.8522,0.8615,0.866,0.8656,0.8767,0.9174,0.9662,1.0383,1.1087,1.1475,1.1639,1.1596,1.1618,1.1645,1.158,1.1563,1.159,1.158,1.1664,1.1754,1.1989,1.2249,1.2556,1.3071,1.3245,1.3362,1.3815,1.4001,1.4001,1.4276,1.4455,1.4434,1.4401,1.438,1.4633,1.4741,1.5175,1.544,1.5528,1.5704,1.5704,1.5881,1.5976,1.58,1.5719,1.6424,1.6528,1.6256,1.6325,1.6491,1.6464,1.6421,1.6453,1.6256,1.6269,1.6424,1.6543,1.6464,1.6558,1.6863,1.7165,1.7427,1.778,1.7897,1.8014,1.8103,1.8176,1.8168,1.8168,1.8168,1.8176,1.8176,1.8176,1.8176,1.8269,1.8456,1.893,1.9395,1.9767,2.0325,2.089,2.1168,2.1168,2.1168,2.1168,2.1168,2.1168,2.1064,2.0932,0.2848,0.2872,0.2874,0.2604,0.2335,0.2604,0.2784,0.2874,0.3231,0.3499,0.3588,0.3947,0.4216,0.4218,0.4218,0.4307,0.4397,0.4307,0.4397,0.4576,0.5112,0.538,0.5918,0.6637,0.7173,0.7799,0.8075,0.8195,0.8631,0.8738,0.8965,0.9395,0.96,1.0345,1.0906,1.1462,1.1593,1.163,1.1748,1.1743,1.1677,1.1726,1.1743,1.1732,1.1699,1.1721,1.1925,1.2085,1.2363,1.2671,1.2889,1.3345,1.3717,1.3912,1.4277,1.4544,1.4622,1.4534,1.455,1.4523,1.4475,1.4586,1.4804,1.4946,1.5109,1.5314,1.5365,1.5535,1.5624,1.5329,1.5226,1.5513,1.5794,1.575,1.5816,1.5883,1.6025,1.6031,1.618,1.6107,1.6165,1.6182,1.6176,1.6213,1.6213,1.6558,1.6878,1.7258,1.7622,1.8002,1.8119,1.8127,1.8176,1.8176,1.8176,1.8176,1.8176,1.8176,1.8176,1.8176,1.8269,1.8269,1.8642,1.9023,1.9488,2.0046,2.0696,2.1075,2.1168,2.1168,2.1168,2.1168,2.1168,2.1168,2.1055,0.2866,0.2874,0.2515,0.2335,0.2156,0.1976,0.1796,0.1885,0.1975,0.2243,0.2601,0.3139,0.314,0.287,0.3499,0.3499,0.3499,0.3678,0.4037,0.4305,0.4574,0.4933,0.538,0.5828,0.6454,0.6812,0.718,0.7574,0.8194,0.8513,0.9065,0.96,0.9618,1.0208,1.0717,1.1314,1.1464,1.1667,1.1803,1.1851,1.1803,1.1824,1.1846,1.183,1.1803,1.1835,1.1976,1.1916,1.2202,1.2558,1.2311,1.2552,1.3364,1.3181,1.3181,1.4094,1.4179,1.4251,1.4588,1.4672,1.4645,1.4597,1.4681,1.4641,1.4702,1.4812,1.5068,1.513,1.5323,1.5151,1.5061,1.5248,1.5427,1.5463,1.5528,1.5684,1.5749,1.5752,1.5789,1.5768,1.5731,1.5839,1.583,1.5931,1.6032,1.6306,1.6602,1.7086,1.7445,1.792,1.8176,1.8176,1.8217,1.8225,1.8192,1.8184,1.8184,1.8176,1.8176,1.8176,1.8176,1.8269,1.8456,1.8828,1.9387,1.9851,2.0408,2.0788,2.0983,2.1168,2.1168,2.1168,2.1168,2.1168,2.1159,0.2694,0.2335,0.2245,0.1976,0.1526,0.1077,0.0808,0.0898,0.1257,0.1615,0.1884,0.2153,0.2153,0.2064,0.2423,0.2512,0.2333,0.2513,0.2872,0.3321,0.4037,0.4216,0.4485,0.5112,0.5559,0.5918,0.6111,0.6597,0.7323,0.808,0.8641,0.9428,0.9531,0.9848,1.0252,1.063,1.0964,1.1377,1.1729,1.1884,1.1944,1.1928,1.1955,1.1938,1.1917,1.1955,1.2025,1.1944,1.214,1.241,1.2069,1.2331,1.3067,1.298,1.3252,1.4098,1.419,1.4435,1.4756,1.4828,1.4801,1.478,1.4794,1.4699,1.4624,1.4708,1.4722,1.4722,1.4958,1.509,1.5097,1.5097,1.5188,1.5188,1.5343,1.5505,1.5483,1.5468,1.5359,1.524,1.5268,1.5448,1.5462,1.5563,1.588,1.6307,1.6648,1.6962,1.7294,1.7703,1.803,1.8176,1.8241,1.829,1.8257,1.8249,1.8257,1.8241,1.8176,1.8176,1.8176,1.8286,1.8489,1.8854,1.9294,1.9776,2.0268,2.0603,2.0788,2.0983,2.1168,2.1168,2.1168,2.1168,2.1168,0.2245,0.1436,0.1886,0.1526,0.0628,0.0,0.0,0.0,0.0898,0.1257,0.1257,0.1347,0.1347,0.1257,0.1616,0.1616,0.1526,0.1706,0.2065,0.2245,0.2961,0.3319,0.3859,0.4399,0.4774,0.5036,0.5236,0.5563,0.6114,0.7136,0.8247,0.8952,0.9134,0.9423,0.9802,1.009,1.0347,1.0715,1.136,1.172,1.1777,1.1908,1.2172,1.204,1.208,1.2053,1.2107,1.2096,1.2053,1.2129,1.2256,1.2428,1.2799,1.3075,1.3645,1.4015,1.4077,1.4412,1.4726,1.4891,1.4923,1.4896,1.4896,1.4882,1.4848,1.4821,1.4835,1.4801,1.4933,1.5066,1.508,1.508,1.508,1.5094,1.5227,1.5361,1.531,1.5272,1.5313,1.5181,1.5181,1.5288,1.5451,1.5559,1.5621,1.624,1.6488,1.6627,1.6994,1.7371,1.7797,1.8102,1.8363,1.8444,1.8412,1.8395,1.8379,1.8338,1.8282,1.829,1.8371,1.8416,1.8428,1.8775,1.9227,1.9593,2.0033,2.0406,2.076,2.1075,2.1168,2.1168,2.1168,2.1168,2.1168,0.1616,0.1347,0.1167,0.0718,0.0,0.009,0.0,0.0,0.018,0.0,0.0449,0.0628,0.0718,0.0539,0.1077,0.1167,0.0988,0.1077,0.1707,0.2156,0.2604,0.2878,0.315,0.3711,0.3901,0.4007,0.4212,0.4709,0.5512,0.6713,0.7619,0.8098,0.8478,0.9142,0.9427,0.9616,0.9996,1.0185,1.0649,1.1023,1.1003,1.138,1.16,1.1789,1.1846,1.2123,1.2161,1.2156,1.214,1.2167,1.2172,1.2261,1.2356,1.255,1.2833,1.3205,1.3676,1.4115,1.4565,1.4919,1.4979,1.5072,1.5092,1.5092,1.5092,1.5079,1.5045,1.4991,1.4977,1.5025,1.5052,1.5052,1.5052,1.5072,1.5092,1.5106,1.5126,1.5153,1.5181,1.5194,1.5194,1.5336,1.5506,1.5581,1.5643,1.5698,1.5753,1.5987,1.6483,1.6921,1.7608,1.8041,1.8511,1.8639,1.8582,1.8566,1.8566,1.8566,1.8533,1.855,1.8566,1.8517,1.8563,1.8748,1.9084,1.9432,1.9912,2.0382,2.0712,2.0993,2.1113,2.1132,2.1187,2.1168,2.1168,0.1167,0.0808,0.0539,0.0269,0.0,0.0,0.0,0.0,0.0,0.0,0.0,0.0269,0.0,0.0,0.0539,0.0,0.0,0.0628,0.1167,0.1707,0.2165,0.2531,0.2813,0.3195,0.3299,0.3313,0.3431,0.3927,0.4892,0.559,0.6384,0.7429,0.8189,0.8668,0.8952,0.9427,0.9616,0.9616,0.9901,1.0,1.019,1.0753,1.1321,1.1605,1.1794,1.2083,1.2172,1.2172,1.2172,1.2172,1.2172,1.2172,1.2267,1.2267,1.2456,1.2833,1.3305,1.3676,1.4241,1.4617,1.4899,1.4993,1.5181,1.5147,1.5147,1.5133,1.5133,1.5086,1.5092,1.5126,1.5126,1.5126,1.5126,1.514,1.516,1.5174,1.5194,1.5221,1.5269,1.5309,1.5309,1.5323,1.55,1.5588,1.5657,1.578,1.573,1.598,1.6377,1.6446,1.7247,1.7831,1.8188,1.8584,1.868,1.8712,1.8769,1.8769,1.8769,1.8712,1.868,1.8696,1.872,1.8849,1.9033,1.9238,1.9647,2.0096,2.0472,2.0824,2.0955,2.1011,2.1058,2.1094,2.1075,0.0718,0.0,0.0,0.0,0.0,0.0,0.0,0.0,0.0,0.0,0.0,0.0,0.0,0.0,0.0,0.0,0.0,0.0,0.0,0.1173,0.1544,0.2095,0.2565,0.2951,0.3059,0.3076,0.3189,0.3574,0.4244,0.4936,0.5908,0.7049,0.7714,0.8098,0.8668,0.9047,0.9146,0.9249,0.9349,0.9266,0.9733,1.0384,1.0863,1.1336,1.171,1.2094,1.211,1.2188,1.2188,1.2221,1.2227,1.2194,1.2178,1.2172,1.2361,1.2739,1.2928,1.3393,1.3864,1.4146,1.4523,1.4805,1.4993,1.4999,1.4999,1.5093,1.5087,1.5093,1.51,1.5187,1.5187,1.5194,1.5194,1.5208,1.5228,1.5282,1.5309,1.5323,1.5377,1.5432,1.5438,1.5445,1.552,1.5608,1.5703,1.5825,1.6005,1.6369,1.6496,1.6553,1.6827,1.7312,1.7682,1.8071,1.8552,1.8866,1.8956,1.8956,1.8939,1.885,1.8809,1.8891,1.8915,1.8866,1.9035,1.922,1.9363,1.9714,2.0166,2.0508,2.0494,2.0524,2.0647,2.0686,2.0816,0.018,0.0,0.0,0.0,0.0,0.0,0.0,0.0,0.0,0.0,0.0,0.0,0.0,0.0,0.0,0.0,0.0,0.0,0.0,0.0818,0.1189,0.1744,0.2309,0.2703,0.301,0.3025,0.3033,0.323,0.3698,0.4565,0.5051,0.5432,0.7616,0.8094,0.7908,0.8478,0.9051,0.9158,0.9207,0.924,0.932,0.988,1.0058,1.0525,1.1082,1.1458,1.1781,1.2069,1.2229,1.2373,1.2362,1.227,1.2216,1.2183,1.2361,1.2456,1.2644,1.2928,1.3393,1.3682,1.3964,1.4153,1.4247,1.4165,1.426,1.4549,1.4555,1.4669,1.4763,1.5033,1.5134,1.5235,1.5242,1.5276,1.5303,1.5438,1.552,1.5527,1.5554,1.5581,1.5594,1.5642,1.5723,1.5798,1.5859,1.5954,1.6001,1.6254,1.6354,1.6367,1.6474,1.685,1.7217,1.7734,1.8364,1.8898,1.9044,1.9142,1.9126,1.9053,1.9053,1.9151,1.9151,1.9053,1.9159,1.9273,1.9508,1.9514,1.9782,2.0132,2.0043,2.0117,2.0158,2.0283,2.0406]}]]